<?xml version="1.0" encoding="UTF-8" standalone="no" ?>
<gpx xmlns="http://www.topografix.com/GPX/1/1" xmlns:xsi="http://www.w3.org/2001/XMLSchema-instance" xsi:schemaLocation="http://www.topografix.com/GPX/1/1 http://www.topografix.com/GPX/1/1/gpx.xsd" version="1.1" creator="VisuGPX - https://www.visugpx.com">
  <metadata>
    <name>Tourniol Limouches</name>
    <desc><![CDATA[Tourniol Limouches]]></desc>
  </metadata>
  <trk>
    <name><![CDATA[Tourniol Limouches]]></name>
    <cmt><![CDATA[Seul]]></cmt>
    <trkseg>
      <trkpt lat="45.11573" lon="4.96426">
        <ele>206.67700195312</ele>
        <time>2009-10-04T11:50:55Z</time>
      </trkpt>
      <trkpt lat="45.1157" lon="4.96428">
        <ele>206.5</ele>
        <time>2009-10-04T11:51:05Z</time>
      </trkpt>
      <trkpt lat="45.1157" lon="4.96428">
        <ele>206.4640045166</ele>
        <time>2009-10-04T11:51:06Z</time>
      </trkpt>
      <trkpt lat="45.11571" lon="4.96452">
        <ele>205.56300354004</ele>
        <time>2009-10-04T11:51:17Z</time>
      </trkpt>
      <trkpt lat="45.11578" lon="4.96451">
        <ele>205.82699584961</ele>
        <time>2009-10-04T11:51:20Z</time>
      </trkpt>
      <trkpt lat="45.1158" lon="4.96449">
        <ele>205.97700500488</ele>
        <time>2009-10-04T11:51:23Z</time>
      </trkpt>
      <trkpt lat="45.1158" lon="4.9645">
        <ele>205.84100341797</ele>
        <time>2009-10-04T11:51:24Z</time>
      </trkpt>
      <trkpt lat="45.11582" lon="4.96454">
        <ele>206.74099731445</ele>
        <time>2009-10-04T11:51:27Z</time>
      </trkpt>
      <trkpt lat="45.11583" lon="4.96458">
        <ele>206.07299804688</ele>
        <time>2009-10-04T11:51:29Z</time>
      </trkpt>
      <trkpt lat="45.11583" lon="4.9648">
        <ele>205.10499572754</ele>
        <time>2009-10-04T11:51:34Z</time>
      </trkpt>
      <trkpt lat="45.11584" lon="4.96491">
        <ele>204.87699890137</ele>
        <time>2009-10-04T11:51:36Z</time>
      </trkpt>
      <trkpt lat="45.11586" lon="4.96518">
        <ele>204.34899902344</ele>
        <time>2009-10-04T11:51:40Z</time>
      </trkpt>
      <trkpt lat="45.1161" lon="4.96579">
        <ele>203.74699401856</ele>
        <time>2009-10-04T11:51:48Z</time>
      </trkpt>
      <trkpt lat="45.11622" lon="4.96612">
        <ele>203.74299621582</ele>
        <time>2009-10-04T11:51:52Z</time>
      </trkpt>
      <trkpt lat="45.11647" lon="4.96677">
        <ele>204.86099243164</ele>
        <time>2009-10-04T11:52:00Z</time>
      </trkpt>
      <trkpt lat="45.11671" lon="4.96731">
        <ele>205.57600402832</ele>
        <time>2009-10-04T11:52:07Z</time>
      </trkpt>
      <trkpt lat="45.1172" lon="4.96813">
        <ele>205.93600463867</ele>
        <time>2009-10-04T11:52:19Z</time>
      </trkpt>
      <trkpt lat="45.11728" lon="4.96827">
        <ele>206.36199951172</ele>
        <time>2009-10-04T11:52:21Z</time>
      </trkpt>
      <trkpt lat="45.11752" lon="4.96878">
        <ele>206.55900573731</ele>
        <time>2009-10-04T11:52:28Z</time>
      </trkpt>
      <trkpt lat="45.11822" lon="4.96976">
        <ele>206.9700012207</ele>
        <time>2009-10-04T11:52:43Z</time>
      </trkpt>
      <trkpt lat="45.11877" lon="4.97053">
        <ele>207.13299560547</ele>
        <time>2009-10-04T11:52:55Z</time>
      </trkpt>
      <trkpt lat="45.11884" lon="4.97087">
        <ele>206.37100219727</ele>
        <time>2009-10-04T11:52:59Z</time>
      </trkpt>
      <trkpt lat="45.11879" lon="4.97127">
        <ele>206.18400573731</ele>
        <time>2009-10-04T11:53:03Z</time>
      </trkpt>
      <trkpt lat="45.11892" lon="4.97243">
        <ele>205.36700439453</ele>
        <time>2009-10-04T11:53:14Z</time>
      </trkpt>
      <trkpt lat="45.11932" lon="4.97471">
        <ele>205.50799560547</ele>
        <time>2009-10-04T11:53:36Z</time>
      </trkpt>
      <trkpt lat="45.11951" lon="4.97579">
        <ele>206.59300231934</ele>
        <time>2009-10-04T11:53:49Z</time>
      </trkpt>
      <trkpt lat="45.11953" lon="4.97611">
        <ele>206.71600341797</ele>
        <time>2009-10-04T11:53:53Z</time>
      </trkpt>
      <trkpt lat="45.11974" lon="4.97717">
        <ele>207.24299621582</ele>
        <time>2009-10-04T11:54:05Z</time>
      </trkpt>
      <trkpt lat="45.12006" lon="4.979">
        <ele>208.07000732422</ele>
        <time>2009-10-04T11:54:25Z</time>
      </trkpt>
      <trkpt lat="45.12046" lon="4.98061">
        <ele>209.63299560547</ele>
        <time>2009-10-04T11:54:45Z</time>
      </trkpt>
      <trkpt lat="45.12071" lon="4.98221">
        <ele>210.60099792481</ele>
        <time>2009-10-04T11:55:04Z</time>
      </trkpt>
      <trkpt lat="45.12052" lon="4.98369">
        <ele>212.27000427246</ele>
        <time>2009-10-04T11:55:21Z</time>
      </trkpt>
      <trkpt lat="45.12047" lon="4.98385">
        <ele>212.59599304199</ele>
        <time>2009-10-04T11:55:23Z</time>
      </trkpt>
      <trkpt lat="45.1204" lon="4.98399">
        <ele>212.72700500488</ele>
        <time>2009-10-04T11:55:25Z</time>
      </trkpt>
      <trkpt lat="45.12032" lon="4.98431">
        <ele>212.71299743652</ele>
        <time>2009-10-04T11:55:29Z</time>
      </trkpt>
      <trkpt lat="45.12019" lon="4.98573">
        <ele>212.5359954834</ele>
        <time>2009-10-04T11:55:44Z</time>
      </trkpt>
      <trkpt lat="45.1204" lon="4.98744">
        <ele>212.53100585938</ele>
        <time>2009-10-04T11:56:01Z</time>
      </trkpt>
      <trkpt lat="45.12096" lon="4.98899">
        <ele>213.60899353027</ele>
        <time>2009-10-04T11:56:19Z</time>
      </trkpt>
      <trkpt lat="45.12169" lon="4.9901">
        <ele>216.79499816894</ele>
        <time>2009-10-04T11:56:36Z</time>
      </trkpt>
      <trkpt lat="45.12206" lon="4.99049">
        <ele>218.75300598144</ele>
        <time>2009-10-04T11:56:45Z</time>
      </trkpt>
      <trkpt lat="45.12215" lon="4.99108">
        <ele>218.57499694824</ele>
        <time>2009-10-04T11:56:53Z</time>
      </trkpt>
      <trkpt lat="45.12172" lon="4.99273">
        <ele>217.13800048828</ele>
        <time>2009-10-04T11:57:09Z</time>
      </trkpt>
      <trkpt lat="45.1211" lon="4.9947">
        <ele>217.47799682617</ele>
        <time>2009-10-04T11:57:28Z</time>
      </trkpt>
      <trkpt lat="45.12053" lon="4.99571">
        <ele>219.45899963379</ele>
        <time>2009-10-04T11:57:42Z</time>
      </trkpt>
      <trkpt lat="45.11978" lon="4.99704">
        <ele>218.8630065918</ele>
        <time>2009-10-04T11:57:59Z</time>
      </trkpt>
      <trkpt lat="45.11884" lon="4.99832">
        <ele>221.94900512695</ele>
        <time>2009-10-04T11:58:18Z</time>
      </trkpt>
      <trkpt lat="45.11835" lon="4.99862">
        <ele>224.32699584961</ele>
        <time>2009-10-04T11:58:27Z</time>
      </trkpt>
      <trkpt lat="45.1181" lon="4.99873">
        <ele>225.9940032959</ele>
        <time>2009-10-04T11:58:31Z</time>
      </trkpt>
      <trkpt lat="45.11791" lon="4.9988">
        <ele>227.64900207519</ele>
        <time>2009-10-04T11:58:34Z</time>
      </trkpt>
      <trkpt lat="45.11771" lon="4.99886">
        <ele>228.92300415039</ele>
        <time>2009-10-04T11:58:37Z</time>
      </trkpt>
      <trkpt lat="45.11738" lon="4.999">
        <ele>231.14700317383</ele>
        <time>2009-10-04T11:58:42Z</time>
      </trkpt>
      <trkpt lat="45.11706" lon="4.99914">
        <ele>233.39399719238</ele>
        <time>2009-10-04T11:58:47Z</time>
      </trkpt>
      <trkpt lat="45.11699" lon="4.99918">
        <ele>233.56399536133</ele>
        <time>2009-10-04T11:58:48Z</time>
      </trkpt>
      <trkpt lat="45.11692" lon="4.99922">
        <ele>234.15199279785</ele>
        <time>2009-10-04T11:58:49Z</time>
      </trkpt>
      <trkpt lat="45.11625" lon="4.99987">
        <ele>239.42799377441</ele>
        <time>2009-10-04T11:59:04Z</time>
      </trkpt>
      <trkpt lat="45.11548" lon="5.00085">
        <ele>241.35800170898</ele>
        <time>2009-10-04T11:59:24Z</time>
      </trkpt>
      <trkpt lat="45.11467" lon="5.00164">
        <ele>241.54100036621</ele>
        <time>2009-10-04T11:59:40Z</time>
      </trkpt>
      <trkpt lat="45.11395" lon="5.0023">
        <ele>241.81199645996</ele>
        <time>2009-10-04T11:59:53Z</time>
      </trkpt>
      <trkpt lat="45.1134" lon="5.0028">
        <ele>242.5059967041</ele>
        <time>2009-10-04T12:00:03Z</time>
      </trkpt>
      <trkpt lat="45.1128" lon="5.00324">
        <ele>243.58799743652</ele>
        <time>2009-10-04T12:00:14Z</time>
      </trkpt>
      <trkpt lat="45.11183" lon="5.00374">
        <ele>247.73399353027</ele>
        <time>2009-10-04T12:00:32Z</time>
      </trkpt>
      <trkpt lat="45.11088" lon="5.00427">
        <ele>253.4880065918</ele>
        <time>2009-10-04T12:00:52Z</time>
      </trkpt>
      <trkpt lat="45.11037" lon="5.00457">
        <ele>256.50399780273</ele>
        <time>2009-10-04T12:01:06Z</time>
      </trkpt>
      <trkpt lat="45.11037" lon="5.00457">
        <ele>256.24600219727</ele>
        <time>2009-10-04T12:01:07Z</time>
      </trkpt>
      <trkpt lat="45.11032" lon="5.00462">
        <ele>256.35699462891</ele>
        <time>2009-10-04T12:01:30Z</time>
      </trkpt>
      <trkpt lat="45.11031" lon="5.00463">
        <ele>256.31600952148</ele>
        <time>2009-10-04T12:01:31Z</time>
      </trkpt>
      <trkpt lat="45.10995" lon="5.0049">
        <ele>257.8039855957</ele>
        <time>2009-10-04T12:01:41Z</time>
      </trkpt>
      <trkpt lat="45.10973" lon="5.00508">
        <ele>259.58599853516</ele>
        <time>2009-10-04T12:01:46Z</time>
      </trkpt>
      <trkpt lat="45.10922" lon="5.00543">
        <ele>260.24099731445</ele>
        <time>2009-10-04T12:01:56Z</time>
      </trkpt>
      <trkpt lat="45.10831" lon="5.00571">
        <ele>256.34298706055</ele>
        <time>2009-10-04T12:02:08Z</time>
      </trkpt>
      <trkpt lat="45.10696" lon="5.00593">
        <ele>247.65800476074</ele>
        <time>2009-10-04T12:02:20Z</time>
      </trkpt>
      <trkpt lat="45.10624" lon="5.00627">
        <ele>243.875</ele>
        <time>2009-10-04T12:02:26Z</time>
      </trkpt>
      <trkpt lat="45.1059" lon="5.00654">
        <ele>242.40899658203</ele>
        <time>2009-10-04T12:02:29Z</time>
      </trkpt>
      <trkpt lat="45.10509" lon="5.00719">
        <ele>237.15899658203</ele>
        <time>2009-10-04T12:02:36Z</time>
      </trkpt>
      <trkpt lat="45.10357" lon="5.0084">
        <ele>236.54200744629</ele>
        <time>2009-10-04T12:02:51Z</time>
      </trkpt>
      <trkpt lat="45.10229" lon="5.00948">
        <ele>239.33099365234</ele>
        <time>2009-10-04T12:03:08Z</time>
      </trkpt>
      <trkpt lat="45.10173" lon="5.01026">
        <ele>240.43600463867</ele>
        <time>2009-10-04T12:03:18Z</time>
      </trkpt>
      <trkpt lat="45.10113" lon="5.01123">
        <ele>242.67500305176</ele>
        <time>2009-10-04T12:03:30Z</time>
      </trkpt>
      <trkpt lat="45.10079" lon="5.01248">
        <ele>243.13299560547</ele>
        <time>2009-10-04T12:03:42Z</time>
      </trkpt>
      <trkpt lat="45.10058" lon="5.0152">
        <ele>240.85699462891</ele>
        <time>2009-10-04T12:04:05Z</time>
      </trkpt>
      <trkpt lat="45.10022" lon="5.01734">
        <ele>241.16600036621</ele>
        <time>2009-10-04T12:04:24Z</time>
      </trkpt>
      <trkpt lat="45.09972" lon="5.01876">
        <ele>244.79899597168</ele>
        <time>2009-10-04T12:04:40Z</time>
      </trkpt>
      <trkpt lat="45.09926" lon="5.0201">
        <ele>248.15299987793</ele>
        <time>2009-10-04T12:04:57Z</time>
      </trkpt>
      <trkpt lat="45.09899" lon="5.02086">
        <ele>250.87300109863</ele>
        <time>2009-10-04T12:05:07Z</time>
      </trkpt>
      <trkpt lat="45.0988" lon="5.02139">
        <ele>253.55700683594</ele>
        <time>2009-10-04T12:05:15Z</time>
      </trkpt>
      <trkpt lat="45.09869" lon="5.02171">
        <ele>255.0059967041</ele>
        <time>2009-10-04T12:05:20Z</time>
      </trkpt>
      <trkpt lat="45.09851" lon="5.02225">
        <ele>257.78100585938</ele>
        <time>2009-10-04T12:05:29Z</time>
      </trkpt>
      <trkpt lat="45.09846" lon="5.0225">
        <ele>258.78100585938</ele>
        <time>2009-10-04T12:05:33Z</time>
      </trkpt>
      <trkpt lat="45.09845" lon="5.02299">
        <ele>261.04901123047</ele>
        <time>2009-10-04T12:05:41Z</time>
      </trkpt>
      <trkpt lat="45.09853" lon="5.02329">
        <ele>262.52499389648</ele>
        <time>2009-10-04T12:05:46Z</time>
      </trkpt>
      <trkpt lat="45.0986" lon="5.02354">
        <ele>263.43798828125</ele>
        <time>2009-10-04T12:05:50Z</time>
      </trkpt>
      <trkpt lat="45.09875" lon="5.02389">
        <ele>263.95401000977</ele>
        <time>2009-10-04T12:05:55Z</time>
      </trkpt>
      <trkpt lat="45.09915" lon="5.02471">
        <ele>261.23699951172</ele>
        <time>2009-10-04T12:06:05Z</time>
      </trkpt>
      <trkpt lat="45.09928" lon="5.02505">
        <ele>259.87100219727</ele>
        <time>2009-10-04T12:06:08Z</time>
      </trkpt>
      <trkpt lat="45.09971" lon="5.02568">
        <ele>255.67199707031</ele>
        <time>2009-10-04T12:06:14Z</time>
      </trkpt>
      <trkpt lat="45.09989" lon="5.02608">
        <ele>253.95700073242</ele>
        <time>2009-10-04T12:06:17Z</time>
      </trkpt>
      <trkpt lat="45.09998" lon="5.02639">
        <ele>252.67599487305</ele>
        <time>2009-10-04T12:06:19Z</time>
      </trkpt>
      <trkpt lat="45.10055" lon="5.02728">
        <ele>246.89300537109</ele>
        <time>2009-10-04T12:06:26Z</time>
      </trkpt>
      <trkpt lat="45.10066" lon="5.02799">
        <ele>242.62100219727</ele>
        <time>2009-10-04T12:06:30Z</time>
      </trkpt>
      <trkpt lat="45.10019" lon="5.02839">
        <ele>237.35699462891</ele>
        <time>2009-10-04T12:06:34Z</time>
      </trkpt>
      <trkpt lat="45.09985" lon="5.02843">
        <ele>236.14900207519</ele>
        <time>2009-10-04T12:06:36Z</time>
      </trkpt>
      <trkpt lat="45.09924" lon="5.02832">
        <ele>232.93200683594</ele>
        <time>2009-10-04T12:06:43Z</time>
      </trkpt>
      <trkpt lat="45.09942" lon="5.02838">
        <ele>233.88000488281</ele>
        <time>2009-10-04T12:06:51Z</time>
      </trkpt>
      <trkpt lat="45.09971" lon="5.0284">
        <ele>235.19999694824</ele>
        <time>2009-10-04T12:06:57Z</time>
      </trkpt>
      <trkpt lat="45.09993" lon="5.02841">
        <ele>236.26400756836</ele>
        <time>2009-10-04T12:07:01Z</time>
      </trkpt>
      <trkpt lat="45.10009" lon="5.02842">
        <ele>237.79100036621</ele>
        <time>2009-10-04T12:07:04Z</time>
      </trkpt>
      <trkpt lat="45.1002" lon="5.02843">
        <ele>238.39500427246</ele>
        <time>2009-10-04T12:07:06Z</time>
      </trkpt>
      <trkpt lat="45.10045" lon="5.02879">
        <ele>238.59300231934</ele>
        <time>2009-10-04T12:07:13Z</time>
      </trkpt>
      <trkpt lat="45.10035" lon="5.02921">
        <ele>236.7799987793</ele>
        <time>2009-10-04T12:07:17Z</time>
      </trkpt>
      <trkpt lat="45.09997" lon="5.03052">
        <ele>231.64799499512</ele>
        <time>2009-10-04T12:07:27Z</time>
      </trkpt>
      <trkpt lat="45.09936" lon="5.03266">
        <ele>225.50500488281</ele>
        <time>2009-10-04T12:07:42Z</time>
      </trkpt>
      <trkpt lat="45.09907" lon="5.03372">
        <ele>221.7799987793</ele>
        <time>2009-10-04T12:07:49Z</time>
      </trkpt>
      <trkpt lat="45.09893" lon="5.03418">
        <ele>220.40400695801</ele>
        <time>2009-10-04T12:07:52Z</time>
      </trkpt>
      <trkpt lat="45.09887" lon="5.03432">
        <ele>220.21800231934</ele>
        <time>2009-10-04T12:07:53Z</time>
      </trkpt>
      <trkpt lat="45.09803" lon="5.03564">
        <ele>222.06500244141</ele>
        <time>2009-10-04T12:08:06Z</time>
      </trkpt>
      <trkpt lat="45.09798" lon="5.03574">
        <ele>222.3450012207</ele>
        <time>2009-10-04T12:08:07Z</time>
      </trkpt>
      <trkpt lat="45.09786" lon="5.03659">
        <ele>223.03199768066</ele>
        <time>2009-10-04T12:08:15Z</time>
      </trkpt>
      <trkpt lat="45.09829" lon="5.03848">
        <ele>219.22900390625</ele>
        <time>2009-10-04T12:08:30Z</time>
      </trkpt>
      <trkpt lat="45.09882" lon="5.03986">
        <ele>218.8690032959</ele>
        <time>2009-10-04T12:08:42Z</time>
      </trkpt>
      <trkpt lat="45.09883" lon="5.04048">
        <ele>218.73599243164</ele>
        <time>2009-10-04T12:08:47Z</time>
      </trkpt>
      <trkpt lat="45.09865" lon="5.04121">
        <ele>218.4880065918</ele>
        <time>2009-10-04T12:08:53Z</time>
      </trkpt>
      <trkpt lat="45.09845" lon="5.04161">
        <ele>218.77099609375</ele>
        <time>2009-10-04T12:08:57Z</time>
      </trkpt>
      <trkpt lat="45.09709" lon="5.04297">
        <ele>220.62899780273</ele>
        <time>2009-10-04T12:09:17Z</time>
      </trkpt>
      <trkpt lat="45.09644" lon="5.04399">
        <ele>222.16600036621</ele>
        <time>2009-10-04T12:09:30Z</time>
      </trkpt>
      <trkpt lat="45.09615" lon="5.04511">
        <ele>219.53500366211</ele>
        <time>2009-10-04T12:09:40Z</time>
      </trkpt>
      <trkpt lat="45.09586" lon="5.04585">
        <ele>217.0299987793</ele>
        <time>2009-10-04T12:09:47Z</time>
      </trkpt>
      <trkpt lat="45.09553" lon="5.04612">
        <ele>216.48100280762</ele>
        <time>2009-10-04T12:09:51Z</time>
      </trkpt>
      <trkpt lat="45.09426" lon="5.04669">
        <ele>213.67300415039</ele>
        <time>2009-10-04T12:10:04Z</time>
      </trkpt>
      <trkpt lat="45.09389" lon="5.04689">
        <ele>212.38900756836</ele>
        <time>2009-10-04T12:10:08Z</time>
      </trkpt>
      <trkpt lat="45.09317" lon="5.04742">
        <ele>210.35499572754</ele>
        <time>2009-10-04T12:10:16Z</time>
      </trkpt>
      <trkpt lat="45.09294" lon="5.04771">
        <ele>209.85600280762</ele>
        <time>2009-10-04T12:10:19Z</time>
      </trkpt>
      <trkpt lat="45.09214" lon="5.04803">
        <ele>208.14599609375</ele>
        <time>2009-10-04T12:10:27Z</time>
      </trkpt>
      <trkpt lat="45.09172" lon="5.04775">
        <ele>207.44099426269</ele>
        <time>2009-10-04T12:10:32Z</time>
      </trkpt>
      <trkpt lat="45.09169" lon="5.04763">
        <ele>207.80900573731</ele>
        <time>2009-10-04T12:10:33Z</time>
      </trkpt>
      <trkpt lat="45.09156" lon="5.04731">
        <ele>209.23199462891</ele>
        <time>2009-10-04T12:10:36Z</time>
      </trkpt>
      <trkpt lat="45.09141" lon="5.04725">
        <ele>209.18800354004</ele>
        <time>2009-10-04T12:10:38Z</time>
      </trkpt>
      <trkpt lat="45.09075" lon="5.04719">
        <ele>206.85800170898</ele>
        <time>2009-10-04T12:10:45Z</time>
      </trkpt>
      <trkpt lat="45.09034" lon="5.04717">
        <ele>205.4880065918</ele>
        <time>2009-10-04T12:10:49Z</time>
      </trkpt>
      <trkpt lat="45.09001" lon="5.04719">
        <ele>204.47700500488</ele>
        <time>2009-10-04T12:10:52Z</time>
      </trkpt>
      <trkpt lat="45.08814" lon="5.04742">
        <ele>204.03300476074</ele>
        <time>2009-10-04T12:11:11Z</time>
      </trkpt>
      <trkpt lat="45.08613" lon="5.04768">
        <ele>200.56900024414</ele>
        <time>2009-10-04T12:11:32Z</time>
      </trkpt>
      <trkpt lat="45.0849" lon="5.04783">
        <ele>198.72099304199</ele>
        <time>2009-10-04T12:11:44Z</time>
      </trkpt>
      <trkpt lat="45.0847" lon="5.04782">
        <ele>198.49699401856</ele>
        <time>2009-10-04T12:11:46Z</time>
      </trkpt>
      <trkpt lat="45.08323" lon="5.04803">
        <ele>198.14799499512</ele>
        <time>2009-10-04T12:12:01Z</time>
      </trkpt>
      <trkpt lat="45.08142" lon="5.04825">
        <ele>199.64900207519</ele>
        <time>2009-10-04T12:12:21Z</time>
      </trkpt>
      <trkpt lat="45.07941" lon="5.04849">
        <ele>200.96899414062</ele>
        <time>2009-10-04T12:12:45Z</time>
      </trkpt>
      <trkpt lat="45.07725" lon="5.04875">
        <ele>198.86399841309</ele>
        <time>2009-10-04T12:13:08Z</time>
      </trkpt>
      <trkpt lat="45.07515" lon="5.04899">
        <ele>198.67100524902</ele>
        <time>2009-10-04T12:13:30Z</time>
      </trkpt>
      <trkpt lat="45.07389" lon="5.04943">
        <ele>197.86199951172</ele>
        <time>2009-10-04T12:13:43Z</time>
      </trkpt>
      <trkpt lat="45.07298" lon="5.05016">
        <ele>195.2859954834</ele>
        <time>2009-10-04T12:13:53Z</time>
      </trkpt>
      <trkpt lat="45.07188" lon="5.05054">
        <ele>190.90699768066</ele>
        <time>2009-10-04T12:14:03Z</time>
      </trkpt>
      <trkpt lat="45.07055" lon="5.05094">
        <ele>183.60299682617</ele>
        <time>2009-10-04T12:14:14Z</time>
      </trkpt>
      <trkpt lat="45.07011" lon="5.05097">
        <ele>181.04100036621</ele>
        <time>2009-10-04T12:14:18Z</time>
      </trkpt>
      <trkpt lat="45.0699" lon="5.05109">
        <ele>180.39700317383</ele>
        <time>2009-10-04T12:14:20Z</time>
      </trkpt>
      <trkpt lat="45.06816" lon="5.05161">
        <ele>177.12399291992</ele>
        <time>2009-10-04T12:14:35Z</time>
      </trkpt>
      <trkpt lat="45.06657" lon="5.05206">
        <ele>177.10400390625</ele>
        <time>2009-10-04T12:14:51Z</time>
      </trkpt>
      <trkpt lat="45.06496" lon="5.05248">
        <ele>176.93400573731</ele>
        <time>2009-10-04T12:15:08Z</time>
      </trkpt>
      <trkpt lat="45.06376" lon="5.0523">
        <ele>177.7380065918</ele>
        <time>2009-10-04T12:15:21Z</time>
      </trkpt>
      <trkpt lat="45.06243" lon="5.05163">
        <ele>176.63900756836</ele>
        <time>2009-10-04T12:15:36Z</time>
      </trkpt>
      <trkpt lat="45.06126" lon="5.05104">
        <ele>175.34800720215</ele>
        <time>2009-10-04T12:15:49Z</time>
      </trkpt>
      <trkpt lat="45.06079" lon="5.05097">
        <ele>175.09599304199</ele>
        <time>2009-10-04T12:15:55Z</time>
      </trkpt>
      <trkpt lat="45.06087" lon="5.05157">
        <ele>174.64700317383</ele>
        <time>2009-10-04T12:16:00Z</time>
      </trkpt>
      <trkpt lat="45.06082" lon="5.05196">
        <ele>174.56100463867</ele>
        <time>2009-10-04T12:16:03Z</time>
      </trkpt>
      <trkpt lat="45.06003" lon="5.05572">
        <ele>175.34700012207</ele>
        <time>2009-10-04T12:16:33Z</time>
      </trkpt>
      <trkpt lat="45.05943" lon="5.0584">
        <ele>175.66499328613</ele>
        <time>2009-10-04T12:16:55Z</time>
      </trkpt>
      <trkpt lat="45.05852" lon="5.06115">
        <ele>175.97099304199</ele>
        <time>2009-10-04T12:17:19Z</time>
      </trkpt>
      <trkpt lat="45.05764" lon="5.06378">
        <ele>176.78999328613</ele>
        <time>2009-10-04T12:17:43Z</time>
      </trkpt>
      <trkpt lat="45.0574" lon="5.0644">
        <ele>177.02600097656</ele>
        <time>2009-10-04T12:17:49Z</time>
      </trkpt>
      <trkpt lat="45.05732" lon="5.06485">
        <ele>176.86999511719</ele>
        <time>2009-10-04T12:17:53Z</time>
      </trkpt>
      <trkpt lat="45.05698" lon="5.06609">
        <ele>176.14599609375</ele>
        <time>2009-10-04T12:18:03Z</time>
      </trkpt>
      <trkpt lat="45.05653" lon="5.06848">
        <ele>175.59399414062</ele>
        <time>2009-10-04T12:18:21Z</time>
      </trkpt>
      <trkpt lat="45.05613" lon="5.07068">
        <ele>177.23500061035</ele>
        <time>2009-10-04T12:18:39Z</time>
      </trkpt>
      <trkpt lat="45.05596" lon="5.07108">
        <ele>177.26400756836</ele>
        <time>2009-10-04T12:18:43Z</time>
      </trkpt>
      <trkpt lat="45.05571" lon="5.0713">
        <ele>178.0059967041</ele>
        <time>2009-10-04T12:18:47Z</time>
      </trkpt>
      <trkpt lat="45.05553" lon="5.07188">
        <ele>177.52200317383</ele>
        <time>2009-10-04T12:18:53Z</time>
      </trkpt>
      <trkpt lat="45.05545" lon="5.07211">
        <ele>177.49299621582</ele>
        <time>2009-10-04T12:18:55Z</time>
      </trkpt>
      <trkpt lat="45.05418" lon="5.07468">
        <ele>178.88499450684</ele>
        <time>2009-10-04T12:19:20Z</time>
      </trkpt>
      <trkpt lat="45.05308" lon="5.07652">
        <ele>179.62899780273</ele>
        <time>2009-10-04T12:19:40Z</time>
      </trkpt>
      <trkpt lat="45.05283" lon="5.07685">
        <ele>179.68800354004</ele>
        <time>2009-10-04T12:19:44Z</time>
      </trkpt>
      <trkpt lat="45.05233" lon="5.07704">
        <ele>178.02099609375</ele>
        <time>2009-10-04T12:19:50Z</time>
      </trkpt>
      <trkpt lat="45.05228" lon="5.07714">
        <ele>177.84800720215</ele>
        <time>2009-10-04T12:19:51Z</time>
      </trkpt>
      <trkpt lat="45.05147" lon="5.07789">
        <ele>172.8450012207</ele>
        <time>2009-10-04T12:20:01Z</time>
      </trkpt>
      <trkpt lat="45.0506" lon="5.07848">
        <ele>176.05000305176</ele>
        <time>2009-10-04T12:20:11Z</time>
      </trkpt>
      <trkpt lat="45.05053" lon="5.07854">
        <ele>176.47099304199</ele>
        <time>2009-10-04T12:20:12Z</time>
      </trkpt>
      <trkpt lat="45.05021" lon="5.07879">
        <ele>177.10800170898</ele>
        <time>2009-10-04T12:20:17Z</time>
      </trkpt>
      <trkpt lat="45.04975" lon="5.0792">
        <ele>177.88200378418</ele>
        <time>2009-10-04T12:20:24Z</time>
      </trkpt>
      <trkpt lat="45.04927" lon="5.07947">
        <ele>177.41700744629</ele>
        <time>2009-10-04T12:20:30Z</time>
      </trkpt>
      <trkpt lat="45.0487" lon="5.07993">
        <ele>177.61700439453</ele>
        <time>2009-10-04T12:20:37Z</time>
      </trkpt>
      <trkpt lat="45.04855" lon="5.08005">
        <ele>177.89100646973</ele>
        <time>2009-10-04T12:20:39Z</time>
      </trkpt>
      <trkpt lat="45.04841" lon="5.08016">
        <ele>177.84100341797</ele>
        <time>2009-10-04T12:20:41Z</time>
      </trkpt>
      <trkpt lat="45.04806" lon="5.08036">
        <ele>178.28199768066</ele>
        <time>2009-10-04T12:20:46Z</time>
      </trkpt>
      <trkpt lat="45.0479" lon="5.08052">
        <ele>178.35800170898</ele>
        <time>2009-10-04T12:20:50Z</time>
      </trkpt>
      <trkpt lat="45.04729" lon="5.08097">
        <ele>177.98500061035</ele>
        <time>2009-10-04T12:20:59Z</time>
      </trkpt>
      <trkpt lat="45.047" lon="5.08119">
        <ele>178.63200378418</ele>
        <time>2009-10-04T12:21:03Z</time>
      </trkpt>
      <trkpt lat="45.04689" lon="5.08149">
        <ele>177.77200317383</ele>
        <time>2009-10-04T12:21:07Z</time>
      </trkpt>
      <trkpt lat="45.04715" lon="5.08285">
        <ele>177.92799377441</ele>
        <time>2009-10-04T12:21:20Z</time>
      </trkpt>
      <trkpt lat="45.04727" lon="5.08345">
        <ele>177.95199584961</ele>
        <time>2009-10-04T12:21:26Z</time>
      </trkpt>
      <trkpt lat="45.04729" lon="5.08361">
        <ele>177.82099914551</ele>
        <time>2009-10-04T12:21:28Z</time>
      </trkpt>
      <trkpt lat="45.04716" lon="5.08388">
        <ele>177.16299438477</ele>
        <time>2009-10-04T12:21:33Z</time>
      </trkpt>
      <trkpt lat="45.04594" lon="5.08429">
        <ele>176.2380065918</ele>
        <time>2009-10-04T12:21:48Z</time>
      </trkpt>
      <trkpt lat="45.0445" lon="5.08456">
        <ele>175.30499267578</ele>
        <time>2009-10-04T12:22:04Z</time>
      </trkpt>
      <trkpt lat="45.0438" lon="5.08422">
        <ele>175.72099304199</ele>
        <time>2009-10-04T12:22:12Z</time>
      </trkpt>
      <trkpt lat="45.04362" lon="5.0839">
        <ele>175.79600524902</ele>
        <time>2009-10-04T12:22:16Z</time>
      </trkpt>
      <trkpt lat="45.04319" lon="5.08368">
        <ele>175.28300476074</ele>
        <time>2009-10-04T12:22:22Z</time>
      </trkpt>
      <trkpt lat="45.04303" lon="5.08421">
        <ele>175.11500549316</ele>
        <time>2009-10-04T12:22:27Z</time>
      </trkpt>
      <trkpt lat="45.04291" lon="5.08477">
        <ele>174.03199768066</ele>
        <time>2009-10-04T12:22:32Z</time>
      </trkpt>
      <trkpt lat="45.04252" lon="5.08531">
        <ele>170.02099609375</ele>
        <time>2009-10-04T12:22:37Z</time>
      </trkpt>
      <trkpt lat="45.04233" lon="5.08574">
        <ele>167.81100463867</ele>
        <time>2009-10-04T12:22:40Z</time>
      </trkpt>
      <trkpt lat="45.04202" lon="5.08621">
        <ele>164.4940032959</ele>
        <time>2009-10-04T12:22:44Z</time>
      </trkpt>
      <trkpt lat="45.04131" lon="5.08647">
        <ele>162.49499511719</ele>
        <time>2009-10-04T12:22:50Z</time>
      </trkpt>
      <trkpt lat="45.0401" lon="5.08679">
        <ele>162.2380065918</ele>
        <time>2009-10-04T12:23:02Z</time>
      </trkpt>
      <trkpt lat="45.03899" lon="5.08705">
        <ele>165.22300720215</ele>
        <time>2009-10-04T12:23:15Z</time>
      </trkpt>
      <trkpt lat="45.03893" lon="5.08704">
        <ele>165.70399475098</ele>
        <time>2009-10-04T12:23:16Z</time>
      </trkpt>
      <trkpt lat="45.03835" lon="5.0869">
        <ele>168.98699951172</ele>
        <time>2009-10-04T12:23:26Z</time>
      </trkpt>
      <trkpt lat="45.03772" lon="5.08676">
        <ele>171.5059967041</ele>
        <time>2009-10-04T12:23:37Z</time>
      </trkpt>
      <trkpt lat="45.03733" lon="5.08665">
        <ele>172.82000732422</ele>
        <time>2009-10-04T12:23:44Z</time>
      </trkpt>
      <trkpt lat="45.03633" lon="5.08642">
        <ele>175.47500610352</ele>
        <time>2009-10-04T12:24:01Z</time>
      </trkpt>
      <trkpt lat="45.03585" lon="5.08622">
        <ele>176.55299377441</ele>
        <time>2009-10-04T12:24:09Z</time>
      </trkpt>
      <trkpt lat="45.03568" lon="5.08577">
        <ele>177.11099243164</ele>
        <time>2009-10-04T12:24:15Z</time>
      </trkpt>
      <trkpt lat="45.03583" lon="5.08369">
        <ele>176.17300415039</ele>
        <time>2009-10-04T12:24:34Z</time>
      </trkpt>
      <trkpt lat="45.03587" lon="5.08301">
        <ele>175.99600219727</ele>
        <time>2009-10-04T12:24:40Z</time>
      </trkpt>
      <trkpt lat="45.03613" lon="5.08233">
        <ele>175.70100402832</ele>
        <time>2009-10-04T12:24:47Z</time>
      </trkpt>
      <trkpt lat="45.03592" lon="5.08192">
        <ele>175.77299499512</ele>
        <time>2009-10-04T12:24:52Z</time>
      </trkpt>
      <trkpt lat="45.03556" lon="5.0817">
        <ele>175.43899536133</ele>
        <time>2009-10-04T12:24:57Z</time>
      </trkpt>
      <trkpt lat="45.03478" lon="5.07987">
        <ele>173.39999389648</ele>
        <time>2009-10-04T12:25:14Z</time>
      </trkpt>
      <trkpt lat="45.03445" lon="5.07869">
        <ele>172.75799560547</ele>
        <time>2009-10-04T12:25:24Z</time>
      </trkpt>
      <trkpt lat="45.03457" lon="5.0779">
        <ele>171.77900695801</ele>
        <time>2009-10-04T12:25:31Z</time>
      </trkpt>
      <trkpt lat="45.03527" lon="5.0763">
        <ele>173.11199951172</ele>
        <time>2009-10-04T12:25:48Z</time>
      </trkpt>
      <trkpt lat="45.03521" lon="5.07591">
        <ele>172.82099914551</ele>
        <time>2009-10-04T12:25:54Z</time>
      </trkpt>
      <trkpt lat="45.03508" lon="5.07593">
        <ele>172.75300598144</ele>
        <time>2009-10-04T12:25:56Z</time>
      </trkpt>
      <trkpt lat="45.03392" lon="5.07575">
        <ele>173.33799743652</ele>
        <time>2009-10-04T12:26:12Z</time>
      </trkpt>
      <trkpt lat="45.03255" lon="5.07571">
        <ele>175.02799987793</ele>
        <time>2009-10-04T12:26:30Z</time>
      </trkpt>
      <trkpt lat="45.03238" lon="5.07572">
        <ele>174.95399475098</ele>
        <time>2009-10-04T12:26:32Z</time>
      </trkpt>
      <trkpt lat="45.03199" lon="5.07588">
        <ele>174.88999938965</ele>
        <time>2009-10-04T12:26:37Z</time>
      </trkpt>
      <trkpt lat="45.03174" lon="5.07587">
        <ele>175.45500183106</ele>
        <time>2009-10-04T12:26:40Z</time>
      </trkpt>
      <trkpt lat="45.0314" lon="5.07582">
        <ele>175.27000427246</ele>
        <time>2009-10-04T12:26:44Z</time>
      </trkpt>
      <trkpt lat="45.03089" lon="5.07577">
        <ele>175.86599731445</ele>
        <time>2009-10-04T12:26:50Z</time>
      </trkpt>
      <trkpt lat="45.02952" lon="5.07603">
        <ele>177.58200073242</ele>
        <time>2009-10-04T12:27:07Z</time>
      </trkpt>
      <trkpt lat="45.02807" lon="5.07593">
        <ele>179.80400085449</ele>
        <time>2009-10-04T12:27:26Z</time>
      </trkpt>
      <trkpt lat="45.02702" lon="5.07539">
        <ele>181.27299499512</ele>
        <time>2009-10-04T12:27:41Z</time>
      </trkpt>
      <trkpt lat="45.02676" lon="5.07483">
        <ele>181.61599731445</ele>
        <time>2009-10-04T12:27:48Z</time>
      </trkpt>
      <trkpt lat="45.02677" lon="5.07446">
        <ele>181.80000305176</ele>
        <time>2009-10-04T12:27:52Z</time>
      </trkpt>
      <trkpt lat="45.02659" lon="5.07425">
        <ele>181.99499511719</ele>
        <time>2009-10-04T12:27:59Z</time>
      </trkpt>
      <trkpt lat="45.02651" lon="5.07432">
        <ele>182.13800048828</ele>
        <time>2009-10-04T12:28:01Z</time>
      </trkpt>
      <trkpt lat="45.02609" lon="5.07467">
        <ele>184.10099792481</ele>
        <time>2009-10-04T12:28:10Z</time>
      </trkpt>
      <trkpt lat="45.02574" lon="5.07486">
        <ele>185.61500549316</ele>
        <time>2009-10-04T12:28:17Z</time>
      </trkpt>
      <trkpt lat="45.02498" lon="5.07514">
        <ele>187.71099853516</ele>
        <time>2009-10-04T12:28:32Z</time>
      </trkpt>
      <trkpt lat="45.02405" lon="5.07576">
        <ele>190.96299743652</ele>
        <time>2009-10-04T12:28:50Z</time>
      </trkpt>
      <trkpt lat="45.02322" lon="5.07637">
        <ele>191.19400024414</ele>
        <time>2009-10-04T12:29:05Z</time>
      </trkpt>
      <trkpt lat="45.02166" lon="5.07656">
        <ele>198.33599853516</ele>
        <time>2009-10-04T12:29:30Z</time>
      </trkpt>
      <trkpt lat="45.02087" lon="5.07675">
        <ele>199.82000732422</ele>
        <time>2009-10-04T12:29:44Z</time>
      </trkpt>
      <trkpt lat="45.01969" lon="5.07741">
        <ele>200.54899597168</ele>
        <time>2009-10-04T12:30:03Z</time>
      </trkpt>
      <trkpt lat="45.01852" lon="5.07847">
        <ele>201.55700683594</ele>
        <time>2009-10-04T12:30:22Z</time>
      </trkpt>
      <trkpt lat="45.01769" lon="5.07966">
        <ele>201.86500549316</ele>
        <time>2009-10-04T12:30:37Z</time>
      </trkpt>
      <trkpt lat="45.01651" lon="5.08102">
        <ele>203.03799438477</ele>
        <time>2009-10-04T12:30:57Z</time>
      </trkpt>
      <trkpt lat="45.01529" lon="5.08217">
        <ele>204.58099365234</ele>
        <time>2009-10-04T12:31:16Z</time>
      </trkpt>
      <trkpt lat="45.01431" lon="5.08336">
        <ele>206.54600524902</ele>
        <time>2009-10-04T12:31:33Z</time>
      </trkpt>
      <trkpt lat="45.01404" lon="5.08372">
        <ele>206.89700317383</ele>
        <time>2009-10-04T12:31:38Z</time>
      </trkpt>
      <trkpt lat="45.01372" lon="5.08399">
        <ele>206.80299377441</ele>
        <time>2009-10-04T12:31:43Z</time>
      </trkpt>
      <trkpt lat="45.01338" lon="5.08414">
        <ele>207.85400390625</ele>
        <time>2009-10-04T12:31:48Z</time>
      </trkpt>
      <trkpt lat="45.01297" lon="5.08456">
        <ele>207.92100524902</ele>
        <time>2009-10-04T12:31:55Z</time>
      </trkpt>
      <trkpt lat="45.01214" lon="5.08588">
        <ele>208.39599609375</ele>
        <time>2009-10-04T12:32:12Z</time>
      </trkpt>
      <trkpt lat="45.0118" lon="5.08635">
        <ele>208.9049987793</ele>
        <time>2009-10-04T12:32:19Z</time>
      </trkpt>
      <trkpt lat="45.01149" lon="5.08631">
        <ele>210.72300720215</ele>
        <time>2009-10-04T12:32:26Z</time>
      </trkpt>
      <trkpt lat="45.01114" lon="5.08623">
        <ele>211.48599243164</ele>
        <time>2009-10-04T12:32:36Z</time>
      </trkpt>
      <trkpt lat="45.01101" lon="5.08628">
        <ele>211.99499511719</ele>
        <time>2009-10-04T12:32:39Z</time>
      </trkpt>
      <trkpt lat="45.01032" lon="5.08683">
        <ele>216.13299560547</ele>
        <time>2009-10-04T12:32:51Z</time>
      </trkpt>
      <trkpt lat="45.0102" lon="5.08689">
        <ele>216.80000305176</ele>
        <time>2009-10-04T12:32:53Z</time>
      </trkpt>
      <trkpt lat="45.00974" lon="5.08724">
        <ele>217.74200439453</ele>
        <time>2009-10-04T12:33:00Z</time>
      </trkpt>
      <trkpt lat="45.00961" lon="5.08734">
        <ele>217.54699707031</ele>
        <time>2009-10-04T12:33:02Z</time>
      </trkpt>
      <trkpt lat="45.00928" lon="5.08745">
        <ele>217.08799743652</ele>
        <time>2009-10-04T12:33:06Z</time>
      </trkpt>
      <trkpt lat="45.00755" lon="5.08769">
        <ele>216.77600097656</ele>
        <time>2009-10-04T12:33:26Z</time>
      </trkpt>
      <trkpt lat="45.00698" lon="5.08773">
        <ele>216.36599731445</ele>
        <time>2009-10-04T12:33:33Z</time>
      </trkpt>
      <trkpt lat="45.00659" lon="5.08766">
        <ele>216.4109954834</ele>
        <time>2009-10-04T12:33:38Z</time>
      </trkpt>
      <trkpt lat="45.00646" lon="5.08767">
        <ele>216.5890045166</ele>
        <time>2009-10-04T12:33:40Z</time>
      </trkpt>
      <trkpt lat="45.00636" lon="5.08767">
        <ele>216.83500671387</ele>
        <time>2009-10-04T12:33:42Z</time>
      </trkpt>
      <trkpt lat="45.00577" lon="5.08737">
        <ele>217.17500305176</ele>
        <time>2009-10-04T12:33:52Z</time>
      </trkpt>
      <trkpt lat="45.00549" lon="5.08717">
        <ele>217.19200134277</ele>
        <time>2009-10-04T12:33:56Z</time>
      </trkpt>
      <trkpt lat="45.0052" lon="5.08697">
        <ele>217.40800476074</ele>
        <time>2009-10-04T12:34:00Z</time>
      </trkpt>
      <trkpt lat="45.00444" lon="5.08605">
        <ele>217.99000549316</ele>
        <time>2009-10-04T12:34:12Z</time>
      </trkpt>
      <trkpt lat="45.00359" lon="5.085">
        <ele>222.29299926758</ele>
        <time>2009-10-04T12:34:28Z</time>
      </trkpt>
      <trkpt lat="45.0033" lon="5.08466">
        <ele>225.36700439453</ele>
        <time>2009-10-04T12:34:35Z</time>
      </trkpt>
      <trkpt lat="45.00323" lon="5.08458">
        <ele>226.00300598144</ele>
        <time>2009-10-04T12:34:37Z</time>
      </trkpt>
      <trkpt lat="45.00306" lon="5.0848">
        <ele>224.84300231934</ele>
        <time>2009-10-04T12:34:43Z</time>
      </trkpt>
      <trkpt lat="45.00305" lon="5.08489">
        <ele>223.71200561523</ele>
        <time>2009-10-04T12:34:44Z</time>
      </trkpt>
      <trkpt lat="45.00296" lon="5.08558">
        <ele>221.04200744629</ele>
        <time>2009-10-04T12:34:50Z</time>
      </trkpt>
      <trkpt lat="45.00278" lon="5.08598">
        <ele>220.8809967041</ele>
        <time>2009-10-04T12:34:54Z</time>
      </trkpt>
      <trkpt lat="45.0026" lon="5.08621">
        <ele>221.61500549316</ele>
        <time>2009-10-04T12:34:57Z</time>
      </trkpt>
      <trkpt lat="45.00249" lon="5.08638">
        <ele>221.85000610352</ele>
        <time>2009-10-04T12:34:59Z</time>
      </trkpt>
      <trkpt lat="45.00231" lon="5.08694">
        <ele>222.28900146484</ele>
        <time>2009-10-04T12:35:05Z</time>
      </trkpt>
      <trkpt lat="45.00212" lon="5.08826">
        <ele>224.62699890137</ele>
        <time>2009-10-04T12:35:19Z</time>
      </trkpt>
      <trkpt lat="45.00207" lon="5.08861">
        <ele>224.61099243164</ele>
        <time>2009-10-04T12:35:23Z</time>
      </trkpt>
      <trkpt lat="45.00192" lon="5.0896">
        <ele>226.6549987793</ele>
        <time>2009-10-04T12:35:34Z</time>
      </trkpt>
      <trkpt lat="45.00186" lon="5.08994">
        <ele>226.70599365234</ele>
        <time>2009-10-04T12:35:38Z</time>
      </trkpt>
      <trkpt lat="45.00171" lon="5.09085">
        <ele>227.98300170898</ele>
        <time>2009-10-04T12:35:49Z</time>
      </trkpt>
      <trkpt lat="45.0017" lon="5.09104">
        <ele>228.15800476074</ele>
        <time>2009-10-04T12:35:52Z</time>
      </trkpt>
      <trkpt lat="45.00205" lon="5.09164">
        <ele>228.66999816894</ele>
        <time>2009-10-04T12:36:01Z</time>
      </trkpt>
      <trkpt lat="45.00231" lon="5.09209">
        <ele>228.52099609375</ele>
        <time>2009-10-04T12:36:07Z</time>
      </trkpt>
      <trkpt lat="45.0028" lon="5.0929">
        <ele>228.01699829102</ele>
        <time>2009-10-04T12:36:18Z</time>
      </trkpt>
      <trkpt lat="45.00271" lon="5.09324">
        <ele>229.39100646973</ele>
        <time>2009-10-04T12:36:23Z</time>
      </trkpt>
      <trkpt lat="45.00146" lon="5.09431">
        <ele>231.85600280762</ele>
        <time>2009-10-04T12:36:44Z</time>
      </trkpt>
      <trkpt lat="45.00037" lon="5.09523">
        <ele>233.54800415039</ele>
        <time>2009-10-04T12:37:02Z</time>
      </trkpt>
      <trkpt lat="44.99894" lon="5.09632">
        <ele>236.69200134277</ele>
        <time>2009-10-04T12:37:25Z</time>
      </trkpt>
      <trkpt lat="44.99757" lon="5.09703">
        <ele>239.45100402832</ele>
        <time>2009-10-04T12:37:46Z</time>
      </trkpt>
      <trkpt lat="44.99633" lon="5.09797">
        <ele>242.3390045166</ele>
        <time>2009-10-04T12:38:07Z</time>
      </trkpt>
      <trkpt lat="44.99506" lon="5.0991">
        <ele>245.26100158691</ele>
        <time>2009-10-04T12:38:29Z</time>
      </trkpt>
      <trkpt lat="44.9938" lon="5.10013">
        <ele>248.49200439453</ele>
        <time>2009-10-04T12:38:51Z</time>
      </trkpt>
      <trkpt lat="44.99261" lon="5.1011">
        <ele>251.45899963379</ele>
        <time>2009-10-04T12:39:12Z</time>
      </trkpt>
      <trkpt lat="44.99144" lon="5.10193">
        <ele>254.96699523926</ele>
        <time>2009-10-04T12:39:33Z</time>
      </trkpt>
      <trkpt lat="44.99015" lon="5.10232">
        <ele>258.17300415039</ele>
        <time>2009-10-04T12:39:56Z</time>
      </trkpt>
      <trkpt lat="44.9896" lon="5.10246">
        <ele>260.29699707031</ele>
        <time>2009-10-04T12:40:06Z</time>
      </trkpt>
      <trkpt lat="44.98935" lon="5.10234">
        <ele>260.86099243164</ele>
        <time>2009-10-04T12:40:11Z</time>
      </trkpt>
      <trkpt lat="44.98911" lon="5.10237">
        <ele>260.89300537109</ele>
        <time>2009-10-04T12:40:16Z</time>
      </trkpt>
      <trkpt lat="44.98908" lon="5.10253">
        <ele>260.84698486328</ele>
        <time>2009-10-04T12:40:18Z</time>
      </trkpt>
      <trkpt lat="44.98861" lon="5.10351">
        <ele>262.88598632812</ele>
        <time>2009-10-04T12:40:33Z</time>
      </trkpt>
      <trkpt lat="44.98822" lon="5.10429">
        <ele>265.54598999023</ele>
        <time>2009-10-04T12:40:48Z</time>
      </trkpt>
      <trkpt lat="44.98761" lon="5.10533">
        <ele>269.06100463867</ele>
        <time>2009-10-04T12:41:08Z</time>
      </trkpt>
      <trkpt lat="44.98678" lon="5.10607">
        <ele>271.89801025391</ele>
        <time>2009-10-04T12:41:27Z</time>
      </trkpt>
      <trkpt lat="44.98574" lon="5.10689">
        <ele>274.60400390625</ele>
        <time>2009-10-04T12:41:49Z</time>
      </trkpt>
      <trkpt lat="44.98463" lon="5.10768">
        <ele>278.59799194336</ele>
        <time>2009-10-04T12:42:12Z</time>
      </trkpt>
      <trkpt lat="44.98343" lon="5.10838">
        <ele>281.90798950195</ele>
        <time>2009-10-04T12:42:36Z</time>
      </trkpt>
      <trkpt lat="44.98271" lon="5.1088">
        <ele>284.1789855957</ele>
        <time>2009-10-04T12:42:50Z</time>
      </trkpt>
      <trkpt lat="44.98192" lon="5.10976">
        <ele>285.82000732422</ele>
        <time>2009-10-04T12:43:08Z</time>
      </trkpt>
      <trkpt lat="44.98105" lon="5.11068">
        <ele>290.36499023438</ele>
        <time>2009-10-04T12:43:27Z</time>
      </trkpt>
      <trkpt lat="44.98077" lon="5.11095">
        <ele>292.53100585938</ele>
        <time>2009-10-04T12:43:33Z</time>
      </trkpt>
      <trkpt lat="44.98034" lon="5.11152">
        <ele>294.41799926758</ele>
        <time>2009-10-04T12:43:43Z</time>
      </trkpt>
      <trkpt lat="44.97938" lon="5.11266">
        <ele>298.25399780273</ele>
        <time>2009-10-04T12:44:04Z</time>
      </trkpt>
      <trkpt lat="44.97832" lon="5.11336">
        <ele>303.03298950195</ele>
        <time>2009-10-04T12:44:26Z</time>
      </trkpt>
      <trkpt lat="44.97724" lon="5.11417">
        <ele>307.81201171875</ele>
        <time>2009-10-04T12:44:50Z</time>
      </trkpt>
      <trkpt lat="44.97656" lon="5.11517">
        <ele>311.52099609375</ele>
        <time>2009-10-04T12:45:09Z</time>
      </trkpt>
      <trkpt lat="44.97586" lon="5.11626">
        <ele>315.39401245117</ele>
        <time>2009-10-04T12:45:29Z</time>
      </trkpt>
      <trkpt lat="44.97525" lon="5.11724">
        <ele>317.49200439453</ele>
        <time>2009-10-04T12:45:46Z</time>
      </trkpt>
      <trkpt lat="44.97454" lon="5.11796">
        <ele>320.29501342773</ele>
        <time>2009-10-04T12:46:03Z</time>
      </trkpt>
      <trkpt lat="44.97368" lon="5.1182">
        <ele>324.43399047852</ele>
        <time>2009-10-04T12:46:21Z</time>
      </trkpt>
      <trkpt lat="44.97303" lon="5.1184">
        <ele>327.89999389648</ele>
        <time>2009-10-04T12:46:35Z</time>
      </trkpt>
      <trkpt lat="44.97191" lon="5.11903">
        <ele>333.56201171875</ele>
        <time>2009-10-04T12:47:00Z</time>
      </trkpt>
      <trkpt lat="44.97086" lon="5.11965">
        <ele>337.83999633789</ele>
        <time>2009-10-04T12:47:23Z</time>
      </trkpt>
      <trkpt lat="44.96996" lon="5.12018">
        <ele>341.96301269531</ele>
        <time>2009-10-04T12:47:42Z</time>
      </trkpt>
      <trkpt lat="44.96924" lon="5.12095">
        <ele>345.16101074219</ele>
        <time>2009-10-04T12:48:00Z</time>
      </trkpt>
      <trkpt lat="44.96859" lon="5.12191">
        <ele>349.49700927734</ele>
        <time>2009-10-04T12:48:19Z</time>
      </trkpt>
      <trkpt lat="44.96785" lon="5.12296">
        <ele>354.2799987793</ele>
        <time>2009-10-04T12:48:40Z</time>
      </trkpt>
      <trkpt lat="44.96708" lon="5.12394">
        <ele>358.83401489258</ele>
        <time>2009-10-04T12:49:01Z</time>
      </trkpt>
      <trkpt lat="44.96624" lon="5.1247">
        <ele>363.75601196289</ele>
        <time>2009-10-04T12:49:21Z</time>
      </trkpt>
      <trkpt lat="44.96536" lon="5.12561">
        <ele>369.30499267578</ele>
        <time>2009-10-04T12:49:43Z</time>
      </trkpt>
      <trkpt lat="44.96466" lon="5.1265">
        <ele>373.28601074219</ele>
        <time>2009-10-04T12:50:02Z</time>
      </trkpt>
      <trkpt lat="44.96378" lon="5.12712">
        <ele>377.88598632812</ele>
        <time>2009-10-04T12:50:22Z</time>
      </trkpt>
      <trkpt lat="44.96297" lon="5.12754">
        <ele>382.0530090332</ele>
        <time>2009-10-04T12:50:39Z</time>
      </trkpt>
      <trkpt lat="44.9621" lon="5.12822">
        <ele>386.60198974609</ele>
        <time>2009-10-04T12:50:58Z</time>
      </trkpt>
      <trkpt lat="44.96123" lon="5.12916">
        <ele>391.52499389648</ele>
        <time>2009-10-04T12:51:19Z</time>
      </trkpt>
      <trkpt lat="44.96044" lon="5.13027">
        <ele>395.71200561523</ele>
        <time>2009-10-04T12:51:40Z</time>
      </trkpt>
      <trkpt lat="44.95972" lon="5.13141">
        <ele>399.85000610352</ele>
        <time>2009-10-04T12:52:01Z</time>
      </trkpt>
      <trkpt lat="44.9593" lon="5.13209">
        <ele>403.81900024414</ele>
        <time>2009-10-04T12:52:16Z</time>
      </trkpt>
      <trkpt lat="44.95906" lon="5.13271">
        <ele>406.24099731445</ele>
        <time>2009-10-04T12:52:27Z</time>
      </trkpt>
      <trkpt lat="44.95848" lon="5.13385">
        <ele>411.06799316406</ele>
        <time>2009-10-04T12:52:47Z</time>
      </trkpt>
      <trkpt lat="44.95792" lon="5.13487">
        <ele>414.50201416016</ele>
        <time>2009-10-04T12:53:06Z</time>
      </trkpt>
      <trkpt lat="44.95744" lon="5.13573">
        <ele>417.71798706055</ele>
        <time>2009-10-04T12:53:22Z</time>
      </trkpt>
      <trkpt lat="44.95681" lon="5.13686">
        <ele>421.55599975586</ele>
        <time>2009-10-04T12:53:42Z</time>
      </trkpt>
      <trkpt lat="44.95663" lon="5.13721">
        <ele>422.19299316406</ele>
        <time>2009-10-04T12:53:48Z</time>
      </trkpt>
      <trkpt lat="44.95648" lon="5.13766">
        <ele>422.57598876953</ele>
        <time>2009-10-04T12:53:55Z</time>
      </trkpt>
      <trkpt lat="44.95647" lon="5.13872">
        <ele>425.74499511719</ele>
        <time>2009-10-04T12:54:10Z</time>
      </trkpt>
      <trkpt lat="44.95635" lon="5.13985">
        <ele>427.83499145508</ele>
        <time>2009-10-04T12:54:25Z</time>
      </trkpt>
      <trkpt lat="44.95611" lon="5.14096">
        <ele>430.4700012207</ele>
        <time>2009-10-04T12:54:41Z</time>
      </trkpt>
      <trkpt lat="44.95602" lon="5.14133">
        <ele>431.05599975586</ele>
        <time>2009-10-04T12:54:46Z</time>
      </trkpt>
      <trkpt lat="44.95592" lon="5.14158">
        <ele>432.07901000977</ele>
        <time>2009-10-04T12:54:50Z</time>
      </trkpt>
      <trkpt lat="44.95574" lon="5.14182">
        <ele>432.76300048828</ele>
        <time>2009-10-04T12:54:54Z</time>
      </trkpt>
      <trkpt lat="44.95563" lon="5.14198">
        <ele>433.06399536133</ele>
        <time>2009-10-04T12:54:57Z</time>
      </trkpt>
      <trkpt lat="44.95541" lon="5.14221">
        <ele>433.67098999023</ele>
        <time>2009-10-04T12:55:02Z</time>
      </trkpt>
      <trkpt lat="44.95534" lon="5.14222">
        <ele>433.47601318359</ele>
        <time>2009-10-04T12:55:03Z</time>
      </trkpt>
      <trkpt lat="44.95481" lon="5.14245">
        <ele>433.67199707031</ele>
        <time>2009-10-04T12:55:12Z</time>
      </trkpt>
      <trkpt lat="44.95433" lon="5.14274">
        <ele>434.37100219727</ele>
        <time>2009-10-04T12:55:20Z</time>
      </trkpt>
      <trkpt lat="44.954" lon="5.14302">
        <ele>435.10800170898</ele>
        <time>2009-10-04T12:55:26Z</time>
      </trkpt>
      <trkpt lat="44.95357" lon="5.14323">
        <ele>435.96600341797</ele>
        <time>2009-10-04T12:55:33Z</time>
      </trkpt>
      <trkpt lat="44.95332" lon="5.14336">
        <ele>436.41598510742</ele>
        <time>2009-10-04T12:55:37Z</time>
      </trkpt>
      <trkpt lat="44.95268" lon="5.14375">
        <ele>433.79901123047</ele>
        <time>2009-10-04T12:55:47Z</time>
      </trkpt>
      <trkpt lat="44.95248" lon="5.14395">
        <ele>433.74499511719</ele>
        <time>2009-10-04T12:55:50Z</time>
      </trkpt>
      <trkpt lat="44.95193" lon="5.14423">
        <ele>433.66500854492</ele>
        <time>2009-10-04T12:55:57Z</time>
      </trkpt>
      <trkpt lat="44.95184" lon="5.14442">
        <ele>433.70001220703</ele>
        <time>2009-10-04T12:55:59Z</time>
      </trkpt>
      <trkpt lat="44.9514" lon="5.14522">
        <ele>433.53500366211</ele>
        <time>2009-10-04T12:56:09Z</time>
      </trkpt>
      <trkpt lat="44.95137" lon="5.1453">
        <ele>433.41101074219</ele>
        <time>2009-10-04T12:56:10Z</time>
      </trkpt>
      <trkpt lat="44.95118" lon="5.14558">
        <ele>437.10501098633</ele>
        <time>2009-10-04T12:56:15Z</time>
      </trkpt>
      <trkpt lat="44.9511" lon="5.14566">
        <ele>437.98001098633</ele>
        <time>2009-10-04T12:56:17Z</time>
      </trkpt>
      <trkpt lat="44.95072" lon="5.1459">
        <ele>441.46200561523</ele>
        <time>2009-10-04T12:56:30Z</time>
      </trkpt>
      <trkpt lat="44.95041" lon="5.14604">
        <ele>444.45199584961</ele>
        <time>2009-10-04T12:56:42Z</time>
      </trkpt>
      <trkpt lat="44.94989" lon="5.14633">
        <ele>448.71899414062</ele>
        <time>2009-10-04T12:56:59Z</time>
      </trkpt>
      <trkpt lat="44.94939" lon="5.1468">
        <ele>452.57901000977</ele>
        <time>2009-10-04T12:57:16Z</time>
      </trkpt>
      <trkpt lat="44.94884" lon="5.14717">
        <ele>455.06500244141</ele>
        <time>2009-10-04T12:57:33Z</time>
      </trkpt>
      <trkpt lat="44.94824" lon="5.14742">
        <ele>458.71899414062</ele>
        <time>2009-10-04T12:57:50Z</time>
      </trkpt>
      <trkpt lat="44.94786" lon="5.14786">
        <ele>461.61599731445</ele>
        <time>2009-10-04T12:58:04Z</time>
      </trkpt>
      <trkpt lat="44.94733" lon="5.14818">
        <ele>465.57800292969</ele>
        <time>2009-10-04T12:58:21Z</time>
      </trkpt>
      <trkpt lat="44.94664" lon="5.14827">
        <ele>470.42401123047</ele>
        <time>2009-10-04T12:58:40Z</time>
      </trkpt>
      <trkpt lat="44.94629" lon="5.14846">
        <ele>473.04501342773</ele>
        <time>2009-10-04T12:58:50Z</time>
      </trkpt>
      <trkpt lat="44.94592" lon="5.14902">
        <ele>476.82000732422</ele>
        <time>2009-10-04T12:59:05Z</time>
      </trkpt>
      <trkpt lat="44.94543" lon="5.1498">
        <ele>480.49600219727</ele>
        <time>2009-10-04T12:59:24Z</time>
      </trkpt>
      <trkpt lat="44.94497" lon="5.15051">
        <ele>483.85000610352</ele>
        <time>2009-10-04T12:59:42Z</time>
      </trkpt>
      <trkpt lat="44.94472" lon="5.15124">
        <ele>486.84100341797</ele>
        <time>2009-10-04T12:59:57Z</time>
      </trkpt>
      <trkpt lat="44.94462" lon="5.15204">
        <ele>490.42001342773</ele>
        <time>2009-10-04T13:00:12Z</time>
      </trkpt>
      <trkpt lat="44.94452" lon="5.15285">
        <ele>494.06399536133</ele>
        <time>2009-10-04T13:00:28Z</time>
      </trkpt>
      <trkpt lat="44.9444" lon="5.15368">
        <ele>497.6789855957</ele>
        <time>2009-10-04T13:00:45Z</time>
      </trkpt>
      <trkpt lat="44.94419" lon="5.15438">
        <ele>501.1369934082</ele>
        <time>2009-10-04T13:01:00Z</time>
      </trkpt>
      <trkpt lat="44.94399" lon="5.15508">
        <ele>504.05599975586</ele>
        <time>2009-10-04T13:01:15Z</time>
      </trkpt>
      <trkpt lat="44.94386" lon="5.15572">
        <ele>507.625</ele>
        <time>2009-10-04T13:01:29Z</time>
      </trkpt>
      <trkpt lat="44.94366" lon="5.15664">
        <ele>512.43103027344</ele>
        <time>2009-10-04T13:01:51Z</time>
      </trkpt>
      <trkpt lat="44.94349" lon="5.15744">
        <ele>517.19702148438</ele>
        <time>2009-10-04T13:02:11Z</time>
      </trkpt>
      <trkpt lat="44.94331" lon="5.15828">
        <ele>522.28497314453</ele>
        <time>2009-10-04T13:02:30Z</time>
      </trkpt>
      <trkpt lat="44.94312" lon="5.15919">
        <ele>527.38702392578</ele>
        <time>2009-10-04T13:02:51Z</time>
      </trkpt>
      <trkpt lat="44.94294" lon="5.16006">
        <ele>531.80603027344</ele>
        <time>2009-10-04T13:03:10Z</time>
      </trkpt>
      <trkpt lat="44.94271" lon="5.16101">
        <ele>535.76000976562</ele>
        <time>2009-10-04T13:03:30Z</time>
      </trkpt>
      <trkpt lat="44.94241" lon="5.16178">
        <ele>538.97497558594</ele>
        <time>2009-10-04T13:03:47Z</time>
      </trkpt>
      <trkpt lat="44.94207" lon="5.1623">
        <ele>541.21197509766</ele>
        <time>2009-10-04T13:04:02Z</time>
      </trkpt>
      <trkpt lat="44.94185" lon="5.16208">
        <ele>542.70599365234</ele>
        <time>2009-10-04T13:04:10Z</time>
      </trkpt>
      <trkpt lat="44.9418" lon="5.16146">
        <ele>545.51098632812</ele>
        <time>2009-10-04T13:04:23Z</time>
      </trkpt>
      <trkpt lat="44.94179" lon="5.16056">
        <ele>548.67602539062</ele>
        <time>2009-10-04T13:04:40Z</time>
      </trkpt>
      <trkpt lat="44.94175" lon="5.1599">
        <ele>552.208984375</ele>
        <time>2009-10-04T13:04:55Z</time>
      </trkpt>
      <trkpt lat="44.94166" lon="5.15951">
        <ele>554.67297363281</ele>
        <time>2009-10-04T13:05:05Z</time>
      </trkpt>
      <trkpt lat="44.94154" lon="5.15873">
        <ele>559.81298828125</ele>
        <time>2009-10-04T13:05:23Z</time>
      </trkpt>
      <trkpt lat="44.94154" lon="5.15816">
        <ele>563.02600097656</ele>
        <time>2009-10-04T13:05:35Z</time>
      </trkpt>
      <trkpt lat="44.94128" lon="5.15775">
        <ele>566.50201416016</ele>
        <time>2009-10-04T13:05:47Z</time>
      </trkpt>
      <trkpt lat="44.94081" lon="5.15733">
        <ele>570.84100341797</ele>
        <time>2009-10-04T13:06:05Z</time>
      </trkpt>
      <trkpt lat="44.94022" lon="5.15677">
        <ele>575.79602050781</ele>
        <time>2009-10-04T13:06:26Z</time>
      </trkpt>
      <trkpt lat="44.93977" lon="5.15635">
        <ele>579.02301025391</ele>
        <time>2009-10-04T13:06:41Z</time>
      </trkpt>
      <trkpt lat="44.9396" lon="5.15622">
        <ele>579.70300292969</ele>
        <time>2009-10-04T13:06:46Z</time>
      </trkpt>
      <trkpt lat="44.93924" lon="5.15592">
        <ele>581.17901611328</ele>
        <time>2009-10-04T13:06:56Z</time>
      </trkpt>
      <trkpt lat="44.9392" lon="5.15614">
        <ele>582.45098876953</ele>
        <time>2009-10-04T13:07:03Z</time>
      </trkpt>
      <trkpt lat="44.93923" lon="5.15616">
        <ele>582.43701171875</ele>
        <time>2009-10-04T13:07:04Z</time>
      </trkpt>
      <trkpt lat="44.9397" lon="5.15656">
        <ele>585.94097900391</ele>
        <time>2009-10-04T13:07:19Z</time>
      </trkpt>
      <trkpt lat="44.94004" lon="5.15705">
        <ele>588.96997070312</ele>
        <time>2009-10-04T13:07:32Z</time>
      </trkpt>
      <trkpt lat="44.94024" lon="5.1575">
        <ele>591.18902587891</ele>
        <time>2009-10-04T13:07:42Z</time>
      </trkpt>
      <trkpt lat="44.94046" lon="5.15819">
        <ele>593.416015625</ele>
        <time>2009-10-04T13:07:56Z</time>
      </trkpt>
      <trkpt lat="44.94054" lon="5.15882">
        <ele>596.17199707031</ele>
        <time>2009-10-04T13:08:08Z</time>
      </trkpt>
      <trkpt lat="44.94053" lon="5.15887">
        <ele>596.16900634766</ele>
        <time>2009-10-04T13:08:09Z</time>
      </trkpt>
      <trkpt lat="44.94042" lon="5.15879">
        <ele>597.62799072266</ele>
        <time>2009-10-04T13:08:14Z</time>
      </trkpt>
      <trkpt lat="44.94023" lon="5.15793">
        <ele>602.02600097656</ele>
        <time>2009-10-04T13:08:32Z</time>
      </trkpt>
      <trkpt lat="44.93986" lon="5.15737">
        <ele>606.58697509766</ele>
        <time>2009-10-04T13:08:48Z</time>
      </trkpt>
      <trkpt lat="44.93942" lon="5.15707">
        <ele>610.88598632812</ele>
        <time>2009-10-04T13:09:02Z</time>
      </trkpt>
      <trkpt lat="44.93914" lon="5.15697">
        <ele>613.69500732422</ele>
        <time>2009-10-04T13:09:13Z</time>
      </trkpt>
      <trkpt lat="44.93881" lon="5.15688">
        <ele>616.53100585938</ele>
        <time>2009-10-04T13:09:24Z</time>
      </trkpt>
      <trkpt lat="44.93837" lon="5.15681">
        <ele>619.38897705078</ele>
        <time>2009-10-04T13:09:38Z</time>
      </trkpt>
      <trkpt lat="44.9379" lon="5.15681">
        <ele>623.12902832031</ele>
        <time>2009-10-04T13:09:53Z</time>
      </trkpt>
      <trkpt lat="44.93748" lon="5.15683">
        <ele>626.64501953125</ele>
        <time>2009-10-04T13:10:08Z</time>
      </trkpt>
      <trkpt lat="44.93721" lon="5.15721">
        <ele>629.59802246094</ele>
        <time>2009-10-04T13:10:21Z</time>
      </trkpt>
      <trkpt lat="44.93707" lon="5.15762">
        <ele>631.79998779297</ele>
        <time>2009-10-04T13:10:32Z</time>
      </trkpt>
      <trkpt lat="44.93723" lon="5.15761">
        <ele>633.14697265625</ele>
        <time>2009-10-04T13:10:39Z</time>
      </trkpt>
      <trkpt lat="44.93759" lon="5.15724">
        <ele>636.37701416016</ele>
        <time>2009-10-04T13:10:52Z</time>
      </trkpt>
      <trkpt lat="44.93816" lon="5.15737">
        <ele>640.63000488281</ele>
        <time>2009-10-04T13:11:09Z</time>
      </trkpt>
      <trkpt lat="44.9387" lon="5.15754">
        <ele>644.64398193359</ele>
        <time>2009-10-04T13:11:25Z</time>
      </trkpt>
      <trkpt lat="44.93915" lon="5.15784">
        <ele>647.98901367188</ele>
        <time>2009-10-04T13:11:40Z</time>
      </trkpt>
      <trkpt lat="44.93946" lon="5.15835">
        <ele>651.20501708984</ele>
        <time>2009-10-04T13:11:56Z</time>
      </trkpt>
      <trkpt lat="44.93947" lon="5.15843">
        <ele>651.21502685547</ele>
        <time>2009-10-04T13:11:58Z</time>
      </trkpt>
      <trkpt lat="44.93946" lon="5.15896">
        <ele>653.87298583984</ele>
        <time>2009-10-04T13:12:09Z</time>
      </trkpt>
      <trkpt lat="44.93942" lon="5.15933">
        <ele>655.36999511719</ele>
        <time>2009-10-04T13:12:15Z</time>
      </trkpt>
      <trkpt lat="44.9394" lon="5.15998">
        <ele>658.21502685547</ele>
        <time>2009-10-04T13:12:26Z</time>
      </trkpt>
      <trkpt lat="44.93941" lon="5.16005">
        <ele>658.35101318359</ele>
        <time>2009-10-04T13:12:27Z</time>
      </trkpt>
      <trkpt lat="44.93948" lon="5.16082">
        <ele>662.11700439453</ele>
        <time>2009-10-04T13:12:41Z</time>
      </trkpt>
      <trkpt lat="44.9396" lon="5.16155">
        <ele>665.24597167969</ele>
        <time>2009-10-04T13:12:55Z</time>
      </trkpt>
      <trkpt lat="44.93967" lon="5.16191">
        <ele>667.36798095703</ele>
        <time>2009-10-04T13:13:02Z</time>
      </trkpt>
      <trkpt lat="44.93957" lon="5.1618">
        <ele>668.61297607422</ele>
        <time>2009-10-04T13:13:08Z</time>
      </trkpt>
      <trkpt lat="44.93934" lon="5.16096">
        <ele>671.65802001953</ele>
        <time>2009-10-04T13:13:25Z</time>
      </trkpt>
      <trkpt lat="44.93914" lon="5.16019">
        <ele>674.78900146484</ele>
        <time>2009-10-04T13:13:41Z</time>
      </trkpt>
      <trkpt lat="44.93906" lon="5.15961">
        <ele>677.36602783203</ele>
        <time>2009-10-04T13:13:53Z</time>
      </trkpt>
      <trkpt lat="44.93906" lon="5.15909">
        <ele>679.14398193359</ele>
        <time>2009-10-04T13:14:03Z</time>
      </trkpt>
      <trkpt lat="44.93904" lon="5.1586">
        <ele>681.55999755859</ele>
        <time>2009-10-04T13:14:13Z</time>
      </trkpt>
      <trkpt lat="44.93873" lon="5.15846">
        <ele>684.18402099609</ele>
        <time>2009-10-04T13:14:23Z</time>
      </trkpt>
      <trkpt lat="44.93816" lon="5.15869">
        <ele>687.70098876953</ele>
        <time>2009-10-04T13:14:40Z</time>
      </trkpt>
      <trkpt lat="44.93811" lon="5.15881">
        <ele>688.34301757812</ele>
        <time>2009-10-04T13:14:43Z</time>
      </trkpt>
      <trkpt lat="44.93833" lon="5.1589">
        <ele>689.80401611328</ele>
        <time>2009-10-04T13:14:51Z</time>
      </trkpt>
      <trkpt lat="44.93852" lon="5.15876">
        <ele>690.29400634766</ele>
        <time>2009-10-04T13:14:56Z</time>
      </trkpt>
      <trkpt lat="44.93884" lon="5.15895">
        <ele>692.66802978516</ele>
        <time>2009-10-04T13:15:05Z</time>
      </trkpt>
      <trkpt lat="44.93886" lon="5.15933">
        <ele>694.17498779297</ele>
        <time>2009-10-04T13:15:11Z</time>
      </trkpt>
      <trkpt lat="44.93879" lon="5.16016">
        <ele>697.43298339844</ele>
        <time>2009-10-04T13:15:26Z</time>
      </trkpt>
      <trkpt lat="44.93885" lon="5.16072">
        <ele>699.69598388672</ele>
        <time>2009-10-04T13:15:37Z</time>
      </trkpt>
      <trkpt lat="44.93888" lon="5.16134">
        <ele>702.2509765625</ele>
        <time>2009-10-04T13:15:49Z</time>
      </trkpt>
      <trkpt lat="44.9388" lon="5.16197">
        <ele>704.7490234375</ele>
        <time>2009-10-04T13:16:00Z</time>
      </trkpt>
      <trkpt lat="44.93848" lon="5.16267">
        <ele>707.82800292969</ele>
        <time>2009-10-04T13:16:15Z</time>
      </trkpt>
      <trkpt lat="44.93813" lon="5.16302">
        <ele>710.43298339844</ele>
        <time>2009-10-04T13:16:27Z</time>
      </trkpt>
      <trkpt lat="44.93766" lon="5.16294">
        <ele>712.68402099609</ele>
        <time>2009-10-04T13:16:40Z</time>
      </trkpt>
      <trkpt lat="44.93773" lon="5.16284">
        <ele>714.36602783203</ele>
        <time>2009-10-04T13:16:46Z</time>
      </trkpt>
      <trkpt lat="44.93785" lon="5.16286">
        <ele>714.88500976562</ele>
        <time>2009-10-04T13:16:49Z</time>
      </trkpt>
      <trkpt lat="44.93828" lon="5.1626">
        <ele>717.48602294922</ele>
        <time>2009-10-04T13:17:02Z</time>
      </trkpt>
      <trkpt lat="44.93842" lon="5.1618">
        <ele>720.31896972656</ele>
        <time>2009-10-04T13:17:17Z</time>
      </trkpt>
      <trkpt lat="44.93836" lon="5.16108">
        <ele>722.73999023438</ele>
        <time>2009-10-04T13:17:30Z</time>
      </trkpt>
      <trkpt lat="44.93816" lon="5.1603">
        <ele>725.99597167969</ele>
        <time>2009-10-04T13:17:45Z</time>
      </trkpt>
      <trkpt lat="44.93799" lon="5.16021">
        <ele>727.19500732422</ele>
        <time>2009-10-04T13:17:50Z</time>
      </trkpt>
      <trkpt lat="44.93745" lon="5.1606">
        <ele>730.50402832031</ele>
        <time>2009-10-04T13:18:05Z</time>
      </trkpt>
      <trkpt lat="44.93694" lon="5.16107">
        <ele>733.24298095703</ele>
        <time>2009-10-04T13:18:21Z</time>
      </trkpt>
      <trkpt lat="44.93631" lon="5.16126">
        <ele>736.68499755859</ele>
        <time>2009-10-04T13:18:38Z</time>
      </trkpt>
      <trkpt lat="44.93586" lon="5.16154">
        <ele>739.64099121094</ele>
        <time>2009-10-04T13:18:51Z</time>
      </trkpt>
      <trkpt lat="44.93544" lon="5.16213">
        <ele>742.98498535156</ele>
        <time>2009-10-04T13:19:07Z</time>
      </trkpt>
      <trkpt lat="44.93496" lon="5.16236">
        <ele>746.05401611328</ele>
        <time>2009-10-04T13:19:21Z</time>
      </trkpt>
      <trkpt lat="44.93476" lon="5.16266">
        <ele>747.79699707031</ele>
        <time>2009-10-04T13:19:30Z</time>
      </trkpt>
      <trkpt lat="44.93489" lon="5.16325">
        <ele>750.35302734375</ele>
        <time>2009-10-04T13:19:42Z</time>
      </trkpt>
      <trkpt lat="44.935" lon="5.1641">
        <ele>754.45202636719</ele>
        <time>2009-10-04T13:19:59Z</time>
      </trkpt>
      <trkpt lat="44.93486" lon="5.16492">
        <ele>757.62298583984</ele>
        <time>2009-10-04T13:20:15Z</time>
      </trkpt>
      <trkpt lat="44.93472" lon="5.16523">
        <ele>759.09802246094</ele>
        <time>2009-10-04T13:20:22Z</time>
      </trkpt>
      <trkpt lat="44.93458" lon="5.16542">
        <ele>759.96801757812</ele>
        <time>2009-10-04T13:20:27Z</time>
      </trkpt>
      <trkpt lat="44.93432" lon="5.16565">
        <ele>761.81597900391</ele>
        <time>2009-10-04T13:20:34Z</time>
      </trkpt>
      <trkpt lat="44.93423" lon="5.16607">
        <ele>763.98901367188</ele>
        <time>2009-10-04T13:20:41Z</time>
      </trkpt>
      <trkpt lat="44.9343" lon="5.1666">
        <ele>766.29302978516</ele>
        <time>2009-10-04T13:20:49Z</time>
      </trkpt>
      <trkpt lat="44.93422" lon="5.16719">
        <ele>768.51898193359</ele>
        <time>2009-10-04T13:20:58Z</time>
      </trkpt>
      <trkpt lat="44.93417" lon="5.16736">
        <ele>769.10498046875</ele>
        <time>2009-10-04T13:21:01Z</time>
      </trkpt>
      <trkpt lat="44.93417" lon="5.1677">
        <ele>770.92901611328</ele>
        <time>2009-10-04T13:21:07Z</time>
      </trkpt>
      <trkpt lat="44.93424" lon="5.16792">
        <ele>771.41497802734</ele>
        <time>2009-10-04T13:21:11Z</time>
      </trkpt>
      <trkpt lat="44.93422" lon="5.16871">
        <ele>775.12799072266</ele>
        <time>2009-10-04T13:21:26Z</time>
      </trkpt>
      <trkpt lat="44.93402" lon="5.16949">
        <ele>779.16497802734</ele>
        <time>2009-10-04T13:21:42Z</time>
      </trkpt>
      <trkpt lat="44.93381" lon="5.17041">
        <ele>783.77197265625</ele>
        <time>2009-10-04T13:22:00Z</time>
      </trkpt>
      <trkpt lat="44.93347" lon="5.17101">
        <ele>787.42199707031</ele>
        <time>2009-10-04T13:22:15Z</time>
      </trkpt>
      <trkpt lat="44.93311" lon="5.17089">
        <ele>789.97100830078</ele>
        <time>2009-10-04T13:22:26Z</time>
      </trkpt>
      <trkpt lat="44.93283" lon="5.17104">
        <ele>792.80700683594</ele>
        <time>2009-10-04T13:22:36Z</time>
      </trkpt>
      <trkpt lat="44.93251" lon="5.1717">
        <ele>797.72198486328</ele>
        <time>2009-10-04T13:22:54Z</time>
      </trkpt>
      <trkpt lat="44.93235" lon="5.17227">
        <ele>800.86102294922</ele>
        <time>2009-10-04T13:23:08Z</time>
      </trkpt>
      <trkpt lat="44.9322" lon="5.17301">
        <ele>805.166015625</ele>
        <time>2009-10-04T13:23:24Z</time>
      </trkpt>
      <trkpt lat="44.93196" lon="5.17366">
        <ele>809.02697753906</ele>
        <time>2009-10-04T13:23:38Z</time>
      </trkpt>
      <trkpt lat="44.93149" lon="5.17381">
        <ele>812.28100585938</ele>
        <time>2009-10-04T13:23:51Z</time>
      </trkpt>
      <trkpt lat="44.93113" lon="5.1742">
        <ele>816.26702880859</ele>
        <time>2009-10-04T13:24:05Z</time>
      </trkpt>
      <trkpt lat="44.93078" lon="5.17495">
        <ele>820.72900390625</ele>
        <time>2009-10-04T13:24:23Z</time>
      </trkpt>
      <trkpt lat="44.93031" lon="5.17554">
        <ele>825.09197998047</ele>
        <time>2009-10-04T13:24:41Z</time>
      </trkpt>
      <trkpt lat="44.92978" lon="5.17592">
        <ele>829.05499267578</ele>
        <time>2009-10-04T13:24:58Z</time>
      </trkpt>
      <trkpt lat="44.92921" lon="5.17622">
        <ele>833.32202148438</ele>
        <time>2009-10-04T13:25:17Z</time>
      </trkpt>
      <trkpt lat="44.92867" lon="5.17641">
        <ele>837.55902099609</ele>
        <time>2009-10-04T13:25:34Z</time>
      </trkpt>
      <trkpt lat="44.92807" lon="5.17671">
        <ele>841.90301513672</ele>
        <time>2009-10-04T13:25:53Z</time>
      </trkpt>
      <trkpt lat="44.92785" lon="5.17722">
        <ele>845.19897460938</ele>
        <time>2009-10-04T13:26:05Z</time>
      </trkpt>
      <trkpt lat="44.92791" lon="5.1779">
        <ele>848.71600341797</ele>
        <time>2009-10-04T13:26:18Z</time>
      </trkpt>
      <trkpt lat="44.92766" lon="5.17828">
        <ele>851.80200195312</ele>
        <time>2009-10-04T13:26:29Z</time>
      </trkpt>
      <trkpt lat="44.92765" lon="5.17889">
        <ele>854.59600830078</ele>
        <time>2009-10-04T13:26:40Z</time>
      </trkpt>
      <trkpt lat="44.92759" lon="5.17941">
        <ele>857.28100585938</ele>
        <time>2009-10-04T13:26:50Z</time>
      </trkpt>
      <trkpt lat="44.92743" lon="5.17984">
        <ele>859.80999755859</ele>
        <time>2009-10-04T13:27:01Z</time>
      </trkpt>
      <trkpt lat="44.92717" lon="5.18039">
        <ele>863.10998535156</ele>
        <time>2009-10-04T13:27:15Z</time>
      </trkpt>
      <trkpt lat="44.92687" lon="5.18093">
        <ele>866.2080078125</ele>
        <time>2009-10-04T13:27:30Z</time>
      </trkpt>
      <trkpt lat="44.92653" lon="5.18089">
        <ele>869.05297851562</ele>
        <time>2009-10-04T13:27:41Z</time>
      </trkpt>
      <trkpt lat="44.92606" lon="5.1808">
        <ele>872.05999755859</ele>
        <time>2009-10-04T13:27:55Z</time>
      </trkpt>
      <trkpt lat="44.92576" lon="5.18068">
        <ele>874.17401123047</ele>
        <time>2009-10-04T13:28:05Z</time>
      </trkpt>
      <trkpt lat="44.92546" lon="5.1803">
        <ele>876.79302978516</ele>
        <time>2009-10-04T13:28:16Z</time>
      </trkpt>
      <trkpt lat="44.9251" lon="5.18029">
        <ele>879.28497314453</ele>
        <time>2009-10-04T13:28:27Z</time>
      </trkpt>
      <trkpt lat="44.92464" lon="5.1806">
        <ele>883.16802978516</ele>
        <time>2009-10-04T13:28:42Z</time>
      </trkpt>
      <trkpt lat="44.92427" lon="5.18069">
        <ele>886.28900146484</ele>
        <time>2009-10-04T13:28:53Z</time>
      </trkpt>
      <trkpt lat="44.92382" lon="5.18077">
        <ele>889.64001464844</ele>
        <time>2009-10-04T13:29:06Z</time>
      </trkpt>
      <trkpt lat="44.92332" lon="5.18074">
        <ele>892.84197998047</ele>
        <time>2009-10-04T13:29:20Z</time>
      </trkpt>
      <trkpt lat="44.92286" lon="5.18064">
        <ele>896.458984375</ele>
        <time>2009-10-04T13:29:34Z</time>
      </trkpt>
      <trkpt lat="44.92251" lon="5.18061">
        <ele>899.20599365234</ele>
        <time>2009-10-04T13:29:45Z</time>
      </trkpt>
      <trkpt lat="44.9226" lon="5.18077">
        <ele>900.72802734375</ele>
        <time>2009-10-04T13:29:52Z</time>
      </trkpt>
      <trkpt lat="44.92298" lon="5.18096">
        <ele>903.75402832031</ele>
        <time>2009-10-04T13:30:04Z</time>
      </trkpt>
      <trkpt lat="44.92335" lon="5.1812">
        <ele>906.541015625</ele>
        <time>2009-10-04T13:30:17Z</time>
      </trkpt>
      <trkpt lat="44.92388" lon="5.18139">
        <ele>911.01599121094</ele>
        <time>2009-10-04T13:30:34Z</time>
      </trkpt>
      <trkpt lat="44.92429" lon="5.18139">
        <ele>914.23498535156</ele>
        <time>2009-10-04T13:30:47Z</time>
      </trkpt>
      <trkpt lat="44.92473" lon="5.18147">
        <ele>917.47497558594</ele>
        <time>2009-10-04T13:31:01Z</time>
      </trkpt>
      <trkpt lat="44.92503" lon="5.18161">
        <ele>919.83898925781</ele>
        <time>2009-10-04T13:31:11Z</time>
      </trkpt>
      <trkpt lat="44.92529" lon="5.18193">
        <ele>922.66302490234</ele>
        <time>2009-10-04T13:31:22Z</time>
      </trkpt>
      <trkpt lat="44.92559" lon="5.1823">
        <ele>925.73602294922</ele>
        <time>2009-10-04T13:31:35Z</time>
      </trkpt>
      <trkpt lat="44.92598" lon="5.18258">
        <ele>928.625</ele>
        <time>2009-10-04T13:31:48Z</time>
      </trkpt>
      <trkpt lat="44.92633" lon="5.1828">
        <ele>931.6259765625</ele>
        <time>2009-10-04T13:32:00Z</time>
      </trkpt>
      <trkpt lat="44.92669" lon="5.18296">
        <ele>934.44702148438</ele>
        <time>2009-10-04T13:32:10Z</time>
      </trkpt>
      <trkpt lat="44.92735" lon="5.18317">
        <ele>939.5009765625</ele>
        <time>2009-10-04T13:32:27Z</time>
      </trkpt>
      <trkpt lat="44.92749" lon="5.18317">
        <ele>940.64898681641</ele>
        <time>2009-10-04T13:32:31Z</time>
      </trkpt>
      <trkpt lat="44.92745" lon="5.1833">
        <ele>942.14398193359</ele>
        <time>2009-10-04T13:32:37Z</time>
      </trkpt>
      <trkpt lat="44.92673" lon="5.18328">
        <ele>946.88897705078</ele>
        <time>2009-10-04T13:32:54Z</time>
      </trkpt>
      <trkpt lat="44.92597" lon="5.18312">
        <ele>952.51501464844</ele>
        <time>2009-10-04T13:33:12Z</time>
      </trkpt>
      <trkpt lat="44.92531" lon="5.18288">
        <ele>957.15002441406</ele>
        <time>2009-10-04T13:33:29Z</time>
      </trkpt>
      <trkpt lat="44.92467" lon="5.18263">
        <ele>962.13598632812</ele>
        <time>2009-10-04T13:33:46Z</time>
      </trkpt>
      <trkpt lat="44.92398" lon="5.18268">
        <ele>967.06500244141</ele>
        <time>2009-10-04T13:34:02Z</time>
      </trkpt>
      <trkpt lat="44.92329" lon="5.18267">
        <ele>971.77801513672</ele>
        <time>2009-10-04T13:34:20Z</time>
      </trkpt>
      <trkpt lat="44.92259" lon="5.18261">
        <ele>976.61401367188</ele>
        <time>2009-10-04T13:34:39Z</time>
      </trkpt>
      <trkpt lat="44.92202" lon="5.18256">
        <ele>980.60998535156</ele>
        <time>2009-10-04T13:34:55Z</time>
      </trkpt>
      <trkpt lat="44.92159" lon="5.18253">
        <ele>984.31201171875</ele>
        <time>2009-10-04T13:35:08Z</time>
      </trkpt>
      <trkpt lat="44.92163" lon="5.18269">
        <ele>986.09802246094</ele>
        <time>2009-10-04T13:35:15Z</time>
      </trkpt>
      <trkpt lat="44.92169" lon="5.18269">
        <ele>986.541015625</ele>
        <time>2009-10-04T13:35:17Z</time>
      </trkpt>
      <trkpt lat="44.92236" lon="5.18294">
        <ele>991.73797607422</ele>
        <time>2009-10-04T13:35:36Z</time>
      </trkpt>
      <trkpt lat="44.92285" lon="5.18318">
        <ele>995.88702392578</ele>
        <time>2009-10-04T13:35:50Z</time>
      </trkpt>
      <trkpt lat="44.92345" lon="5.18341">
        <ele>1000.8200073242</ele>
        <time>2009-10-04T13:36:07Z</time>
      </trkpt>
      <trkpt lat="44.92418" lon="5.18366">
        <ele>1006.3280029297</ele>
        <time>2009-10-04T13:36:27Z</time>
      </trkpt>
      <trkpt lat="44.92478" lon="5.18398">
        <ele>1011.4169921875</ele>
        <time>2009-10-04T13:36:45Z</time>
      </trkpt>
      <trkpt lat="44.92533" lon="5.18434">
        <ele>1015.9749755859</ele>
        <time>2009-10-04T13:37:03Z</time>
      </trkpt>
      <trkpt lat="44.92582" lon="5.18464">
        <ele>1020.4450073242</ele>
        <time>2009-10-04T13:37:19Z</time>
      </trkpt>
      <trkpt lat="44.92635" lon="5.18493">
        <ele>1024.7440185547</ele>
        <time>2009-10-04T13:37:36Z</time>
      </trkpt>
      <trkpt lat="44.92641" lon="5.18497">
        <ele>1025.5570068359</ele>
        <time>2009-10-04T13:37:38Z</time>
      </trkpt>
      <trkpt lat="44.9263" lon="5.18501">
        <ele>1026.9069824219</ele>
        <time>2009-10-04T13:37:45Z</time>
      </trkpt>
      <trkpt lat="44.92613" lon="5.18494">
        <ele>1028.1280517578</ele>
        <time>2009-10-04T13:37:50Z</time>
      </trkpt>
      <trkpt lat="44.92594" lon="5.18487">
        <ele>1029.4100341797</ele>
        <time>2009-10-04T13:37:55Z</time>
      </trkpt>
      <trkpt lat="44.92559" lon="5.18476">
        <ele>1031.5780029297</ele>
        <time>2009-10-04T13:38:04Z</time>
      </trkpt>
      <trkpt lat="44.92505" lon="5.1846">
        <ele>1035.1729736328</ele>
        <time>2009-10-04T13:38:18Z</time>
      </trkpt>
      <trkpt lat="44.92453" lon="5.18446">
        <ele>1038.625</ele>
        <time>2009-10-04T13:38:32Z</time>
      </trkpt>
      <trkpt lat="44.92386" lon="5.18434">
        <ele>1043.2449951172</ele>
        <time>2009-10-04T13:38:50Z</time>
      </trkpt>
      <trkpt lat="44.92326" lon="5.18433">
        <ele>1047.2600097656</ele>
        <time>2009-10-04T13:39:07Z</time>
      </trkpt>
      <trkpt lat="44.92277" lon="5.18432">
        <ele>1050.75</ele>
        <time>2009-10-04T13:39:22Z</time>
      </trkpt>
      <trkpt lat="44.92232" lon="5.18426">
        <ele>1054.9189453125</ele>
        <time>2009-10-04T13:39:37Z</time>
      </trkpt>
      <trkpt lat="44.9223" lon="5.18425">
        <ele>1055.2199707031</ele>
        <time>2009-10-04T13:39:38Z</time>
      </trkpt>
      <trkpt lat="44.92231" lon="5.18441">
        <ele>1056.7409667969</ele>
        <time>2009-10-04T13:39:45Z</time>
      </trkpt>
      <trkpt lat="44.92234" lon="5.18442">
        <ele>1056.8499755859</ele>
        <time>2009-10-04T13:39:46Z</time>
      </trkpt>
      <trkpt lat="44.92274" lon="5.18455">
        <ele>1059.3050537109</ele>
        <time>2009-10-04T13:39:58Z</time>
      </trkpt>
      <trkpt lat="44.92341" lon="5.18479">
        <ele>1064.6030273438</ele>
        <time>2009-10-04T13:40:16Z</time>
      </trkpt>
      <trkpt lat="44.92356" lon="5.18483">
        <ele>1066.1610107422</ele>
        <time>2009-10-04T13:40:20Z</time>
      </trkpt>
      <trkpt lat="44.92407" lon="5.18503">
        <ele>1070.5080566406</ele>
        <time>2009-10-04T13:40:35Z</time>
      </trkpt>
      <trkpt lat="44.92453" lon="5.18531">
        <ele>1074.3370361328</ele>
        <time>2009-10-04T13:40:51Z</time>
      </trkpt>
      <trkpt lat="44.92496" lon="5.18546">
        <ele>1077.9229736328</ele>
        <time>2009-10-04T13:41:06Z</time>
      </trkpt>
      <trkpt lat="44.92532" lon="5.18563">
        <ele>1080.8499755859</ele>
        <time>2009-10-04T13:41:18Z</time>
      </trkpt>
      <trkpt lat="44.92571" lon="5.18587">
        <ele>1084.2989501953</ele>
        <time>2009-10-04T13:41:31Z</time>
      </trkpt>
      <trkpt lat="44.92582" lon="5.18594">
        <ele>1085.3620605469</ele>
        <time>2009-10-04T13:41:35Z</time>
      </trkpt>
      <trkpt lat="44.92579" lon="5.18602">
        <ele>1086.75</ele>
        <time>2009-10-04T13:41:40Z</time>
      </trkpt>
      <trkpt lat="44.92527" lon="5.18578">
        <ele>1089.4909667969</ele>
        <time>2009-10-04T13:41:54Z</time>
      </trkpt>
      <trkpt lat="44.9246" lon="5.18572">
        <ele>1095.2469482422</ele>
        <time>2009-10-04T13:42:11Z</time>
      </trkpt>
      <trkpt lat="44.9241" lon="5.18563">
        <ele>1099.5389404297</ele>
        <time>2009-10-04T13:42:25Z</time>
      </trkpt>
      <trkpt lat="44.9235" lon="5.18555">
        <ele>1104.2729492188</ele>
        <time>2009-10-04T13:42:42Z</time>
      </trkpt>
      <trkpt lat="44.92293" lon="5.18555">
        <ele>1108.7189941406</ele>
        <time>2009-10-04T13:42:58Z</time>
      </trkpt>
      <trkpt lat="44.92256" lon="5.18556">
        <ele>1111.4699707031</ele>
        <time>2009-10-04T13:43:09Z</time>
      </trkpt>
      <trkpt lat="44.92211" lon="5.18552">
        <ele>1115.8449707031</ele>
        <time>2009-10-04T13:43:25Z</time>
      </trkpt>
      <trkpt lat="44.92178" lon="5.18538">
        <ele>1118.7840576172</ele>
        <time>2009-10-04T13:43:37Z</time>
      </trkpt>
      <trkpt lat="44.92139" lon="5.18533">
        <ele>1121.0319824219</ele>
        <time>2009-10-04T13:43:50Z</time>
      </trkpt>
      <trkpt lat="44.92086" lon="5.18526">
        <ele>1126.5729980469</ele>
        <time>2009-10-04T13:44:06Z</time>
      </trkpt>
      <trkpt lat="44.92046" lon="5.18523">
        <ele>1129.4439697266</ele>
        <time>2009-10-04T13:44:19Z</time>
      </trkpt>
      <trkpt lat="44.92" lon="5.18513">
        <ele>1133.3509521484</ele>
        <time>2009-10-04T13:44:34Z</time>
      </trkpt>
      <trkpt lat="44.9196" lon="5.18506">
        <ele>1136.6440429688</ele>
        <time>2009-10-04T13:44:48Z</time>
      </trkpt>
      <trkpt lat="44.91934" lon="5.18495">
        <ele>1138.958984375</ele>
        <time>2009-10-04T13:44:57Z</time>
      </trkpt>
      <trkpt lat="44.91923" lon="5.18487">
        <ele>1139.8289794922</ele>
        <time>2009-10-04T13:45:01Z</time>
      </trkpt>
      <trkpt lat="44.91887" lon="5.18456">
        <ele>1142.8149414062</ele>
        <time>2009-10-04T13:45:14Z</time>
      </trkpt>
      <trkpt lat="44.91846" lon="5.18441">
        <ele>1145.7390136719</ele>
        <time>2009-10-04T13:45:26Z</time>
      </trkpt>
      <trkpt lat="44.91832" lon="5.18435">
        <ele>1145.7359619141</ele>
        <time>2009-10-04T13:45:30Z</time>
      </trkpt>
      <trkpt lat="44.91801" lon="5.18418">
        <ele>1143.9599609375</ele>
        <time>2009-10-04T13:45:40Z</time>
      </trkpt>
      <trkpt lat="44.91781" lon="5.18407">
        <ele>1143.9510498047</ele>
        <time>2009-10-04T13:45:47Z</time>
      </trkpt>
      <trkpt lat="44.91753" lon="5.18393">
        <ele>1139.0250244141</ele>
        <time>2009-10-04T13:45:53Z</time>
      </trkpt>
      <trkpt lat="44.91704" lon="5.18372">
        <ele>1135.7840576172</ele>
        <time>2009-10-04T13:46:00Z</time>
      </trkpt>
      <trkpt lat="44.91676" lon="5.18372">
        <ele>1133.916015625</ele>
        <time>2009-10-04T13:46:06Z</time>
      </trkpt>
      <trkpt lat="44.91684" lon="5.18379">
        <ele>1133.6109619141</ele>
        <time>2009-10-04T13:46:08Z</time>
      </trkpt>
      <trkpt lat="44.91722" lon="5.18397">
        <ele>1131.7020263672</ele>
        <time>2009-10-04T13:46:15Z</time>
      </trkpt>
      <trkpt lat="44.91757" lon="5.18425">
        <ele>1130.1860351562</ele>
        <time>2009-10-04T13:46:21Z</time>
      </trkpt>
      <trkpt lat="44.91748" lon="5.18432">
        <ele>1128.5450439453</ele>
        <time>2009-10-04T13:46:26Z</time>
      </trkpt>
      <trkpt lat="44.91663" lon="5.18401">
        <ele>1119.4899902344</ele>
        <time>2009-10-04T13:46:36Z</time>
      </trkpt>
      <trkpt lat="44.91653" lon="5.18397">
        <ele>1118.8270263672</ele>
        <time>2009-10-04T13:46:37Z</time>
      </trkpt>
      <trkpt lat="44.91596" lon="5.18314">
        <ele>1111.8280029297</ele>
        <time>2009-10-04T13:46:45Z</time>
      </trkpt>
      <trkpt lat="44.91591" lon="5.18284">
        <ele>1110.1820068359</ele>
        <time>2009-10-04T13:46:47Z</time>
      </trkpt>
      <trkpt lat="44.91583" lon="5.18207">
        <ele>1106.4499511719</ele>
        <time>2009-10-04T13:46:52Z</time>
      </trkpt>
      <trkpt lat="44.91563" lon="5.18181">
        <ele>1103.7020263672</ele>
        <time>2009-10-04T13:46:56Z</time>
      </trkpt>
      <trkpt lat="44.91549" lon="5.18189">
        <ele>1102.1719970703</ele>
        <time>2009-10-04T13:46:58Z</time>
      </trkpt>
      <trkpt lat="44.9148" lon="5.18247">
        <ele>1096.9010009766</ele>
        <time>2009-10-04T13:47:05Z</time>
      </trkpt>
      <trkpt lat="44.91432" lon="5.1824">
        <ele>1093.2299804688</ele>
        <time>2009-10-04T13:47:10Z</time>
      </trkpt>
      <trkpt lat="44.91417" lon="5.18222">
        <ele>1091.1159667969</ele>
        <time>2009-10-04T13:47:12Z</time>
      </trkpt>
      <trkpt lat="44.9139" lon="5.18258">
        <ele>1087.791015625</ele>
        <time>2009-10-04T13:47:17Z</time>
      </trkpt>
      <trkpt lat="44.91371" lon="5.18354">
        <ele>1082.791015625</ele>
        <time>2009-10-04T13:47:24Z</time>
      </trkpt>
      <trkpt lat="44.91293" lon="5.18486">
        <ele>1073.0529785156</ele>
        <time>2009-10-04T13:47:34Z</time>
      </trkpt>
      <trkpt lat="44.9124" lon="5.18564">
        <ele>1068.0520019531</ele>
        <time>2009-10-04T13:47:40Z</time>
      </trkpt>
      <trkpt lat="44.91225" lon="5.18572">
        <ele>1067.0489501953</ele>
        <time>2009-10-04T13:47:42Z</time>
      </trkpt>
      <trkpt lat="44.91165" lon="5.18557">
        <ele>1060.9899902344</ele>
        <time>2009-10-04T13:47:48Z</time>
      </trkpt>
      <trkpt lat="44.91155" lon="5.18547">
        <ele>1059.9389648438</ele>
        <time>2009-10-04T13:47:49Z</time>
      </trkpt>
      <trkpt lat="44.91072" lon="5.18436">
        <ele>1050.8540039062</ele>
        <time>2009-10-04T13:47:58Z</time>
      </trkpt>
      <trkpt lat="44.91028" lon="5.1839">
        <ele>1046.8850097656</ele>
        <time>2009-10-04T13:48:02Z</time>
      </trkpt>
      <trkpt lat="44.90989" lon="5.18368">
        <ele>1045.1590576172</ele>
        <time>2009-10-04T13:48:05Z</time>
      </trkpt>
      <trkpt lat="44.90966" lon="5.18355">
        <ele>1046.9219970703</ele>
        <time>2009-10-04T13:48:07Z</time>
      </trkpt>
      <trkpt lat="44.90906" lon="5.18341">
        <ele>1051.8020019531</ele>
        <time>2009-10-04T13:48:14Z</time>
      </trkpt>
      <trkpt lat="44.90882" lon="5.18329">
        <ele>1053.833984375</ele>
        <time>2009-10-04T13:48:18Z</time>
      </trkpt>
      <trkpt lat="44.90866" lon="5.1832">
        <ele>1055.0620117188</ele>
        <time>2009-10-04T13:48:21Z</time>
      </trkpt>
      <trkpt lat="44.90852" lon="5.18312">
        <ele>1056.5679931641</ele>
        <time>2009-10-04T13:48:24Z</time>
      </trkpt>
      <trkpt lat="44.90831" lon="5.18301">
        <ele>1058.1080322266</ele>
        <time>2009-10-04T13:48:29Z</time>
      </trkpt>
      <trkpt lat="44.90809" lon="5.18295">
        <ele>1059.3819580078</ele>
        <time>2009-10-04T13:48:34Z</time>
      </trkpt>
      <trkpt lat="44.90794" lon="5.1829">
        <ele>1060.1550292969</ele>
        <time>2009-10-04T13:48:38Z</time>
      </trkpt>
      <trkpt lat="44.90787" lon="5.18284">
        <ele>1060.2130126953</ele>
        <time>2009-10-04T13:48:40Z</time>
      </trkpt>
      <trkpt lat="44.90746" lon="5.18219">
        <ele>1060.3000488281</ele>
        <time>2009-10-04T13:48:52Z</time>
      </trkpt>
      <trkpt lat="44.90707" lon="5.18167">
        <ele>1061.6390380859</ele>
        <time>2009-10-04T13:49:05Z</time>
      </trkpt>
      <trkpt lat="44.9067" lon="5.1813">
        <ele>1059.541015625</ele>
        <time>2009-10-04T13:49:14Z</time>
      </trkpt>
      <trkpt lat="44.90649" lon="5.18103">
        <ele>1059.0539550781</ele>
        <time>2009-10-04T13:49:18Z</time>
      </trkpt>
      <trkpt lat="44.90624" lon="5.18088">
        <ele>1059.4370117188</ele>
        <time>2009-10-04T13:49:23Z</time>
      </trkpt>
      <trkpt lat="44.90599" lon="5.18104">
        <ele>1058.0479736328</ele>
        <time>2009-10-04T13:49:28Z</time>
      </trkpt>
      <trkpt lat="44.90567" lon="5.18123">
        <ele>1057.1379394531</ele>
        <time>2009-10-04T13:49:36Z</time>
      </trkpt>
      <trkpt lat="44.90576" lon="5.1812">
        <ele>1057.2030029297</ele>
        <time>2009-10-04T13:49:44Z</time>
      </trkpt>
      <trkpt lat="44.90599" lon="5.18105">
        <ele>1058.5159912109</ele>
        <time>2009-10-04T13:49:51Z</time>
      </trkpt>
      <trkpt lat="44.9061" lon="5.18095">
        <ele>1059.0040283203</ele>
        <time>2009-10-04T13:49:54Z</time>
      </trkpt>
      <trkpt lat="44.90653" lon="5.18109">
        <ele>1058.45703125</ele>
        <time>2009-10-04T13:50:05Z</time>
      </trkpt>
      <trkpt lat="44.90689" lon="5.18152">
        <ele>1059.7170410156</ele>
        <time>2009-10-04T13:50:14Z</time>
      </trkpt>
      <trkpt lat="44.90694" lon="5.18156">
        <ele>1059.8480224609</ele>
        <time>2009-10-04T13:50:15Z</time>
      </trkpt>
      <trkpt lat="44.90698" lon="5.18161">
        <ele>1060.3070068359</ele>
        <time>2009-10-04T13:50:16Z</time>
      </trkpt>
      <trkpt lat="44.9071" lon="5.18172">
        <ele>1061.2189941406</ele>
        <time>2009-10-04T13:50:19Z</time>
      </trkpt>
      <trkpt lat="44.90717" lon="5.1818">
        <ele>1060.9969482422</ele>
        <time>2009-10-04T13:50:21Z</time>
      </trkpt>
      <trkpt lat="44.90774" lon="5.18265">
        <ele>1059.4110107422</ele>
        <time>2009-10-04T13:50:35Z</time>
      </trkpt>
      <trkpt lat="44.90782" lon="5.1828">
        <ele>1059.2800292969</ele>
        <time>2009-10-04T13:50:37Z</time>
      </trkpt>
      <trkpt lat="44.90802" lon="5.18298">
        <ele>1059.8439941406</ele>
        <time>2009-10-04T13:50:41Z</time>
      </trkpt>
      <trkpt lat="44.90849" lon="5.18317">
        <ele>1056.8669433594</ele>
        <time>2009-10-04T13:50:48Z</time>
      </trkpt>
      <trkpt lat="44.9095" lon="5.18363">
        <ele>1048.8830566406</ele>
        <time>2009-10-04T13:50:59Z</time>
      </trkpt>
      <trkpt lat="44.9098" lon="5.18372">
        <ele>1046.9560546875</ele>
        <time>2009-10-04T13:51:02Z</time>
      </trkpt>
      <trkpt lat="44.90994" lon="5.18376">
        <ele>1046.0880126953</ele>
        <time>2009-10-04T13:51:04Z</time>
      </trkpt>
      <trkpt lat="44.9099" lon="5.18385">
        <ele>1043.8170166016</ele>
        <time>2009-10-04T13:51:09Z</time>
      </trkpt>
      <trkpt lat="44.90964" lon="5.18385">
        <ele>1042.4770507812</ele>
        <time>2009-10-04T13:51:12Z</time>
      </trkpt>
      <trkpt lat="44.90941" lon="5.18438">
        <ele>1038.1020507812</ele>
        <time>2009-10-04T13:51:17Z</time>
      </trkpt>
      <trkpt lat="44.90967" lon="5.18469">
        <ele>1035.8220214844</ele>
        <time>2009-10-04T13:51:20Z</time>
      </trkpt>
      <trkpt lat="44.90991" lon="5.18506">
        <ele>1032.4670410156</ele>
        <time>2009-10-04T13:51:23Z</time>
      </trkpt>
      <trkpt lat="44.9104" lon="5.18658">
        <ele>1023.0130004883</ele>
        <time>2009-10-04T13:51:32Z</time>
      </trkpt>
      <trkpt lat="44.91052" lon="5.18694">
        <ele>1020.8629760742</ele>
        <time>2009-10-04T13:51:34Z</time>
      </trkpt>
      <trkpt lat="44.91091" lon="5.18773">
        <ele>1016.4119873047</ele>
        <time>2009-10-04T13:51:39Z</time>
      </trkpt>
      <trkpt lat="44.9112" lon="5.18797">
        <ele>1014.0419921875</ele>
        <time>2009-10-04T13:51:43Z</time>
      </trkpt>
      <trkpt lat="44.91087" lon="5.18829">
        <ele>1009.8920288086</ele>
        <time>2009-10-04T13:51:48Z</time>
      </trkpt>
      <trkpt lat="44.91076" lon="5.18832">
        <ele>1009.3179931641</ele>
        <time>2009-10-04T13:51:49Z</time>
      </trkpt>
      <trkpt lat="44.9098" lon="5.1888">
        <ele>1001.8950195312</ele>
        <time>2009-10-04T13:51:57Z</time>
      </trkpt>
      <trkpt lat="44.90835" lon="5.18942">
        <ele>990.84100341797</ele>
        <time>2009-10-04T13:52:08Z</time>
      </trkpt>
      <trkpt lat="44.90765" lon="5.18964">
        <ele>985.43701171875</ele>
        <time>2009-10-04T13:52:13Z</time>
      </trkpt>
      <trkpt lat="44.90712" lon="5.18989">
        <ele>980.57397460938</ele>
        <time>2009-10-04T13:52:17Z</time>
      </trkpt>
      <trkpt lat="44.90671" lon="5.19024">
        <ele>977.29901123047</ele>
        <time>2009-10-04T13:52:20Z</time>
      </trkpt>
      <trkpt lat="44.90615" lon="5.19046">
        <ele>974.88598632812</ele>
        <time>2009-10-04T13:52:24Z</time>
      </trkpt>
      <trkpt lat="44.90614" lon="5.19072">
        <ele>972.65899658203</ele>
        <time>2009-10-04T13:52:29Z</time>
      </trkpt>
      <trkpt lat="44.9062" lon="5.19066">
        <ele>972.31500244141</ele>
        <time>2009-10-04T13:52:30Z</time>
      </trkpt>
      <trkpt lat="44.90672" lon="5.19054">
        <ele>967.82800292969</ele>
        <time>2009-10-04T13:52:35Z</time>
      </trkpt>
      <trkpt lat="44.90724" lon="5.19048">
        <ele>963.63201904297</ele>
        <time>2009-10-04T13:52:39Z</time>
      </trkpt>
      <trkpt lat="44.90766" lon="5.19044">
        <ele>960.77001953125</ele>
        <time>2009-10-04T13:52:42Z</time>
      </trkpt>
      <trkpt lat="44.90794" lon="5.19042">
        <ele>958.958984375</ele>
        <time>2009-10-04T13:52:44Z</time>
      </trkpt>
      <trkpt lat="44.90807" lon="5.19042">
        <ele>957.74200439453</ele>
        <time>2009-10-04T13:52:45Z</time>
      </trkpt>
      <trkpt lat="44.90928" lon="5.1904">
        <ele>948.41302490234</ele>
        <time>2009-10-04T13:52:54Z</time>
      </trkpt>
      <trkpt lat="44.91042" lon="5.1906">
        <ele>940.12097167969</ele>
        <time>2009-10-04T13:53:02Z</time>
      </trkpt>
      <trkpt lat="44.9107" lon="5.19068">
        <ele>938.208984375</ele>
        <time>2009-10-04T13:53:04Z</time>
      </trkpt>
      <trkpt lat="44.91098" lon="5.19078">
        <ele>935.21099853516</ele>
        <time>2009-10-04T13:53:06Z</time>
      </trkpt>
      <trkpt lat="44.91144" lon="5.19124">
        <ele>931.43200683594</ele>
        <time>2009-10-04T13:53:10Z</time>
      </trkpt>
      <trkpt lat="44.91207" lon="5.19224">
        <ele>923.94500732422</ele>
        <time>2009-10-04T13:53:17Z</time>
      </trkpt>
      <trkpt lat="44.9122" lon="5.19241">
        <ele>922.69598388672</ele>
        <time>2009-10-04T13:53:19Z</time>
      </trkpt>
      <trkpt lat="44.91211" lon="5.19259">
        <ele>921.37097167969</ele>
        <time>2009-10-04T13:53:25Z</time>
      </trkpt>
      <trkpt lat="44.91206" lon="5.19258">
        <ele>920.93499755859</ele>
        <time>2009-10-04T13:53:26Z</time>
      </trkpt>
      <trkpt lat="44.91183" lon="5.19257">
        <ele>920.32397460938</ele>
        <time>2009-10-04T13:53:30Z</time>
      </trkpt>
      <trkpt lat="44.91089" lon="5.19237">
        <ele>916.85101318359</ele>
        <time>2009-10-04T13:53:42Z</time>
      </trkpt>
      <trkpt lat="44.90975" lon="5.19206">
        <ele>917.26000976562</ele>
        <time>2009-10-04T13:53:55Z</time>
      </trkpt>
      <trkpt lat="44.90903" lon="5.19221">
        <ele>919.98101806641</ele>
        <time>2009-10-04T13:54:06Z</time>
      </trkpt>
      <trkpt lat="44.90834" lon="5.19234">
        <ele>922.27697753906</ele>
        <time>2009-10-04T13:54:16Z</time>
      </trkpt>
      <trkpt lat="44.90799" lon="5.19242">
        <ele>922.93499755859</ele>
        <time>2009-10-04T13:54:21Z</time>
      </trkpt>
      <trkpt lat="44.90755" lon="5.19251">
        <ele>923.33197021484</ele>
        <time>2009-10-04T13:54:27Z</time>
      </trkpt>
      <trkpt lat="44.90673" lon="5.1927">
        <ele>923.76000976562</ele>
        <time>2009-10-04T13:54:38Z</time>
      </trkpt>
      <trkpt lat="44.90536" lon="5.19316">
        <ele>924.89898681641</ele>
        <time>2009-10-04T13:54:56Z</time>
      </trkpt>
      <trkpt lat="44.90419" lon="5.1935">
        <ele>926.45697021484</ele>
        <time>2009-10-04T13:55:12Z</time>
      </trkpt>
      <trkpt lat="44.90368" lon="5.19357">
        <ele>927.14801025391</ele>
        <time>2009-10-04T13:55:20Z</time>
      </trkpt>
      <trkpt lat="44.9027" lon="5.19352">
        <ele>926.89398193359</ele>
        <time>2009-10-04T13:55:34Z</time>
      </trkpt>
      <trkpt lat="44.90229" lon="5.1936">
        <ele>926.77600097656</ele>
        <time>2009-10-04T13:55:39Z</time>
      </trkpt>
      <trkpt lat="44.90118" lon="5.19389">
        <ele>927.38201904297</ele>
        <time>2009-10-04T13:55:53Z</time>
      </trkpt>
      <trkpt lat="44.89999" lon="5.19365">
        <ele>927.9990234375</ele>
        <time>2009-10-04T13:56:08Z</time>
      </trkpt>
      <trkpt lat="44.89837" lon="5.19305">
        <ele>928.56500244141</ele>
        <time>2009-10-04T13:56:28Z</time>
      </trkpt>
      <trkpt lat="44.89669" lon="5.19213">
        <ele>929.26800537109</ele>
        <time>2009-10-04T13:56:48Z</time>
      </trkpt>
      <trkpt lat="44.89507" lon="5.19108">
        <ele>930.39898681641</ele>
        <time>2009-10-04T13:57:09Z</time>
      </trkpt>
      <trkpt lat="44.89334" lon="5.19013">
        <ele>932.97399902344</ele>
        <time>2009-10-04T13:57:32Z</time>
      </trkpt>
      <trkpt lat="44.89183" lon="5.18907">
        <ele>934.76098632812</ele>
        <time>2009-10-04T13:57:54Z</time>
      </trkpt>
      <trkpt lat="44.89062" lon="5.18794">
        <ele>936.53100585938</ele>
        <time>2009-10-04T13:58:13Z</time>
      </trkpt>
      <trkpt lat="44.88912" lon="5.18655">
        <ele>936.90002441406</ele>
        <time>2009-10-04T13:58:35Z</time>
      </trkpt>
      <trkpt lat="44.88779" lon="5.18546">
        <ele>938.45599365234</ele>
        <time>2009-10-04T13:58:53Z</time>
      </trkpt>
      <trkpt lat="44.88719" lon="5.18493">
        <ele>938.59002685547</ele>
        <time>2009-10-04T13:59:02Z</time>
      </trkpt>
      <trkpt lat="44.88712" lon="5.18446">
        <ele>938.86901855469</ele>
        <time>2009-10-04T13:59:07Z</time>
      </trkpt>
      <trkpt lat="44.88731" lon="5.18393">
        <ele>940.20501708984</ele>
        <time>2009-10-04T13:59:13Z</time>
      </trkpt>
      <trkpt lat="44.88738" lon="5.18363">
        <ele>941.35601806641</ele>
        <time>2009-10-04T13:59:17Z</time>
      </trkpt>
      <trkpt lat="44.88737" lon="5.18346">
        <ele>941.31298828125</ele>
        <time>2009-10-04T13:59:19Z</time>
      </trkpt>
      <trkpt lat="44.88734" lon="5.18313">
        <ele>941.98199462891</ele>
        <time>2009-10-04T13:59:23Z</time>
      </trkpt>
      <trkpt lat="44.88699" lon="5.18283">
        <ele>942.7919921875</ele>
        <time>2009-10-04T13:59:30Z</time>
      </trkpt>
      <trkpt lat="44.88691" lon="5.18274">
        <ele>942.88299560547</ele>
        <time>2009-10-04T13:59:32Z</time>
      </trkpt>
      <trkpt lat="44.88642" lon="5.1816">
        <ele>941.30700683594</ele>
        <time>2009-10-04T13:59:46Z</time>
      </trkpt>
      <trkpt lat="44.88578" lon="5.18097">
        <ele>944.18103027344</ele>
        <time>2009-10-04T13:59:59Z</time>
      </trkpt>
      <trkpt lat="44.88517" lon="5.18067">
        <ele>947.06799316406</ele>
        <time>2009-10-04T14:00:11Z</time>
      </trkpt>
      <trkpt lat="44.88472" lon="5.18055">
        <ele>949.25402832031</ele>
        <time>2009-10-04T14:00:20Z</time>
      </trkpt>
      <trkpt lat="44.88396" lon="5.18049">
        <ele>952.67102050781</ele>
        <time>2009-10-04T14:00:35Z</time>
      </trkpt>
      <trkpt lat="44.88358" lon="5.18048">
        <ele>954.2919921875</ele>
        <time>2009-10-04T14:00:43Z</time>
      </trkpt>
      <trkpt lat="44.88335" lon="5.18048">
        <ele>955.33801269531</ele>
        <time>2009-10-04T14:00:48Z</time>
      </trkpt>
      <trkpt lat="44.88327" lon="5.18048">
        <ele>955.90899658203</ele>
        <time>2009-10-04T14:00:50Z</time>
      </trkpt>
      <trkpt lat="44.88337" lon="5.18033">
        <ele>956.88299560547</ele>
        <time>2009-10-04T14:00:56Z</time>
      </trkpt>
      <trkpt lat="44.88348" lon="5.18031">
        <ele>957.80700683594</ele>
        <time>2009-10-04T14:00:58Z</time>
      </trkpt>
      <trkpt lat="44.88401" lon="5.18012">
        <ele>961.083984375</ele>
        <time>2009-10-04T14:01:08Z</time>
      </trkpt>
      <trkpt lat="44.88451" lon="5.17995">
        <ele>964.70397949219</ele>
        <time>2009-10-04T14:01:22Z</time>
      </trkpt>
      <trkpt lat="44.88453" lon="5.17996">
        <ele>964.98498535156</ele>
        <time>2009-10-04T14:01:25Z</time>
      </trkpt>
      <trkpt lat="44.88458" lon="5.17993">
        <ele>965.16998291016</ele>
        <time>2009-10-04T14:01:42Z</time>
      </trkpt>
      <trkpt lat="44.88462" lon="5.17992">
        <ele>965.21398925781</ele>
        <time>2009-10-04T14:01:44Z</time>
      </trkpt>
      <trkpt lat="44.88506" lon="5.17968">
        <ele>969.05401611328</ele>
        <time>2009-10-04T14:02:00Z</time>
      </trkpt>
      <trkpt lat="44.88558" lon="5.17932">
        <ele>973.26397705078</ele>
        <time>2009-10-04T14:02:18Z</time>
      </trkpt>
      <trkpt lat="44.88594" lon="5.1789">
        <ele>977.77001953125</ele>
        <time>2009-10-04T14:02:34Z</time>
      </trkpt>
      <trkpt lat="44.88566" lon="5.17866">
        <ele>979.92700195312</ele>
        <time>2009-10-04T14:02:44Z</time>
      </trkpt>
      <trkpt lat="44.88509" lon="5.17831">
        <ele>984.53900146484</ele>
        <time>2009-10-04T14:03:01Z</time>
      </trkpt>
      <trkpt lat="44.88476" lon="5.17767">
        <ele>987.55999755859</ele>
        <time>2009-10-04T14:03:16Z</time>
      </trkpt>
      <trkpt lat="44.88498" lon="5.17728">
        <ele>989.86499023438</ele>
        <time>2009-10-04T14:03:25Z</time>
      </trkpt>
      <trkpt lat="44.88541" lon="5.17697">
        <ele>994.51599121094</ele>
        <time>2009-10-04T14:03:40Z</time>
      </trkpt>
      <trkpt lat="44.88556" lon="5.17641">
        <ele>998.20300292969</ele>
        <time>2009-10-04T14:03:55Z</time>
      </trkpt>
      <trkpt lat="44.88566" lon="5.17589">
        <ele>1000.8029785156</ele>
        <time>2009-10-04T14:04:08Z</time>
      </trkpt>
      <trkpt lat="44.88596" lon="5.17546">
        <ele>1005.1119995117</ele>
        <time>2009-10-04T14:04:24Z</time>
      </trkpt>
      <trkpt lat="44.88603" lon="5.17509">
        <ele>1007.6010131836</ele>
        <time>2009-10-04T14:04:36Z</time>
      </trkpt>
      <trkpt lat="44.88567" lon="5.17486">
        <ele>1010.3549804688</ele>
        <time>2009-10-04T14:04:49Z</time>
      </trkpt>
      <trkpt lat="44.88534" lon="5.17439">
        <ele>1014.2210083008</ele>
        <time>2009-10-04T14:05:04Z</time>
      </trkpt>
      <trkpt lat="44.88528" lon="5.17354">
        <ele>1016.4359741211</ele>
        <time>2009-10-04T14:05:20Z</time>
      </trkpt>
      <trkpt lat="44.88548" lon="5.17235">
        <ele>1016.6890258789</ele>
        <time>2009-10-04T14:05:35Z</time>
      </trkpt>
      <trkpt lat="44.88578" lon="5.17134">
        <ele>1019.8640136719</ele>
        <time>2009-10-04T14:05:50Z</time>
      </trkpt>
      <trkpt lat="44.88607" lon="5.17042">
        <ele>1023.5650024414</ele>
        <time>2009-10-04T14:06:08Z</time>
      </trkpt>
      <trkpt lat="44.88611" lon="5.16945">
        <ele>1027.6870117188</ele>
        <time>2009-10-04T14:06:28Z</time>
      </trkpt>
      <trkpt lat="44.88609" lon="5.1687">
        <ele>1031.6459960938</ele>
        <time>2009-10-04T14:06:45Z</time>
      </trkpt>
      <trkpt lat="44.88601" lon="5.16835">
        <ele>1033.6650390625</ele>
        <time>2009-10-04T14:06:54Z</time>
      </trkpt>
      <trkpt lat="44.88572" lon="5.16777">
        <ele>1037.6590576172</ele>
        <time>2009-10-04T14:07:11Z</time>
      </trkpt>
      <trkpt lat="44.88535" lon="5.16699">
        <ele>1041.4429931641</ele>
        <time>2009-10-04T14:07:30Z</time>
      </trkpt>
      <trkpt lat="44.88537" lon="5.16634">
        <ele>1044.4770507812</ele>
        <time>2009-10-04T14:07:45Z</time>
      </trkpt>
      <trkpt lat="44.88562" lon="5.16573">
        <ele>1049.1369628906</ele>
        <time>2009-10-04T14:08:03Z</time>
      </trkpt>
      <trkpt lat="44.88597" lon="5.1652">
        <ele>1053.0870361328</ele>
        <time>2009-10-04T14:08:21Z</time>
      </trkpt>
      <trkpt lat="44.88622" lon="5.16444">
        <ele>1057.9279785156</ele>
        <time>2009-10-04T14:08:39Z</time>
      </trkpt>
      <trkpt lat="44.88622" lon="5.16352">
        <ele>1062.5670166016</ele>
        <time>2009-10-04T14:08:59Z</time>
      </trkpt>
      <trkpt lat="44.88634" lon="5.16274">
        <ele>1067.333984375</ele>
        <time>2009-10-04T14:09:18Z</time>
      </trkpt>
      <trkpt lat="44.88635" lon="5.16205">
        <ele>1071.5329589844</ele>
        <time>2009-10-04T14:09:36Z</time>
      </trkpt>
      <trkpt lat="44.88608" lon="5.16142">
        <ele>1075.3709716797</ele>
        <time>2009-10-04T14:09:53Z</time>
      </trkpt>
      <trkpt lat="44.88578" lon="5.16073">
        <ele>1079.5009765625</ele>
        <time>2009-10-04T14:10:11Z</time>
      </trkpt>
      <trkpt lat="44.88596" lon="5.16034">
        <ele>1082.2099609375</ele>
        <time>2009-10-04T14:10:21Z</time>
      </trkpt>
      <trkpt lat="44.88601" lon="5.16026">
        <ele>1082.1650390625</ele>
        <time>2009-10-04T14:10:23Z</time>
      </trkpt>
      <trkpt lat="44.88609" lon="5.16012">
        <ele>1082.4840087891</ele>
        <time>2009-10-04T14:10:26Z</time>
      </trkpt>
      <trkpt lat="44.88655" lon="5.15913">
        <ele>1085.1120605469</ele>
        <time>2009-10-04T14:10:43Z</time>
      </trkpt>
      <trkpt lat="44.88698" lon="5.1581">
        <ele>1085.4250488281</ele>
        <time>2009-10-04T14:10:59Z</time>
      </trkpt>
      <trkpt lat="44.8871" lon="5.15794">
        <ele>1084.3310546875</ele>
        <time>2009-10-04T14:11:02Z</time>
      </trkpt>
      <trkpt lat="44.88715" lon="5.15792">
        <ele>1084.0529785156</ele>
        <time>2009-10-04T14:11:07Z</time>
      </trkpt>
      <trkpt lat="44.88718" lon="5.15785">
        <ele>1083.8979492188</ele>
        <time>2009-10-04T14:11:48Z</time>
      </trkpt>
      <trkpt lat="44.88718" lon="5.15785">
        <ele>1084.7509765625</ele>
        <time>2009-10-04T14:11:49Z</time>
      </trkpt>
      <trkpt lat="44.88716" lon="5.15776">
        <ele>1083.3389892578</ele>
        <time>2009-10-04T14:12:23Z</time>
      </trkpt>
      <trkpt lat="44.8872" lon="5.15765">
        <ele>1082.7380371094</ele>
        <time>2009-10-04T14:12:25Z</time>
      </trkpt>
      <trkpt lat="44.88731" lon="5.15695">
        <ele>1079.0739746094</ele>
        <time>2009-10-04T14:12:33Z</time>
      </trkpt>
      <trkpt lat="44.88755" lon="5.15643">
        <ele>1075.3609619141</ele>
        <time>2009-10-04T14:12:38Z</time>
      </trkpt>
      <trkpt lat="44.88783" lon="5.15581">
        <ele>1070.7030029297</ele>
        <time>2009-10-04T14:12:43Z</time>
      </trkpt>
      <trkpt lat="44.88796" lon="5.15502">
        <ele>1065.5250244141</ele>
        <time>2009-10-04T14:12:48Z</time>
      </trkpt>
      <trkpt lat="44.88808" lon="5.15472">
        <ele>1063.4670410156</ele>
        <time>2009-10-04T14:12:50Z</time>
      </trkpt>
      <trkpt lat="44.88861" lon="5.1539">
        <ele>1057.7130126953</ele>
        <time>2009-10-04T14:12:56Z</time>
      </trkpt>
      <trkpt lat="44.88873" lon="5.15331">
        <ele>1053.9949951172</ele>
        <time>2009-10-04T14:12:59Z</time>
      </trkpt>
      <trkpt lat="44.88892" lon="5.1522">
        <ele>1047.1009521484</ele>
        <time>2009-10-04T14:13:05Z</time>
      </trkpt>
      <trkpt lat="44.88902" lon="5.15165">
        <ele>1044.4730224609</ele>
        <time>2009-10-04T14:13:08Z</time>
      </trkpt>
      <trkpt lat="44.88917" lon="5.1504">
        <ele>1041.3299560547</ele>
        <time>2009-10-04T14:13:15Z</time>
      </trkpt>
      <trkpt lat="44.88929" lon="5.1495">
        <ele>1038.0570068359</ele>
        <time>2009-10-04T14:13:20Z</time>
      </trkpt>
      <trkpt lat="44.88935" lon="5.14915">
        <ele>1037.1009521484</ele>
        <time>2009-10-04T14:13:22Z</time>
      </trkpt>
      <trkpt lat="44.88978" lon="5.14819">
        <ele>1037.8509521484</ele>
        <time>2009-10-04T14:13:29Z</time>
      </trkpt>
      <trkpt lat="44.88997" lon="5.1475">
        <ele>1037.2020263672</ele>
        <time>2009-10-04T14:13:34Z</time>
      </trkpt>
      <trkpt lat="44.89015" lon="5.1468">
        <ele>1035.3740234375</ele>
        <time>2009-10-04T14:13:39Z</time>
      </trkpt>
      <trkpt lat="44.89027" lon="5.14557">
        <ele>1034.3909912109</ele>
        <time>2009-10-04T14:13:47Z</time>
      </trkpt>
      <trkpt lat="44.89029" lon="5.14528">
        <ele>1034.8270263672</ele>
        <time>2009-10-04T14:13:49Z</time>
      </trkpt>
      <trkpt lat="44.89022" lon="5.14485">
        <ele>1033.1850585938</ele>
        <time>2009-10-04T14:13:52Z</time>
      </trkpt>
      <trkpt lat="44.8898" lon="5.14463">
        <ele>1029.4410400391</ele>
        <time>2009-10-04T14:13:56Z</time>
      </trkpt>
      <trkpt lat="44.88959" lon="5.14446">
        <ele>1027.1390380859</ele>
        <time>2009-10-04T14:13:58Z</time>
      </trkpt>
      <trkpt lat="44.88893" lon="5.14389">
        <ele>1021.208984375</ele>
        <time>2009-10-04T14:14:04Z</time>
      </trkpt>
      <trkpt lat="44.88822" lon="5.14395">
        <ele>1015.7390136719</ele>
        <time>2009-10-04T14:14:09Z</time>
      </trkpt>
      <trkpt lat="44.88744" lon="5.14353">
        <ele>1009.7470092773</ele>
        <time>2009-10-04T14:14:15Z</time>
      </trkpt>
      <trkpt lat="44.88724" lon="5.14344">
        <ele>1008.5059814453</ele>
        <time>2009-10-04T14:14:17Z</time>
      </trkpt>
      <trkpt lat="44.88686" lon="5.14314">
        <ele>1006.7579956055</ele>
        <time>2009-10-04T14:14:24Z</time>
      </trkpt>
      <trkpt lat="44.88681" lon="5.14309">
        <ele>1006.4600219727</ele>
        <time>2009-10-04T14:14:25Z</time>
      </trkpt>
      <trkpt lat="44.88664" lon="5.14285">
        <ele>1004.9849853516</ele>
        <time>2009-10-04T14:14:28Z</time>
      </trkpt>
      <trkpt lat="44.88619" lon="5.14252">
        <ele>999.98498535156</ele>
        <time>2009-10-04T14:14:33Z</time>
      </trkpt>
      <trkpt lat="44.88548" lon="5.14227">
        <ele>993.01800537109</ele>
        <time>2009-10-04T14:14:39Z</time>
      </trkpt>
      <trkpt lat="44.88509" lon="5.14239">
        <ele>991.34997558594</ele>
        <time>2009-10-04T14:14:42Z</time>
      </trkpt>
      <trkpt lat="44.8846" lon="5.14267">
        <ele>984.65899658203</ele>
        <time>2009-10-04T14:14:46Z</time>
      </trkpt>
      <trkpt lat="44.88433" lon="5.14279">
        <ele>982.39001464844</ele>
        <time>2009-10-04T14:14:48Z</time>
      </trkpt>
      <trkpt lat="44.88363" lon="5.14259">
        <ele>988.05401611328</ele>
        <time>2009-10-04T14:14:54Z</time>
      </trkpt>
      <trkpt lat="44.88317" lon="5.14243">
        <ele>993.59899902344</ele>
        <time>2009-10-04T14:15:01Z</time>
      </trkpt>
      <trkpt lat="44.88311" lon="5.14242">
        <ele>993.74700927734</ele>
        <time>2009-10-04T14:15:02Z</time>
      </trkpt>
      <trkpt lat="44.88271" lon="5.14215">
        <ele>996.88500976562</ele>
        <time>2009-10-04T14:15:11Z</time>
      </trkpt>
      <trkpt lat="44.88245" lon="5.14201">
        <ele>997.18798828125</ele>
        <time>2009-10-04T14:15:16Z</time>
      </trkpt>
      <trkpt lat="44.88156" lon="5.1421">
        <ele>999.0009765625</ele>
        <time>2009-10-04T14:15:31Z</time>
      </trkpt>
      <trkpt lat="44.88138" lon="5.14215">
        <ele>998.42401123047</ele>
        <time>2009-10-04T14:15:34Z</time>
      </trkpt>
      <trkpt lat="44.88109" lon="5.14266">
        <ele>994.17999267578</ele>
        <time>2009-10-04T14:15:41Z</time>
      </trkpt>
      <trkpt lat="44.88127" lon="5.14329">
        <ele>988.75598144531</ele>
        <time>2009-10-04T14:15:46Z</time>
      </trkpt>
      <trkpt lat="44.88131" lon="5.14396">
        <ele>984.76898193359</ele>
        <time>2009-10-04T14:15:52Z</time>
      </trkpt>
      <trkpt lat="44.88085" lon="5.14378">
        <ele>978.72802734375</ele>
        <time>2009-10-04T14:15:56Z</time>
      </trkpt>
      <trkpt lat="44.88043" lon="5.14344">
        <ele>977.18200683594</ele>
        <time>2009-10-04T14:16:00Z</time>
      </trkpt>
      <trkpt lat="44.87992" lon="5.14364">
        <ele>976.29998779297</ele>
        <time>2009-10-04T14:16:05Z</time>
      </trkpt>
      <trkpt lat="44.87962" lon="5.14408">
        <ele>976.23901367188</ele>
        <time>2009-10-04T14:16:09Z</time>
      </trkpt>
      <trkpt lat="44.87929" lon="5.14435">
        <ele>977.97302246094</ele>
        <time>2009-10-04T14:16:13Z</time>
      </trkpt>
      <trkpt lat="44.87912" lon="5.14439">
        <ele>978.79901123047</ele>
        <time>2009-10-04T14:16:15Z</time>
      </trkpt>
      <trkpt lat="44.87896" lon="5.14437">
        <ele>979.79602050781</ele>
        <time>2009-10-04T14:16:17Z</time>
      </trkpt>
      <trkpt lat="44.8789" lon="5.14435">
        <ele>980.47802734375</ele>
        <time>2009-10-04T14:16:18Z</time>
      </trkpt>
      <trkpt lat="44.87883" lon="5.14432">
        <ele>981.416015625</ele>
        <time>2009-10-04T14:16:19Z</time>
      </trkpt>
      <trkpt lat="44.87825" lon="5.14409">
        <ele>984.20697021484</ele>
        <time>2009-10-04T14:16:29Z</time>
      </trkpt>
      <trkpt lat="44.87814" lon="5.14406">
        <ele>984.85601806641</ele>
        <time>2009-10-04T14:16:31Z</time>
      </trkpt>
      <trkpt lat="44.87783" lon="5.14403">
        <ele>987.20697021484</ele>
        <time>2009-10-04T14:16:37Z</time>
      </trkpt>
      <trkpt lat="44.87779" lon="5.14403">
        <ele>987.52697753906</ele>
        <time>2009-10-04T14:16:38Z</time>
      </trkpt>
      <trkpt lat="44.87767" lon="5.14398">
        <ele>988.80401611328</ele>
        <time>2009-10-04T14:16:41Z</time>
      </trkpt>
      <trkpt lat="44.87749" lon="5.14387">
        <ele>990.89697265625</ele>
        <time>2009-10-04T14:16:47Z</time>
      </trkpt>
      <trkpt lat="44.87714" lon="5.14369">
        <ele>994.08502197266</ele>
        <time>2009-10-04T14:16:59Z</time>
      </trkpt>
      <trkpt lat="44.87672" lon="5.14356">
        <ele>997.43298339844</ele>
        <time>2009-10-04T14:17:12Z</time>
      </trkpt>
      <trkpt lat="44.87634" lon="5.14299">
        <ele>998.26300048828</ele>
        <time>2009-10-04T14:17:26Z</time>
      </trkpt>
      <trkpt lat="44.87618" lon="5.14266">
        <ele>995.90997314453</ele>
        <time>2009-10-04T14:17:30Z</time>
      </trkpt>
      <trkpt lat="44.87607" lon="5.14197">
        <ele>992.72100830078</ele>
        <time>2009-10-04T14:17:36Z</time>
      </trkpt>
      <trkpt lat="44.87609" lon="5.14173">
        <ele>991.92297363281</ele>
        <time>2009-10-04T14:17:38Z</time>
      </trkpt>
      <trkpt lat="44.87615" lon="5.14131">
        <ele>987.16302490234</ele>
        <time>2009-10-04T14:17:41Z</time>
      </trkpt>
      <trkpt lat="44.87603" lon="5.14049">
        <ele>979.50500488281</ele>
        <time>2009-10-04T14:17:46Z</time>
      </trkpt>
      <trkpt lat="44.8756" lon="5.14015">
        <ele>974.78302001953</ele>
        <time>2009-10-04T14:17:50Z</time>
      </trkpt>
      <trkpt lat="44.87546" lon="5.14013">
        <ele>972.77801513672</ele>
        <time>2009-10-04T14:17:51Z</time>
      </trkpt>
      <trkpt lat="44.87458" lon="5.14">
        <ele>961.50500488281</ele>
        <time>2009-10-04T14:17:57Z</time>
      </trkpt>
      <trkpt lat="44.87417" lon="5.13981">
        <ele>957.12799072266</ele>
        <time>2009-10-04T14:18:00Z</time>
      </trkpt>
      <trkpt lat="44.87375" lon="5.1393">
        <ele>951.21502685547</ele>
        <time>2009-10-04T14:18:04Z</time>
      </trkpt>
      <trkpt lat="44.87345" lon="5.13889">
        <ele>949.21398925781</ele>
        <time>2009-10-04T14:18:07Z</time>
      </trkpt>
      <trkpt lat="44.8732" lon="5.1387">
        <ele>947.21899414062</ele>
        <time>2009-10-04T14:18:09Z</time>
      </trkpt>
      <trkpt lat="44.87265" lon="5.13855">
        <ele>940.51397705078</ele>
        <time>2009-10-04T14:18:13Z</time>
      </trkpt>
      <trkpt lat="44.87237" lon="5.13855">
        <ele>935.93200683594</ele>
        <time>2009-10-04T14:18:15Z</time>
      </trkpt>
      <trkpt lat="44.87178" lon="5.13806">
        <ele>931.87701416016</ele>
        <time>2009-10-04T14:18:21Z</time>
      </trkpt>
      <trkpt lat="44.87164" lon="5.13781">
        <ele>930.35400390625</ele>
        <time>2009-10-04T14:18:23Z</time>
      </trkpt>
      <trkpt lat="44.8709" lon="5.13633">
        <ele>920.61297607422</ele>
        <time>2009-10-04T14:18:33Z</time>
      </trkpt>
      <trkpt lat="44.87081" lon="5.1362">
        <ele>920.25299072266</ele>
        <time>2009-10-04T14:18:34Z</time>
      </trkpt>
      <trkpt lat="44.87038" lon="5.13583">
        <ele>917.84997558594</ele>
        <time>2009-10-04T14:18:38Z</time>
      </trkpt>
      <trkpt lat="44.86961" lon="5.13544">
        <ele>906.88897705078</ele>
        <time>2009-10-04T14:18:44Z</time>
      </trkpt>
      <trkpt lat="44.86898" lon="5.13514">
        <ele>896.75897216797</ele>
        <time>2009-10-04T14:18:48Z</time>
      </trkpt>
      <trkpt lat="44.86852" lon="5.1348">
        <ele>889.66400146484</ele>
        <time>2009-10-04T14:18:51Z</time>
      </trkpt>
      <trkpt lat="44.86749" lon="5.13321">
        <ele>878.50402832031</ele>
        <time>2009-10-04T14:19:00Z</time>
      </trkpt>
      <trkpt lat="44.86638" lon="5.13223">
        <ele>875.37097167969</ele>
        <time>2009-10-04T14:19:09Z</time>
      </trkpt>
      <trkpt lat="44.86552" lon="5.1313">
        <ele>871.76000976562</ele>
        <time>2009-10-04T14:19:18Z</time>
      </trkpt>
      <trkpt lat="44.86528" lon="5.13092">
        <ele>869.39501953125</ele>
        <time>2009-10-04T14:19:21Z</time>
      </trkpt>
      <trkpt lat="44.86518" lon="5.1308">
        <ele>868.52600097656</ele>
        <time>2009-10-04T14:19:22Z</time>
      </trkpt>
      <trkpt lat="44.86457" lon="5.13031">
        <ele>866.57098388672</ele>
        <time>2009-10-04T14:19:28Z</time>
      </trkpt>
      <trkpt lat="44.86423" lon="5.12994">
        <ele>866.83801269531</ele>
        <time>2009-10-04T14:19:32Z</time>
      </trkpt>
      <trkpt lat="44.86401" lon="5.12955">
        <ele>868.81896972656</ele>
        <time>2009-10-04T14:19:36Z</time>
      </trkpt>
      <trkpt lat="44.8638" lon="5.12932">
        <ele>871.05499267578</ele>
        <time>2009-10-04T14:19:40Z</time>
      </trkpt>
      <trkpt lat="44.86358" lon="5.12918">
        <ele>871.76098632812</ele>
        <time>2009-10-04T14:19:44Z</time>
      </trkpt>
      <trkpt lat="44.86341" lon="5.12909">
        <ele>871.77502441406</ele>
        <time>2009-10-04T14:19:47Z</time>
      </trkpt>
      <trkpt lat="44.86329" lon="5.12901">
        <ele>871.76000976562</ele>
        <time>2009-10-04T14:19:49Z</time>
      </trkpt>
      <trkpt lat="44.86259" lon="5.12845">
        <ele>873.06597900391</ele>
        <time>2009-10-04T14:20:01Z</time>
      </trkpt>
      <trkpt lat="44.86221" lon="5.12835">
        <ele>871.14898681641</ele>
        <time>2009-10-04T14:20:06Z</time>
      </trkpt>
      <trkpt lat="44.86213" lon="5.12834">
        <ele>870.84802246094</ele>
        <time>2009-10-04T14:20:07Z</time>
      </trkpt>
      <trkpt lat="44.86168" lon="5.12827">
        <ele>868.34197998047</ele>
        <time>2009-10-04T14:20:12Z</time>
      </trkpt>
      <trkpt lat="44.86107" lon="5.12819">
        <ele>869.47302246094</ele>
        <time>2009-10-04T14:20:19Z</time>
      </trkpt>
      <trkpt lat="44.86089" lon="5.12817">
        <ele>871.04302978516</ele>
        <time>2009-10-04T14:20:22Z</time>
      </trkpt>
      <trkpt lat="44.8605" lon="5.12811">
        <ele>875.14300537109</ele>
        <time>2009-10-04T14:20:32Z</time>
      </trkpt>
      <trkpt lat="44.86017" lon="5.12804">
        <ele>877.25799560547</ele>
        <time>2009-10-04T14:20:41Z</time>
      </trkpt>
      <trkpt lat="44.85995" lon="5.12798">
        <ele>878.26000976562</ele>
        <time>2009-10-04T14:20:46Z</time>
      </trkpt>
      <trkpt lat="44.85944" lon="5.12777">
        <ele>880.30603027344</ele>
        <time>2009-10-04T14:20:57Z</time>
      </trkpt>
      <trkpt lat="44.85925" lon="5.1277">
        <ele>881.23602294922</ele>
        <time>2009-10-04T14:21:01Z</time>
      </trkpt>
      <trkpt lat="44.85892" lon="5.12753">
        <ele>881.64001464844</ele>
        <time>2009-10-04T14:21:08Z</time>
      </trkpt>
      <trkpt lat="44.85883" lon="5.12746">
        <ele>881.67297363281</ele>
        <time>2009-10-04T14:21:10Z</time>
      </trkpt>
      <trkpt lat="44.85818" lon="5.12717">
        <ele>878.37902832031</ele>
        <time>2009-10-04T14:21:21Z</time>
      </trkpt>
      <trkpt lat="44.8581" lon="5.12716">
        <ele>877.86602783203</ele>
        <time>2009-10-04T14:21:22Z</time>
      </trkpt>
      <trkpt lat="44.8577" lon="5.12718">
        <ele>874.12701416016</ele>
        <time>2009-10-04T14:21:26Z</time>
      </trkpt>
      <trkpt lat="44.85738" lon="5.12713">
        <ele>872.50500488281</ele>
        <time>2009-10-04T14:21:29Z</time>
      </trkpt>
      <trkpt lat="44.85708" lon="5.12702">
        <ele>872.42797851562</ele>
        <time>2009-10-04T14:21:32Z</time>
      </trkpt>
      <trkpt lat="44.85698" lon="5.12698">
        <ele>872.41802978516</ele>
        <time>2009-10-04T14:21:33Z</time>
      </trkpt>
      <trkpt lat="44.85645" lon="5.12686">
        <ele>872.88702392578</ele>
        <time>2009-10-04T14:21:39Z</time>
      </trkpt>
      <trkpt lat="44.85621" lon="5.12682">
        <ele>873.14599609375</ele>
        <time>2009-10-04T14:21:42Z</time>
      </trkpt>
      <trkpt lat="44.85507" lon="5.12659">
        <ele>875.97998046875</ele>
        <time>2009-10-04T14:21:58Z</time>
      </trkpt>
      <trkpt lat="44.85474" lon="5.12655">
        <ele>876.50299072266</ele>
        <time>2009-10-04T14:22:03Z</time>
      </trkpt>
      <trkpt lat="44.85453" lon="5.12652">
        <ele>878.55499267578</ele>
        <time>2009-10-04T14:22:07Z</time>
      </trkpt>
      <trkpt lat="44.85435" lon="5.12645">
        <ele>880.77697753906</ele>
        <time>2009-10-04T14:22:12Z</time>
      </trkpt>
      <trkpt lat="44.85415" lon="5.12637">
        <ele>882.80200195312</ele>
        <time>2009-10-04T14:22:18Z</time>
      </trkpt>
      <trkpt lat="44.85398" lon="5.12631">
        <ele>883.97198486328</ele>
        <time>2009-10-04T14:22:23Z</time>
      </trkpt>
      <trkpt lat="44.85373" lon="5.12624">
        <ele>885.48199462891</ele>
        <time>2009-10-04T14:22:30Z</time>
      </trkpt>
      <trkpt lat="44.85352" lon="5.12618">
        <ele>886.06402587891</ele>
        <time>2009-10-04T14:22:35Z</time>
      </trkpt>
      <trkpt lat="44.85339" lon="5.12615">
        <ele>886.55499267578</ele>
        <time>2009-10-04T14:22:38Z</time>
      </trkpt>
      <trkpt lat="44.85262" lon="5.12603">
        <ele>889.54400634766</ele>
        <time>2009-10-04T14:22:54Z</time>
      </trkpt>
      <trkpt lat="44.85208" lon="5.12592">
        <ele>893.00701904297</ele>
        <time>2009-10-04T14:23:07Z</time>
      </trkpt>
      <trkpt lat="44.85172" lon="5.12596">
        <ele>894.90802001953</ele>
        <time>2009-10-04T14:23:15Z</time>
      </trkpt>
      <trkpt lat="44.85118" lon="5.12625">
        <ele>898.93902587891</ele>
        <time>2009-10-04T14:23:30Z</time>
      </trkpt>
      <trkpt lat="44.85058" lon="5.12654">
        <ele>901.91802978516</ele>
        <time>2009-10-04T14:23:45Z</time>
      </trkpt>
      <trkpt lat="44.85054" lon="5.12656">
        <ele>902.20599365234</ele>
        <time>2009-10-04T14:23:46Z</time>
      </trkpt>
      <trkpt lat="44.8504" lon="5.12659">
        <ele>902.07000732422</ele>
        <time>2009-10-04T14:23:49Z</time>
      </trkpt>
      <trkpt lat="44.8502" lon="5.12656">
        <ele>902.98297119141</ele>
        <time>2009-10-04T14:23:53Z</time>
      </trkpt>
      <trkpt lat="44.8497" lon="5.12619">
        <ele>904.12701416016</ele>
        <time>2009-10-04T14:24:04Z</time>
      </trkpt>
      <trkpt lat="44.8496" lon="5.1261">
        <ele>903.69299316406</ele>
        <time>2009-10-04T14:24:06Z</time>
      </trkpt>
      <trkpt lat="44.84949" lon="5.12597">
        <ele>903.31298828125</ele>
        <time>2009-10-04T14:24:08Z</time>
      </trkpt>
      <trkpt lat="44.84889" lon="5.12492">
        <ele>901.82202148438</ele>
        <time>2009-10-04T14:24:21Z</time>
      </trkpt>
      <trkpt lat="44.84859" lon="5.12436">
        <ele>900.34301757812</ele>
        <time>2009-10-04T14:24:27Z</time>
      </trkpt>
      <trkpt lat="44.8484" lon="5.12408">
        <ele>898.90802001953</ele>
        <time>2009-10-04T14:24:30Z</time>
      </trkpt>
      <trkpt lat="44.84833" lon="5.12399">
        <ele>898.11999511719</ele>
        <time>2009-10-04T14:24:31Z</time>
      </trkpt>
      <trkpt lat="44.84744" lon="5.12319">
        <ele>898.04602050781</ele>
        <time>2009-10-04T14:24:42Z</time>
      </trkpt>
      <trkpt lat="44.84627" lon="5.12256">
        <ele>900.08801269531</ele>
        <time>2009-10-04T14:24:58Z</time>
      </trkpt>
      <trkpt lat="44.84613" lon="5.12245">
        <ele>900.37902832031</ele>
        <time>2009-10-04T14:25:00Z</time>
      </trkpt>
      <trkpt lat="44.84597" lon="5.12224">
        <ele>901.61401367188</ele>
        <time>2009-10-04T14:25:03Z</time>
      </trkpt>
      <trkpt lat="44.8459" lon="5.12184">
        <ele>901.3330078125</ele>
        <time>2009-10-04T14:25:07Z</time>
      </trkpt>
      <trkpt lat="44.84591" lon="5.12161">
        <ele>900.68902587891</ele>
        <time>2009-10-04T14:25:09Z</time>
      </trkpt>
      <trkpt lat="44.84564" lon="5.12058">
        <ele>899.84600830078</ele>
        <time>2009-10-04T14:25:18Z</time>
      </trkpt>
      <trkpt lat="44.84514" lon="5.11972">
        <ele>897.98400878906</ele>
        <time>2009-10-04T14:25:29Z</time>
      </trkpt>
      <trkpt lat="44.84499" lon="5.11943">
        <ele>896.47100830078</ele>
        <time>2009-10-04T14:25:32Z</time>
      </trkpt>
      <trkpt lat="44.84471" lon="5.11886">
        <ele>892.05603027344</ele>
        <time>2009-10-04T14:25:37Z</time>
      </trkpt>
      <trkpt lat="44.8444" lon="5.11819">
        <ele>886.16101074219</ele>
        <time>2009-10-04T14:25:42Z</time>
      </trkpt>
      <trkpt lat="44.8441" lon="5.1174">
        <ele>880.5419921875</ele>
        <time>2009-10-04T14:25:47Z</time>
      </trkpt>
      <trkpt lat="44.84399" lon="5.11706">
        <ele>878.22802734375</ele>
        <time>2009-10-04T14:25:49Z</time>
      </trkpt>
      <trkpt lat="44.84389" lon="5.11672">
        <ele>875.73797607422</ele>
        <time>2009-10-04T14:25:51Z</time>
      </trkpt>
      <trkpt lat="44.84352" lon="5.1159">
        <ele>869.26397705078</ele>
        <time>2009-10-04T14:25:56Z</time>
      </trkpt>
      <trkpt lat="44.84248" lon="5.11485">
        <ele>860.86602783203</ele>
        <time>2009-10-04T14:26:05Z</time>
      </trkpt>
      <trkpt lat="44.84238" lon="5.11471">
        <ele>859.85498046875</ele>
        <time>2009-10-04T14:26:06Z</time>
      </trkpt>
      <trkpt lat="44.84211" lon="5.11425">
        <ele>856.56298828125</ele>
        <time>2009-10-04T14:26:09Z</time>
      </trkpt>
      <trkpt lat="44.8415" lon="5.11326">
        <ele>853.58502197266</ele>
        <time>2009-10-04T14:26:16Z</time>
      </trkpt>
      <trkpt lat="44.84131" lon="5.11305">
        <ele>852.6259765625</ele>
        <time>2009-10-04T14:26:18Z</time>
      </trkpt>
      <trkpt lat="44.8411" lon="5.1129">
        <ele>852.11602783203</ele>
        <time>2009-10-04T14:26:20Z</time>
      </trkpt>
      <trkpt lat="44.84058" lon="5.11261">
        <ele>851.57702636719</ele>
        <time>2009-10-04T14:26:25Z</time>
      </trkpt>
      <trkpt lat="44.84001" lon="5.11227">
        <ele>850.93902587891</ele>
        <time>2009-10-04T14:26:31Z</time>
      </trkpt>
      <trkpt lat="44.83966" lon="5.11185">
        <ele>850.28497314453</ele>
        <time>2009-10-04T14:26:36Z</time>
      </trkpt>
      <trkpt lat="44.83933" lon="5.11107">
        <ele>850.96398925781</ele>
        <time>2009-10-04T14:26:44Z</time>
      </trkpt>
      <trkpt lat="44.83929" lon="5.1109">
        <ele>851.8759765625</ele>
        <time>2009-10-04T14:26:46Z</time>
      </trkpt>
      <trkpt lat="44.83926" lon="5.11056">
        <ele>853.98797607422</ele>
        <time>2009-10-04T14:26:51Z</time>
      </trkpt>
      <trkpt lat="44.83926" lon="5.1105">
        <ele>854.39001464844</ele>
        <time>2009-10-04T14:26:52Z</time>
      </trkpt>
      <trkpt lat="44.83926" lon="5.11044">
        <ele>854.42401123047</ele>
        <time>2009-10-04T14:26:53Z</time>
      </trkpt>
      <trkpt lat="44.83919" lon="5.11023">
        <ele>855.64398193359</ele>
        <time>2009-10-04T14:26:57Z</time>
      </trkpt>
      <trkpt lat="44.83914" lon="5.11011">
        <ele>855.45202636719</ele>
        <time>2009-10-04T14:26:59Z</time>
      </trkpt>
      <trkpt lat="44.83902" lon="5.10994">
        <ele>855.91900634766</ele>
        <time>2009-10-04T14:27:02Z</time>
      </trkpt>
      <trkpt lat="44.83876" lon="5.10959">
        <ele>855.73297119141</ele>
        <time>2009-10-04T14:27:08Z</time>
      </trkpt>
      <trkpt lat="44.83809" lon="5.10866">
        <ele>853.56402587891</ele>
        <time>2009-10-04T14:27:21Z</time>
      </trkpt>
      <trkpt lat="44.83791" lon="5.10845">
        <ele>852.80297851562</ele>
        <time>2009-10-04T14:27:24Z</time>
      </trkpt>
      <trkpt lat="44.83762" lon="5.10822">
        <ele>852.208984375</ele>
        <time>2009-10-04T14:27:28Z</time>
      </trkpt>
      <trkpt lat="44.83691" lon="5.10748">
        <ele>852.08502197266</ele>
        <time>2009-10-04T14:27:39Z</time>
      </trkpt>
      <trkpt lat="44.8367" lon="5.10729">
        <ele>850.84399414062</ele>
        <time>2009-10-04T14:27:42Z</time>
      </trkpt>
      <trkpt lat="44.83641" lon="5.10701">
        <ele>848.89202880859</ele>
        <time>2009-10-04T14:27:46Z</time>
      </trkpt>
      <trkpt lat="44.83601" lon="5.10664">
        <ele>845.84197998047</ele>
        <time>2009-10-04T14:27:51Z</time>
      </trkpt>
      <trkpt lat="44.83606" lon="5.10628">
        <ele>843.53601074219</ele>
        <time>2009-10-04T14:27:57Z</time>
      </trkpt>
      <trkpt lat="44.8362" lon="5.1062">
        <ele>841.90399169922</ele>
        <time>2009-10-04T14:27:59Z</time>
      </trkpt>
      <trkpt lat="44.83629" lon="5.10617">
        <ele>841.60900878906</ele>
        <time>2009-10-04T14:28:00Z</time>
      </trkpt>
      <trkpt lat="44.83688" lon="5.10598">
        <ele>838.1669921875</ele>
        <time>2009-10-04T14:28:06Z</time>
      </trkpt>
      <trkpt lat="44.83724" lon="5.10564">
        <ele>835.41802978516</ele>
        <time>2009-10-04T14:28:10Z</time>
      </trkpt>
      <trkpt lat="44.83752" lon="5.10488">
        <ele>831.53302001953</ele>
        <time>2009-10-04T14:28:15Z</time>
      </trkpt>
      <trkpt lat="44.83782" lon="5.10388">
        <ele>825.83001708984</ele>
        <time>2009-10-04T14:28:21Z</time>
      </trkpt>
      <trkpt lat="44.83788" lon="5.10316">
        <ele>822.43701171875</ele>
        <time>2009-10-04T14:28:25Z</time>
      </trkpt>
      <trkpt lat="44.83789" lon="5.10225">
        <ele>818.67102050781</ele>
        <time>2009-10-04T14:28:30Z</time>
      </trkpt>
      <trkpt lat="44.83787" lon="5.10169">
        <ele>816.30200195312</ele>
        <time>2009-10-04T14:28:33Z</time>
      </trkpt>
      <trkpt lat="44.83768" lon="5.10096">
        <ele>811.73797607422</ele>
        <time>2009-10-04T14:28:37Z</time>
      </trkpt>
      <trkpt lat="44.83732" lon="5.10014">
        <ele>808.41400146484</ele>
        <time>2009-10-04T14:28:42Z</time>
      </trkpt>
      <trkpt lat="44.83744" lon="5.09976">
        <ele>806.63500976562</ele>
        <time>2009-10-04T14:28:47Z</time>
      </trkpt>
      <trkpt lat="44.83781" lon="5.09979">
        <ele>804.21301269531</ele>
        <time>2009-10-04T14:28:51Z</time>
      </trkpt>
      <trkpt lat="44.83834" lon="5.09994">
        <ele>801.42498779297</ele>
        <time>2009-10-04T14:28:56Z</time>
      </trkpt>
      <trkpt lat="44.83857" lon="5.1">
        <ele>800.49499511719</ele>
        <time>2009-10-04T14:28:58Z</time>
      </trkpt>
      <trkpt lat="44.83929" lon="5.09997">
        <ele>795.90698242188</ele>
        <time>2009-10-04T14:29:04Z</time>
      </trkpt>
      <trkpt lat="44.84063" lon="5.09921">
        <ele>786.20202636719</ele>
        <time>2009-10-04T14:29:15Z</time>
      </trkpt>
      <trkpt lat="44.84113" lon="5.09898">
        <ele>783.23297119141</ele>
        <time>2009-10-04T14:29:19Z</time>
      </trkpt>
      <trkpt lat="44.84221" lon="5.09829">
        <ele>776.92797851562</ele>
        <time>2009-10-04T14:29:28Z</time>
      </trkpt>
      <trkpt lat="44.84296" lon="5.0973">
        <ele>770.88000488281</ele>
        <time>2009-10-04T14:29:36Z</time>
      </trkpt>
      <trkpt lat="44.84318" lon="5.09711">
        <ele>768.83599853516</ele>
        <time>2009-10-04T14:29:38Z</time>
      </trkpt>
      <trkpt lat="44.84351" lon="5.0966">
        <ele>766.41998291016</ele>
        <time>2009-10-04T14:29:42Z</time>
      </trkpt>
      <trkpt lat="44.84359" lon="5.09647">
        <ele>766.20501708984</ele>
        <time>2009-10-04T14:29:43Z</time>
      </trkpt>
      <trkpt lat="44.84369" lon="5.09635">
        <ele>765.15197753906</ele>
        <time>2009-10-04T14:29:44Z</time>
      </trkpt>
      <trkpt lat="44.84396" lon="5.09603">
        <ele>763.05499267578</ele>
        <time>2009-10-04T14:29:47Z</time>
      </trkpt>
      <trkpt lat="44.84491" lon="5.0954">
        <ele>758.08001708984</ele>
        <time>2009-10-04T14:29:56Z</time>
      </trkpt>
      <trkpt lat="44.84524" lon="5.09496">
        <ele>756.666015625</ele>
        <time>2009-10-04T14:30:00Z</time>
      </trkpt>
      <trkpt lat="44.84605" lon="5.09381">
        <ele>757.09600830078</ele>
        <time>2009-10-04T14:30:12Z</time>
      </trkpt>
      <trkpt lat="44.84646" lon="5.09351">
        <ele>757.90997314453</ele>
        <time>2009-10-04T14:30:18Z</time>
      </trkpt>
      <trkpt lat="44.84681" lon="5.09332">
        <ele>758.27001953125</ele>
        <time>2009-10-04T14:30:23Z</time>
      </trkpt>
      <trkpt lat="44.84708" lon="5.09317">
        <ele>758.67700195312</ele>
        <time>2009-10-04T14:30:27Z</time>
      </trkpt>
      <trkpt lat="44.84748" lon="5.09295">
        <ele>759.28302001953</ele>
        <time>2009-10-04T14:30:33Z</time>
      </trkpt>
      <trkpt lat="44.84787" lon="5.09273">
        <ele>759.78198242188</ele>
        <time>2009-10-04T14:30:39Z</time>
      </trkpt>
      <trkpt lat="44.84892" lon="5.09208">
        <ele>760.92999267578</ele>
        <time>2009-10-04T14:30:57Z</time>
      </trkpt>
      <trkpt lat="44.84902" lon="5.09199">
        <ele>760.29901123047</ele>
        <time>2009-10-04T14:30:59Z</time>
      </trkpt>
      <trkpt lat="44.84935" lon="5.09163">
        <ele>759.63500976562</ele>
        <time>2009-10-04T14:31:05Z</time>
      </trkpt>
      <trkpt lat="44.8494" lon="5.09106">
        <ele>756.79998779297</ele>
        <time>2009-10-04T14:31:11Z</time>
      </trkpt>
      <trkpt lat="44.8492" lon="5.09112">
        <ele>755.50500488281</ele>
        <time>2009-10-04T14:31:13Z</time>
      </trkpt>
      <trkpt lat="44.84903" lon="5.09121">
        <ele>754.81097412109</ele>
        <time>2009-10-04T14:31:15Z</time>
      </trkpt>
      <trkpt lat="44.84874" lon="5.09132">
        <ele>752.34301757812</ele>
        <time>2009-10-04T14:31:18Z</time>
      </trkpt>
      <trkpt lat="44.84758" lon="5.09146">
        <ele>744.32702636719</ele>
        <time>2009-10-04T14:31:28Z</time>
      </trkpt>
      <trkpt lat="44.84746" lon="5.09143">
        <ele>744.31896972656</ele>
        <time>2009-10-04T14:31:29Z</time>
      </trkpt>
      <trkpt lat="44.84676" lon="5.09078">
        <ele>737.56500244141</ele>
        <time>2009-10-04T14:31:36Z</time>
      </trkpt>
      <trkpt lat="44.84655" lon="5.09058">
        <ele>736.30297851562</ele>
        <time>2009-10-04T14:31:38Z</time>
      </trkpt>
      <trkpt lat="44.84596" lon="5.09027">
        <ele>732.37902832031</ele>
        <time>2009-10-04T14:31:43Z</time>
      </trkpt>
      <trkpt lat="44.84558" lon="5.0901">
        <ele>729.41802978516</ele>
        <time>2009-10-04T14:31:46Z</time>
      </trkpt>
      <trkpt lat="44.84532" lon="5.08999">
        <ele>727.74401855469</ele>
        <time>2009-10-04T14:31:48Z</time>
      </trkpt>
      <trkpt lat="44.84519" lon="5.08994">
        <ele>726.78302001953</ele>
        <time>2009-10-04T14:31:49Z</time>
      </trkpt>
      <trkpt lat="44.84437" lon="5.08974">
        <ele>721.44000244141</ele>
        <time>2009-10-04T14:31:55Z</time>
      </trkpt>
      <trkpt lat="44.843" lon="5.08942">
        <ele>712.46398925781</ele>
        <time>2009-10-04T14:32:05Z</time>
      </trkpt>
      <trkpt lat="44.84232" lon="5.08913">
        <ele>707.85198974609</ele>
        <time>2009-10-04T14:32:10Z</time>
      </trkpt>
      <trkpt lat="44.8417" lon="5.08865">
        <ele>703.48498535156</ele>
        <time>2009-10-04T14:32:15Z</time>
      </trkpt>
      <trkpt lat="44.84098" lon="5.08808">
        <ele>700.20300292969</ele>
        <time>2009-10-04T14:32:21Z</time>
      </trkpt>
      <trkpt lat="44.84083" lon="5.08799">
        <ele>699.94097900391</ele>
        <time>2009-10-04T14:32:23Z</time>
      </trkpt>
      <trkpt lat="44.84106" lon="5.08792">
        <ele>696.91900634766</ele>
        <time>2009-10-04T14:32:29Z</time>
      </trkpt>
      <trkpt lat="44.84114" lon="5.08798">
        <ele>696.53601074219</ele>
        <time>2009-10-04T14:32:30Z</time>
      </trkpt>
      <trkpt lat="44.84149" lon="5.08816">
        <ele>694.36798095703</ele>
        <time>2009-10-04T14:32:34Z</time>
      </trkpt>
      <trkpt lat="44.84178" lon="5.08829">
        <ele>692.20599365234</ele>
        <time>2009-10-04T14:32:37Z</time>
      </trkpt>
      <trkpt lat="44.84198" lon="5.08841">
        <ele>691.19702148438</ele>
        <time>2009-10-04T14:32:39Z</time>
      </trkpt>
      <trkpt lat="44.8426" lon="5.08865">
        <ele>686.61798095703</ele>
        <time>2009-10-04T14:32:45Z</time>
      </trkpt>
      <trkpt lat="44.84306" lon="5.08878">
        <ele>683.583984375</ele>
        <time>2009-10-04T14:32:49Z</time>
      </trkpt>
      <trkpt lat="44.84354" lon="5.08888">
        <ele>681.05499267578</ele>
        <time>2009-10-04T14:32:53Z</time>
      </trkpt>
      <trkpt lat="44.84404" lon="5.08884">
        <ele>678.05902099609</ele>
        <time>2009-10-04T14:32:57Z</time>
      </trkpt>
      <trkpt lat="44.84542" lon="5.08846">
        <ele>668.2509765625</ele>
        <time>2009-10-04T14:33:08Z</time>
      </trkpt>
      <trkpt lat="44.84556" lon="5.08847">
        <ele>667.27697753906</ele>
        <time>2009-10-04T14:33:09Z</time>
      </trkpt>
      <trkpt lat="44.84651" lon="5.08907">
        <ele>661.01800537109</ele>
        <time>2009-10-04T14:33:17Z</time>
      </trkpt>
      <trkpt lat="44.84705" lon="5.08921">
        <ele>657.68798828125</ele>
        <time>2009-10-04T14:33:21Z</time>
      </trkpt>
      <trkpt lat="44.84754" lon="5.08951">
        <ele>654.42297363281</ele>
        <time>2009-10-04T14:33:25Z</time>
      </trkpt>
      <trkpt lat="44.84805" lon="5.08961">
        <ele>651.958984375</ele>
        <time>2009-10-04T14:33:29Z</time>
      </trkpt>
      <trkpt lat="44.84841" lon="5.08935">
        <ele>648.50799560547</ele>
        <time>2009-10-04T14:33:32Z</time>
      </trkpt>
      <trkpt lat="44.84969" lon="5.08833">
        <ele>640.18798828125</ele>
        <time>2009-10-04T14:33:43Z</time>
      </trkpt>
      <trkpt lat="44.85015" lon="5.08795">
        <ele>635.65899658203</ele>
        <time>2009-10-04T14:33:47Z</time>
      </trkpt>
      <trkpt lat="44.85078" lon="5.08786">
        <ele>631.56597900391</ele>
        <time>2009-10-04T14:33:52Z</time>
      </trkpt>
      <trkpt lat="44.85193" lon="5.08834">
        <ele>626.25</ele>
        <time>2009-10-04T14:34:02Z</time>
      </trkpt>
      <trkpt lat="44.85275" lon="5.08811">
        <ele>621.40698242188</ele>
        <time>2009-10-04T14:34:09Z</time>
      </trkpt>
      <trkpt lat="44.85357" lon="5.0877">
        <ele>614.68798828125</ele>
        <time>2009-10-04T14:34:16Z</time>
      </trkpt>
      <trkpt lat="44.85399" lon="5.08721">
        <ele>611.8330078125</ele>
        <time>2009-10-04T14:34:20Z</time>
      </trkpt>
      <trkpt lat="44.85469" lon="5.08646">
        <ele>604.68597412109</ele>
        <time>2009-10-04T14:34:27Z</time>
      </trkpt>
      <trkpt lat="44.85522" lon="5.08589">
        <ele>600.98297119141</ele>
        <time>2009-10-04T14:34:32Z</time>
      </trkpt>
      <trkpt lat="44.85534" lon="5.08567">
        <ele>601.07800292969</ele>
        <time>2009-10-04T14:34:34Z</time>
      </trkpt>
      <trkpt lat="44.85535" lon="5.08575">
        <ele>599.40197753906</ele>
        <time>2009-10-04T14:34:39Z</time>
      </trkpt>
      <trkpt lat="44.8553" lon="5.0858">
        <ele>598.82000732422</ele>
        <time>2009-10-04T14:34:40Z</time>
      </trkpt>
      <trkpt lat="44.85488" lon="5.08659">
        <ele>593.94396972656</ele>
        <time>2009-10-04T14:34:48Z</time>
      </trkpt>
      <trkpt lat="44.85479" lon="5.08668">
        <ele>593.48602294922</ele>
        <time>2009-10-04T14:34:49Z</time>
      </trkpt>
      <trkpt lat="44.85431" lon="5.08734">
        <ele>588.68103027344</ele>
        <time>2009-10-04T14:34:55Z</time>
      </trkpt>
      <trkpt lat="44.85415" lon="5.08799">
        <ele>585.46997070312</ele>
        <time>2009-10-04T14:34:59Z</time>
      </trkpt>
      <trkpt lat="44.8541" lon="5.08832">
        <ele>583.87097167969</ele>
        <time>2009-10-04T14:35:01Z</time>
      </trkpt>
      <trkpt lat="44.85361" lon="5.08869">
        <ele>579.42700195312</ele>
        <time>2009-10-04T14:35:06Z</time>
      </trkpt>
      <trkpt lat="44.85323" lon="5.0891">
        <ele>576.28601074219</ele>
        <time>2009-10-04T14:35:10Z</time>
      </trkpt>
      <trkpt lat="44.85303" lon="5.08951">
        <ele>574.05902099609</ele>
        <time>2009-10-04T14:35:13Z</time>
      </trkpt>
      <trkpt lat="44.85281" lon="5.08991">
        <ele>572.17901611328</ele>
        <time>2009-10-04T14:35:16Z</time>
      </trkpt>
      <trkpt lat="44.8524" lon="5.09077">
        <ele>567.29797363281</ele>
        <time>2009-10-04T14:35:22Z</time>
      </trkpt>
      <trkpt lat="44.85227" lon="5.09126">
        <ele>564.46099853516</ele>
        <time>2009-10-04T14:35:25Z</time>
      </trkpt>
      <trkpt lat="44.85226" lon="5.09144">
        <ele>564.27099609375</ele>
        <time>2009-10-04T14:35:26Z</time>
      </trkpt>
      <trkpt lat="44.85227" lon="5.09183">
        <ele>563.04699707031</ele>
        <time>2009-10-04T14:35:32Z</time>
      </trkpt>
      <trkpt lat="44.85234" lon="5.09165">
        <ele>561.76599121094</ele>
        <time>2009-10-04T14:35:34Z</time>
      </trkpt>
      <trkpt lat="44.85242" lon="5.09118">
        <ele>559.05297851562</ele>
        <time>2009-10-04T14:35:38Z</time>
      </trkpt>
      <trkpt lat="44.8525" lon="5.09094">
        <ele>558.04400634766</ele>
        <time>2009-10-04T14:35:40Z</time>
      </trkpt>
      <trkpt lat="44.8527" lon="5.09063">
        <ele>555.57202148438</ele>
        <time>2009-10-04T14:35:43Z</time>
      </trkpt>
      <trkpt lat="44.85335" lon="5.08992">
        <ele>550.93701171875</ele>
        <time>2009-10-04T14:35:50Z</time>
      </trkpt>
      <trkpt lat="44.85362" lon="5.08959">
        <ele>549.28198242188</ele>
        <time>2009-10-04T14:35:53Z</time>
      </trkpt>
      <trkpt lat="44.85392" lon="5.08952">
        <ele>546.36297607422</ele>
        <time>2009-10-04T14:35:56Z</time>
      </trkpt>
      <trkpt lat="44.85415" lon="5.08959">
        <ele>545.28497314453</ele>
        <time>2009-10-04T14:35:58Z</time>
      </trkpt>
      <trkpt lat="44.85484" lon="5.08918">
        <ele>539.42700195312</ele>
        <time>2009-10-04T14:36:04Z</time>
      </trkpt>
      <trkpt lat="44.85493" lon="5.08869">
        <ele>537.68597412109</ele>
        <time>2009-10-04T14:36:07Z</time>
      </trkpt>
      <trkpt lat="44.85497" lon="5.08835">
        <ele>535.875</ele>
        <time>2009-10-04T14:36:09Z</time>
      </trkpt>
      <trkpt lat="44.855" lon="5.08818">
        <ele>534.65997314453</ele>
        <time>2009-10-04T14:36:10Z</time>
      </trkpt>
      <trkpt lat="44.85501" lon="5.08806">
        <ele>534.01702880859</ele>
        <time>2009-10-04T14:36:11Z</time>
      </trkpt>
      <trkpt lat="44.85526" lon="5.08797">
        <ele>532.58099365234</ele>
        <time>2009-10-04T14:36:13Z</time>
      </trkpt>
      <trkpt lat="44.85549" lon="5.08801">
        <ele>531.16400146484</ele>
        <time>2009-10-04T14:36:15Z</time>
      </trkpt>
      <trkpt lat="44.8561" lon="5.08796">
        <ele>527.30200195312</ele>
        <time>2009-10-04T14:36:20Z</time>
      </trkpt>
      <trkpt lat="44.85631" lon="5.08738">
        <ele>523.83197021484</ele>
        <time>2009-10-04T14:36:25Z</time>
      </trkpt>
      <trkpt lat="44.85658" lon="5.08724">
        <ele>521.03002929688</ele>
        <time>2009-10-04T14:36:29Z</time>
      </trkpt>
      <trkpt lat="44.8568" lon="5.08733">
        <ele>519.61102294922</ele>
        <time>2009-10-04T14:36:31Z</time>
      </trkpt>
      <trkpt lat="44.85738" lon="5.08762">
        <ele>515.71801757812</ele>
        <time>2009-10-04T14:36:36Z</time>
      </trkpt>
      <trkpt lat="44.85761" lon="5.0878">
        <ele>513.7509765625</ele>
        <time>2009-10-04T14:36:38Z</time>
      </trkpt>
      <trkpt lat="44.8581" lon="5.08782">
        <ele>510.19000244141</ele>
        <time>2009-10-04T14:36:42Z</time>
      </trkpt>
      <trkpt lat="44.85896" lon="5.08738">
        <ele>504.14599609375</ele>
        <time>2009-10-04T14:36:49Z</time>
      </trkpt>
      <trkpt lat="44.85918" lon="5.08738">
        <ele>502.03201293945</ele>
        <time>2009-10-04T14:36:51Z</time>
      </trkpt>
      <trkpt lat="44.86025" lon="5.08744">
        <ele>495.38101196289</ele>
        <time>2009-10-04T14:36:59Z</time>
      </trkpt>
      <trkpt lat="44.8618" lon="5.08792">
        <ele>484.61801147461</ele>
        <time>2009-10-04T14:37:11Z</time>
      </trkpt>
      <trkpt lat="44.86333" lon="5.08849">
        <ele>474.45098876953</ele>
        <time>2009-10-04T14:37:23Z</time>
      </trkpt>
      <trkpt lat="44.86409" lon="5.08883">
        <ele>469.80801391602</ele>
        <time>2009-10-04T14:37:29Z</time>
      </trkpt>
      <trkpt lat="44.86498" lon="5.08932">
        <ele>463.7080078125</ele>
        <time>2009-10-04T14:37:36Z</time>
      </trkpt>
      <trkpt lat="44.86562" lon="5.0896">
        <ele>458.95901489258</ele>
        <time>2009-10-04T14:37:41Z</time>
      </trkpt>
      <trkpt lat="44.86603" lon="5.08962">
        <ele>455.51599121094</ele>
        <time>2009-10-04T14:37:44Z</time>
      </trkpt>
      <trkpt lat="44.86669" lon="5.08934">
        <ele>451.24499511719</ele>
        <time>2009-10-04T14:37:49Z</time>
      </trkpt>
      <trkpt lat="44.86773" lon="5.08908">
        <ele>444.50500488281</ele>
        <time>2009-10-04T14:37:57Z</time>
      </trkpt>
      <trkpt lat="44.86867" lon="5.08911">
        <ele>438.12200927734</ele>
        <time>2009-10-04T14:38:04Z</time>
      </trkpt>
      <trkpt lat="44.86943" lon="5.08877">
        <ele>433.36700439453</ele>
        <time>2009-10-04T14:38:10Z</time>
      </trkpt>
      <trkpt lat="44.86976" lon="5.08847">
        <ele>430.91500854492</ele>
        <time>2009-10-04T14:38:13Z</time>
      </trkpt>
      <trkpt lat="44.86987" lon="5.08836">
        <ele>430.65600585938</ele>
        <time>2009-10-04T14:38:14Z</time>
      </trkpt>
      <trkpt lat="44.87059" lon="5.08721">
        <ele>423.8330078125</ele>
        <time>2009-10-04T14:38:22Z</time>
      </trkpt>
      <trkpt lat="44.87108" lon="5.08608">
        <ele>416.36199951172</ele>
        <time>2009-10-04T14:38:29Z</time>
      </trkpt>
      <trkpt lat="44.87121" lon="5.08577">
        <ele>414.81399536133</ele>
        <time>2009-10-04T14:38:31Z</time>
      </trkpt>
      <trkpt lat="44.87141" lon="5.0851">
        <ele>411.32598876953</ele>
        <time>2009-10-04T14:38:35Z</time>
      </trkpt>
      <trkpt lat="44.87168" lon="5.08408">
        <ele>406.7200012207</ele>
        <time>2009-10-04T14:38:41Z</time>
      </trkpt>
      <trkpt lat="44.87201" lon="5.08307">
        <ele>401.70498657227</ele>
        <time>2009-10-04T14:38:47Z</time>
      </trkpt>
      <trkpt lat="44.87218" lon="5.08215">
        <ele>397.25100708008</ele>
        <time>2009-10-04T14:38:52Z</time>
      </trkpt>
      <trkpt lat="44.87219" lon="5.08142">
        <ele>394.29098510742</ele>
        <time>2009-10-04T14:38:56Z</time>
      </trkpt>
      <trkpt lat="44.87244" lon="5.08055">
        <ele>390.47601318359</ele>
        <time>2009-10-04T14:39:01Z</time>
      </trkpt>
      <trkpt lat="44.87313" lon="5.07936">
        <ele>383.71499633789</ele>
        <time>2009-10-04T14:39:09Z</time>
      </trkpt>
      <trkpt lat="44.87331" lon="5.07886">
        <ele>382.11099243164</ele>
        <time>2009-10-04T14:39:12Z</time>
      </trkpt>
      <trkpt lat="44.87339" lon="5.07853">
        <ele>380.89199829102</ele>
        <time>2009-10-04T14:39:15Z</time>
      </trkpt>
      <trkpt lat="44.87342" lon="5.07835">
        <ele>379.34698486328</ele>
        <time>2009-10-04T14:39:17Z</time>
      </trkpt>
      <trkpt lat="44.87368" lon="5.07817">
        <ele>377.13000488281</ele>
        <time>2009-10-04T14:39:21Z</time>
      </trkpt>
      <trkpt lat="44.87421" lon="5.07793">
        <ele>377.25900268555</ele>
        <time>2009-10-04T14:39:28Z</time>
      </trkpt>
      <trkpt lat="44.87454" lon="5.07765">
        <ele>377.78298950195</ele>
        <time>2009-10-04T14:39:33Z</time>
      </trkpt>
      <trkpt lat="44.87502" lon="5.07716">
        <ele>378.48999023438</ele>
        <time>2009-10-04T14:39:41Z</time>
      </trkpt>
      <trkpt lat="44.87538" lon="5.07678">
        <ele>378.29800415039</ele>
        <time>2009-10-04T14:39:47Z</time>
      </trkpt>
      <trkpt lat="44.87557" lon="5.0766">
        <ele>377.68600463867</ele>
        <time>2009-10-04T14:39:50Z</time>
      </trkpt>
      <trkpt lat="44.87618" lon="5.0765">
        <ele>374.20999145508</ele>
        <time>2009-10-04T14:39:57Z</time>
      </trkpt>
      <trkpt lat="44.87696" lon="5.07677">
        <ele>370.07501220703</ele>
        <time>2009-10-04T14:40:05Z</time>
      </trkpt>
      <trkpt lat="44.87739" lon="5.07676">
        <ele>368.08801269531</ele>
        <time>2009-10-04T14:40:09Z</time>
      </trkpt>
      <trkpt lat="44.87837" lon="5.07662">
        <ele>368.75299072266</ele>
        <time>2009-10-04T14:40:19Z</time>
      </trkpt>
      <trkpt lat="44.87873" lon="5.07641">
        <ele>369.15301513672</ele>
        <time>2009-10-04T14:40:24Z</time>
      </trkpt>
      <trkpt lat="44.87967" lon="5.07633">
        <ele>366.93600463867</ele>
        <time>2009-10-04T14:40:36Z</time>
      </trkpt>
      <trkpt lat="44.87977" lon="5.07633">
        <ele>366.62100219727</ele>
        <time>2009-10-04T14:40:37Z</time>
      </trkpt>
      <trkpt lat="44.88014" lon="5.07652">
        <ele>364.95401000977</ele>
        <time>2009-10-04T14:40:41Z</time>
      </trkpt>
      <trkpt lat="44.88046" lon="5.07684">
        <ele>364.03799438477</ele>
        <time>2009-10-04T14:40:45Z</time>
      </trkpt>
      <trkpt lat="44.88145" lon="5.07728">
        <ele>361.79598999023</ele>
        <time>2009-10-04T14:40:56Z</time>
      </trkpt>
      <trkpt lat="44.88261" lon="5.07747">
        <ele>362.2080078125</ele>
        <time>2009-10-04T14:41:09Z</time>
      </trkpt>
      <trkpt lat="44.88359" lon="5.0775">
        <ele>359.93200683594</ele>
        <time>2009-10-04T14:41:20Z</time>
      </trkpt>
      <trkpt lat="44.88448" lon="5.07709">
        <ele>354.16198730469</ele>
        <time>2009-10-04T14:41:29Z</time>
      </trkpt>
      <trkpt lat="44.88478" lon="5.07701">
        <ele>351.94198608398</ele>
        <time>2009-10-04T14:41:32Z</time>
      </trkpt>
      <trkpt lat="44.88488" lon="5.07702">
        <ele>352.21099853516</ele>
        <time>2009-10-04T14:41:33Z</time>
      </trkpt>
      <trkpt lat="44.88558" lon="5.0772">
        <ele>348.72601318359</ele>
        <time>2009-10-04T14:41:40Z</time>
      </trkpt>
      <trkpt lat="44.88683" lon="5.07764">
        <ele>346.65399169922</ele>
        <time>2009-10-04T14:41:54Z</time>
      </trkpt>
      <trkpt lat="44.8878" lon="5.07804">
        <ele>344.31298828125</ele>
        <time>2009-10-04T14:42:07Z</time>
      </trkpt>
      <trkpt lat="44.88898" lon="5.07852">
        <ele>342.14898681641</ele>
        <time>2009-10-04T14:42:22Z</time>
      </trkpt>
      <trkpt lat="44.89024" lon="5.07927">
        <ele>342.87799072266</ele>
        <time>2009-10-04T14:42:40Z</time>
      </trkpt>
      <trkpt lat="44.89119" lon="5.07995">
        <ele>343.64898681641</ele>
        <time>2009-10-04T14:42:56Z</time>
      </trkpt>
      <trkpt lat="44.89195" lon="5.08035">
        <ele>344.23199462891</ele>
        <time>2009-10-04T14:43:08Z</time>
      </trkpt>
      <trkpt lat="44.89274" lon="5.08078">
        <ele>347.55599975586</ele>
        <time>2009-10-04T14:43:23Z</time>
      </trkpt>
      <trkpt lat="44.89301" lon="5.08096">
        <ele>348.89898681641</ele>
        <time>2009-10-04T14:43:29Z</time>
      </trkpt>
      <trkpt lat="44.8932" lon="5.08101">
        <ele>348.99798583984</ele>
        <time>2009-10-04T14:43:34Z</time>
      </trkpt>
      <trkpt lat="44.89373" lon="5.0812">
        <ele>351.50900268555</ele>
        <time>2009-10-04T14:43:45Z</time>
      </trkpt>
      <trkpt lat="44.89429" lon="5.08154">
        <ele>356.48599243164</ele>
        <time>2009-10-04T14:43:59Z</time>
      </trkpt>
      <trkpt lat="44.89476" lon="5.08205">
        <ele>358.57000732422</ele>
        <time>2009-10-04T14:44:13Z</time>
      </trkpt>
      <trkpt lat="44.89548" lon="5.08264">
        <ele>358.85400390625</ele>
        <time>2009-10-04T14:44:28Z</time>
      </trkpt>
      <trkpt lat="44.89639" lon="5.08338">
        <ele>357.53601074219</ele>
        <time>2009-10-04T14:44:44Z</time>
      </trkpt>
      <trkpt lat="44.89725" lon="5.08419">
        <ele>357.90899658203</ele>
        <time>2009-10-04T14:44:59Z</time>
      </trkpt>
      <trkpt lat="44.89796" lon="5.08492">
        <ele>358.85299682617</ele>
        <time>2009-10-04T14:45:14Z</time>
      </trkpt>
      <trkpt lat="44.89867" lon="5.08553">
        <ele>356.44000244141</ele>
        <time>2009-10-04T14:45:25Z</time>
      </trkpt>
      <trkpt lat="44.89916" lon="5.08597">
        <ele>358.45901489258</ele>
        <time>2009-10-04T14:45:33Z</time>
      </trkpt>
      <trkpt lat="44.8993" lon="5.0862">
        <ele>359.86700439453</ele>
        <time>2009-10-04T14:45:37Z</time>
      </trkpt>
      <trkpt lat="44.89935" lon="5.08641">
        <ele>362.18399047852</ele>
        <time>2009-10-04T14:45:41Z</time>
      </trkpt>
      <trkpt lat="44.89935" lon="5.08717">
        <ele>366.65200805664</ele>
        <time>2009-10-04T14:45:56Z</time>
      </trkpt>
      <trkpt lat="44.89935" lon="5.08767">
        <ele>369.20098876953</ele>
        <time>2009-10-04T14:46:06Z</time>
      </trkpt>
      <trkpt lat="44.89941" lon="5.08823">
        <ele>372.66799926758</ele>
        <time>2009-10-04T14:46:18Z</time>
      </trkpt>
      <trkpt lat="44.89947" lon="5.08888">
        <ele>375.91500854492</ele>
        <time>2009-10-04T14:46:32Z</time>
      </trkpt>
      <trkpt lat="44.89946" lon="5.08947">
        <ele>378.61401367188</ele>
        <time>2009-10-04T14:46:45Z</time>
      </trkpt>
      <trkpt lat="44.89945" lon="5.09004">
        <ele>380.78900146484</ele>
        <time>2009-10-04T14:46:56Z</time>
      </trkpt>
      <trkpt lat="44.89944" lon="5.091">
        <ele>384.19100952148</ele>
        <time>2009-10-04T14:47:14Z</time>
      </trkpt>
      <trkpt lat="44.89944" lon="5.0916">
        <ele>386.30099487305</ele>
        <time>2009-10-04T14:47:25Z</time>
      </trkpt>
      <trkpt lat="44.89945" lon="5.09171">
        <ele>386.79299926758</ele>
        <time>2009-10-04T14:47:27Z</time>
      </trkpt>
      <trkpt lat="44.89946" lon="5.09215">
        <ele>387.60400390625</ele>
        <time>2009-10-04T14:47:34Z</time>
      </trkpt>
      <trkpt lat="44.89951" lon="5.0927">
        <ele>389.60198974609</ele>
        <time>2009-10-04T14:47:43Z</time>
      </trkpt>
      <trkpt lat="44.89951" lon="5.09282">
        <ele>389.75900268555</ele>
        <time>2009-10-04T14:47:45Z</time>
      </trkpt>
      <trkpt lat="44.89955" lon="5.09338">
        <ele>391.35501098633</ele>
        <time>2009-10-04T14:47:54Z</time>
      </trkpt>
      <trkpt lat="44.89957" lon="5.09384">
        <ele>392.56600952148</ele>
        <time>2009-10-04T14:48:01Z</time>
      </trkpt>
      <trkpt lat="44.89961" lon="5.09413">
        <ele>393.23098754883</ele>
        <time>2009-10-04T14:48:05Z</time>
      </trkpt>
      <trkpt lat="44.89965" lon="5.09465">
        <ele>394.71701049805</ele>
        <time>2009-10-04T14:48:13Z</time>
      </trkpt>
      <trkpt lat="44.89963" lon="5.09496">
        <ele>395.51501464844</ele>
        <time>2009-10-04T14:48:18Z</time>
      </trkpt>
      <trkpt lat="44.89962" lon="5.09509">
        <ele>396.04598999023</ele>
        <time>2009-10-04T14:48:20Z</time>
      </trkpt>
      <trkpt lat="44.89941" lon="5.09566">
        <ele>397.57598876953</ele>
        <time>2009-10-04T14:48:29Z</time>
      </trkpt>
      <trkpt lat="44.89963" lon="5.09585">
        <ele>398.72500610352</ele>
        <time>2009-10-04T14:48:35Z</time>
      </trkpt>
      <trkpt lat="44.89978" lon="5.09595">
        <ele>400.83099365234</ele>
        <time>2009-10-04T14:48:38Z</time>
      </trkpt>
      <trkpt lat="44.89989" lon="5.09602">
        <ele>401.81799316406</ele>
        <time>2009-10-04T14:48:40Z</time>
      </trkpt>
      <trkpt lat="44.90002" lon="5.09616">
        <ele>403.42300415039</ele>
        <time>2009-10-04T14:48:43Z</time>
      </trkpt>
      <trkpt lat="44.90031" lon="5.09622">
        <ele>403.45999145508</ele>
        <time>2009-10-04T14:48:50Z</time>
      </trkpt>
      <trkpt lat="44.90057" lon="5.09623">
        <ele>400.94799804688</ele>
        <time>2009-10-04T14:48:54Z</time>
      </trkpt>
      <trkpt lat="44.90173" lon="5.09657">
        <ele>392.17401123047</ele>
        <time>2009-10-04T14:49:05Z</time>
      </trkpt>
      <trkpt lat="44.90251" lon="5.0968">
        <ele>392.60598754883</ele>
        <time>2009-10-04T14:49:13Z</time>
      </trkpt>
      <trkpt lat="44.90315" lon="5.09699">
        <ele>394.37200927734</ele>
        <time>2009-10-04T14:49:22Z</time>
      </trkpt>
      <trkpt lat="44.90405" lon="5.09723">
        <ele>397.85998535156</ele>
        <time>2009-10-04T14:49:36Z</time>
      </trkpt>
      <trkpt lat="44.90473" lon="5.09745">
        <ele>399.18701171875</ele>
        <time>2009-10-04T14:49:47Z</time>
      </trkpt>
      <trkpt lat="44.9055" lon="5.0977">
        <ele>398.35198974609</ele>
        <time>2009-10-04T14:49:58Z</time>
      </trkpt>
      <trkpt lat="44.90565" lon="5.09773">
        <ele>397.88198852539</ele>
        <time>2009-10-04T14:50:00Z</time>
      </trkpt>
      <trkpt lat="44.90607" lon="5.09765">
        <ele>396.5299987793</ele>
        <time>2009-10-04T14:50:05Z</time>
      </trkpt>
      <trkpt lat="44.90688" lon="5.09748">
        <ele>393.16500854492</ele>
        <time>2009-10-04T14:50:14Z</time>
      </trkpt>
      <trkpt lat="44.90774" lon="5.09748">
        <ele>392.35400390625</ele>
        <time>2009-10-04T14:50:23Z</time>
      </trkpt>
      <trkpt lat="44.90859" lon="5.0978">
        <ele>394.8869934082</ele>
        <time>2009-10-04T14:50:35Z</time>
      </trkpt>
      <trkpt lat="44.90892" lon="5.09809">
        <ele>396.48999023438</ele>
        <time>2009-10-04T14:50:41Z</time>
      </trkpt>
      <trkpt lat="44.90944" lon="5.09843">
        <ele>395.54400634766</ele>
        <time>2009-10-04T14:50:49Z</time>
      </trkpt>
      <trkpt lat="44.90964" lon="5.09862">
        <ele>395.0530090332</ele>
        <time>2009-10-04T14:50:52Z</time>
      </trkpt>
      <trkpt lat="44.9103" lon="5.09951">
        <ele>394.84100341797</ele>
        <time>2009-10-04T14:51:03Z</time>
      </trkpt>
      <trkpt lat="44.91051" lon="5.10025">
        <ele>395.17001342773</ele>
        <time>2009-10-04T14:51:10Z</time>
      </trkpt>
      <trkpt lat="44.9107" lon="5.10061">
        <ele>395.33801269531</ele>
        <time>2009-10-04T14:51:14Z</time>
      </trkpt>
      <trkpt lat="44.9112" lon="5.10115">
        <ele>395.28201293945</ele>
        <time>2009-10-04T14:51:22Z</time>
      </trkpt>
      <trkpt lat="44.91171" lon="5.10227">
        <ele>395.57299804688</ele>
        <time>2009-10-04T14:51:34Z</time>
      </trkpt>
      <trkpt lat="44.91187" lon="5.10265">
        <ele>395.63400268555</ele>
        <time>2009-10-04T14:51:38Z</time>
      </trkpt>
      <trkpt lat="44.91239" lon="5.10363">
        <ele>396.14300537109</ele>
        <time>2009-10-04T14:51:50Z</time>
      </trkpt>
      <trkpt lat="44.91279" lon="5.10437">
        <ele>397.74099731445</ele>
        <time>2009-10-04T14:52:01Z</time>
      </trkpt>
      <trkpt lat="44.91285" lon="5.10452">
        <ele>397.8210144043</ele>
        <time>2009-10-04T14:52:03Z</time>
      </trkpt>
      <trkpt lat="44.9129" lon="5.10485">
        <ele>398.39700317383</ele>
        <time>2009-10-04T14:52:07Z</time>
      </trkpt>
      <trkpt lat="44.91295" lon="5.10523">
        <ele>399.16900634766</ele>
        <time>2009-10-04T14:52:12Z</time>
      </trkpt>
      <trkpt lat="44.91302" lon="5.1054">
        <ele>398.22601318359</ele>
        <time>2009-10-04T14:52:15Z</time>
      </trkpt>
      <trkpt lat="44.91327" lon="5.10548">
        <ele>397.91900634766</ele>
        <time>2009-10-04T14:52:18Z</time>
      </trkpt>
      <trkpt lat="44.91325" lon="5.10527">
        <ele>396.9700012207</ele>
        <time>2009-10-04T14:52:22Z</time>
      </trkpt>
      <trkpt lat="44.91327" lon="5.105">
        <ele>395.18099975586</ele>
        <time>2009-10-04T14:52:25Z</time>
      </trkpt>
      <trkpt lat="44.9133" lon="5.10466">
        <ele>393.4469909668</ele>
        <time>2009-10-04T14:52:28Z</time>
      </trkpt>
      <trkpt lat="44.91336" lon="5.10444">
        <ele>392.34298706055</ele>
        <time>2009-10-04T14:52:30Z</time>
      </trkpt>
      <trkpt lat="44.91346" lon="5.10422">
        <ele>391.01901245117</ele>
        <time>2009-10-04T14:52:32Z</time>
      </trkpt>
      <trkpt lat="44.91385" lon="5.1039">
        <ele>391.04000854492</ele>
        <time>2009-10-04T14:52:39Z</time>
      </trkpt>
      <trkpt lat="44.91386" lon="5.10389">
        <ele>390.83700561523</ele>
        <time>2009-10-04T14:52:43Z</time>
      </trkpt>
      <trkpt lat="44.91389" lon="5.10388">
        <ele>390.83099365234</ele>
        <time>2009-10-04T14:52:46Z</time>
      </trkpt>
      <trkpt lat="44.91392" lon="5.10388">
        <ele>390.57501220703</ele>
        <time>2009-10-04T14:52:47Z</time>
      </trkpt>
      <trkpt lat="44.91399" lon="5.10384">
        <ele>390.15200805664</ele>
        <time>2009-10-04T14:52:49Z</time>
      </trkpt>
      <trkpt lat="44.9143" lon="5.10376">
        <ele>387.81799316406</ele>
        <time>2009-10-04T14:52:54Z</time>
      </trkpt>
      <trkpt lat="44.91461" lon="5.10372">
        <ele>385.52499389648</ele>
        <time>2009-10-04T14:52:58Z</time>
      </trkpt>
      <trkpt lat="44.91498" lon="5.10371">
        <ele>383.49200439453</ele>
        <time>2009-10-04T14:53:02Z</time>
      </trkpt>
      <trkpt lat="44.91557" lon="5.10389">
        <ele>379.68899536133</ele>
        <time>2009-10-04T14:53:08Z</time>
      </trkpt>
      <trkpt lat="44.91593" lon="5.10414">
        <ele>378.47900390625</ele>
        <time>2009-10-04T14:53:12Z</time>
      </trkpt>
      <trkpt lat="44.91628" lon="5.1044">
        <ele>380.1130065918</ele>
        <time>2009-10-04T14:53:17Z</time>
      </trkpt>
      <trkpt lat="44.91659" lon="5.1047">
        <ele>382.61099243164</ele>
        <time>2009-10-04T14:53:25Z</time>
      </trkpt>
      <trkpt lat="44.91684" lon="5.10489">
        <ele>383.73498535156</ele>
        <time>2009-10-04T14:53:31Z</time>
      </trkpt>
      <trkpt lat="44.91713" lon="5.10512">
        <ele>385.37600708008</ele>
        <time>2009-10-04T14:53:38Z</time>
      </trkpt>
      <trkpt lat="44.91741" lon="5.10527">
        <ele>386.96499633789</ele>
        <time>2009-10-04T14:53:45Z</time>
      </trkpt>
      <trkpt lat="44.91781" lon="5.10519">
        <ele>390.81900024414</ele>
        <time>2009-10-04T14:53:58Z</time>
      </trkpt>
      <trkpt lat="44.91811" lon="5.10511">
        <ele>392.57400512695</ele>
        <time>2009-10-04T14:54:07Z</time>
      </trkpt>
      <trkpt lat="44.91865" lon="5.10522">
        <ele>394.60900878906</ele>
        <time>2009-10-04T14:54:21Z</time>
      </trkpt>
      <trkpt lat="44.91941" lon="5.10576">
        <ele>397.88500976562</ele>
        <time>2009-10-04T14:54:41Z</time>
      </trkpt>
      <trkpt lat="44.91963" lon="5.10595">
        <ele>398.80999755859</ele>
        <time>2009-10-04T14:54:47Z</time>
      </trkpt>
      <trkpt lat="44.91972" lon="5.10608">
        <ele>399.20999145508</ele>
        <time>2009-10-04T14:54:50Z</time>
      </trkpt>
      <trkpt lat="44.92003" lon="5.10673">
        <ele>402.8330078125</ele>
        <time>2009-10-04T14:55:04Z</time>
      </trkpt>
      <trkpt lat="44.92014" lon="5.1069">
        <ele>403.17098999023</ele>
        <time>2009-10-04T14:55:08Z</time>
      </trkpt>
      <trkpt lat="44.92053" lon="5.10735">
        <ele>405.61499023438</ele>
        <time>2009-10-04T14:55:20Z</time>
      </trkpt>
      <trkpt lat="44.92131" lon="5.10789">
        <ele>405.60000610352</ele>
        <time>2009-10-04T14:55:36Z</time>
      </trkpt>
      <trkpt lat="44.92154" lon="5.10803">
        <ele>406.22900390625</ele>
        <time>2009-10-04T14:55:40Z</time>
      </trkpt>
      <trkpt lat="44.92182" lon="5.10852">
        <ele>403.81399536133</ele>
        <time>2009-10-04T14:55:47Z</time>
      </trkpt>
      <trkpt lat="44.92207" lon="5.10891">
        <ele>402.87298583984</ele>
        <time>2009-10-04T14:55:53Z</time>
      </trkpt>
      <trkpt lat="44.9224" lon="5.10888">
        <ele>402.49398803711</ele>
        <time>2009-10-04T14:55:58Z</time>
      </trkpt>
      <trkpt lat="44.92245" lon="5.10883">
        <ele>402.8030090332</ele>
        <time>2009-10-04T14:55:59Z</time>
      </trkpt>
      <trkpt lat="44.9226" lon="5.10868">
        <ele>403.76901245117</ele>
        <time>2009-10-04T14:56:02Z</time>
      </trkpt>
      <trkpt lat="44.9228" lon="5.10856">
        <ele>404.02600097656</ele>
        <time>2009-10-04T14:56:06Z</time>
      </trkpt>
      <trkpt lat="44.92303" lon="5.1085">
        <ele>406.26901245117</ele>
        <time>2009-10-04T14:56:11Z</time>
      </trkpt>
      <trkpt lat="44.92331" lon="5.10837">
        <ele>408.34201049805</ele>
        <time>2009-10-04T14:56:18Z</time>
      </trkpt>
      <trkpt lat="44.92356" lon="5.10823">
        <ele>409.45498657227</ele>
        <time>2009-10-04T14:56:24Z</time>
      </trkpt>
      <trkpt lat="44.92392" lon="5.108">
        <ele>411.21301269531</ele>
        <time>2009-10-04T14:56:31Z</time>
      </trkpt>
      <trkpt lat="44.92477" lon="5.10803">
        <ele>410.21398925781</ele>
        <time>2009-10-04T14:56:44Z</time>
      </trkpt>
      <trkpt lat="44.92538" lon="5.10836">
        <ele>405.7619934082</ele>
        <time>2009-10-04T14:56:53Z</time>
      </trkpt>
      <trkpt lat="44.92592" lon="5.10875">
        <ele>402.96099853516</ele>
        <time>2009-10-04T14:57:00Z</time>
      </trkpt>
      <trkpt lat="44.92663" lon="5.10939">
        <ele>398.62799072266</ele>
        <time>2009-10-04T14:57:09Z</time>
      </trkpt>
      <trkpt lat="44.92683" lon="5.10969">
        <ele>396.92098999023</ele>
        <time>2009-10-04T14:57:12Z</time>
      </trkpt>
      <trkpt lat="44.92688" lon="5.1098">
        <ele>396.92599487305</ele>
        <time>2009-10-04T14:57:13Z</time>
      </trkpt>
      <trkpt lat="44.92709" lon="5.11025">
        <ele>395.66500854492</ele>
        <time>2009-10-04T14:57:17Z</time>
      </trkpt>
      <trkpt lat="44.92803" lon="5.11142">
        <ele>390.90301513672</ele>
        <time>2009-10-04T14:57:30Z</time>
      </trkpt>
      <trkpt lat="44.9281" lon="5.11152">
        <ele>390.64898681641</ele>
        <time>2009-10-04T14:57:31Z</time>
      </trkpt>
      <trkpt lat="44.92844" lon="5.11186">
        <ele>388.51901245117</ele>
        <time>2009-10-04T14:57:35Z</time>
      </trkpt>
      <trkpt lat="44.92878" lon="5.11216">
        <ele>387.75799560547</ele>
        <time>2009-10-04T14:57:39Z</time>
      </trkpt>
      <trkpt lat="44.92931" lon="5.11238">
        <ele>386.98300170898</ele>
        <time>2009-10-04T14:57:45Z</time>
      </trkpt>
      <trkpt lat="44.92951" lon="5.11239">
        <ele>385.80899047852</ele>
        <time>2009-10-04T14:57:47Z</time>
      </trkpt>
      <trkpt lat="44.92987" lon="5.11265">
        <ele>383.35998535156</ele>
        <time>2009-10-04T14:57:51Z</time>
      </trkpt>
      <trkpt lat="44.93012" lon="5.11293">
        <ele>381.8450012207</ele>
        <time>2009-10-04T14:57:54Z</time>
      </trkpt>
      <trkpt lat="44.93079" lon="5.11347">
        <ele>376.18099975586</ele>
        <time>2009-10-04T14:58:01Z</time>
      </trkpt>
      <trkpt lat="44.93098" lon="5.11365">
        <ele>375.52200317383</ele>
        <time>2009-10-04T14:58:03Z</time>
      </trkpt>
      <trkpt lat="44.93133" lon="5.11342">
        <ele>376.78601074219</ele>
        <time>2009-10-04T14:58:07Z</time>
      </trkpt>
      <trkpt lat="44.93174" lon="5.11326">
        <ele>378.47198486328</ele>
        <time>2009-10-04T14:58:12Z</time>
      </trkpt>
      <trkpt lat="44.93248" lon="5.11317">
        <ele>377.74899291992</ele>
        <time>2009-10-04T14:58:21Z</time>
      </trkpt>
      <trkpt lat="44.93285" lon="5.11316">
        <ele>375.52398681641</ele>
        <time>2009-10-04T14:58:25Z</time>
      </trkpt>
      <trkpt lat="44.93341" lon="5.11311">
        <ele>372.74200439453</ele>
        <time>2009-10-04T14:58:31Z</time>
      </trkpt>
      <trkpt lat="44.93357" lon="5.11322">
        <ele>372.01000976562</ele>
        <time>2009-10-04T14:58:33Z</time>
      </trkpt>
      <trkpt lat="44.93438" lon="5.11393">
        <ele>375.1549987793</ele>
        <time>2009-10-04T14:58:46Z</time>
      </trkpt>
      <trkpt lat="44.93478" lon="5.11425">
        <ele>377.39999389648</ele>
        <time>2009-10-04T14:58:53Z</time>
      </trkpt>
      <trkpt lat="44.93508" lon="5.11442">
        <ele>379.23098754883</ele>
        <time>2009-10-04T14:58:58Z</time>
      </trkpt>
      <trkpt lat="44.93514" lon="5.11445">
        <ele>379.53298950195</ele>
        <time>2009-10-04T14:58:59Z</time>
      </trkpt>
      <trkpt lat="44.93546" lon="5.11455">
        <ele>382.62799072266</ele>
        <time>2009-10-04T14:59:05Z</time>
      </trkpt>
      <trkpt lat="44.93554" lon="5.11458">
        <ele>383.60000610352</ele>
        <time>2009-10-04T14:59:07Z</time>
      </trkpt>
      <trkpt lat="44.93614" lon="5.11498">
        <ele>383.48400878906</ele>
        <time>2009-10-04T14:59:20Z</time>
      </trkpt>
      <trkpt lat="44.93647" lon="5.11543">
        <ele>377.08801269531</ele>
        <time>2009-10-04T14:59:26Z</time>
      </trkpt>
      <trkpt lat="44.93678" lon="5.11569">
        <ele>374.48999023438</ele>
        <time>2009-10-04T14:59:30Z</time>
      </trkpt>
      <trkpt lat="44.93706" lon="5.11581">
        <ele>373.51800537109</ele>
        <time>2009-10-04T14:59:33Z</time>
      </trkpt>
      <trkpt lat="44.93749" lon="5.1161">
        <ele>373.52801513672</ele>
        <time>2009-10-04T14:59:38Z</time>
      </trkpt>
      <trkpt lat="44.93782" lon="5.11619">
        <ele>375.84201049805</ele>
        <time>2009-10-04T14:59:43Z</time>
      </trkpt>
      <trkpt lat="44.93815" lon="5.11625">
        <ele>378.44500732422</ele>
        <time>2009-10-04T14:59:49Z</time>
      </trkpt>
      <trkpt lat="44.93846" lon="5.11635">
        <ele>381.85598754883</ele>
        <time>2009-10-04T14:59:55Z</time>
      </trkpt>
      <trkpt lat="44.93866" lon="5.11642">
        <ele>383.1369934082</ele>
        <time>2009-10-04T15:00:01Z</time>
      </trkpt>
      <trkpt lat="44.9387" lon="5.11643">
        <ele>383.06201171875</ele>
        <time>2009-10-04T15:00:02Z</time>
      </trkpt>
      <trkpt lat="44.93943" lon="5.11689">
        <ele>385.56298828125</ele>
        <time>2009-10-04T15:00:18Z</time>
      </trkpt>
      <trkpt lat="44.93974" lon="5.11712">
        <ele>384.77899169922</ele>
        <time>2009-10-04T15:00:24Z</time>
      </trkpt>
      <trkpt lat="44.94004" lon="5.11736">
        <ele>383.65100097656</ele>
        <time>2009-10-04T15:00:29Z</time>
      </trkpt>
      <trkpt lat="44.94022" lon="5.11767">
        <ele>382.70498657227</ele>
        <time>2009-10-04T15:00:33Z</time>
      </trkpt>
      <trkpt lat="44.9403" lon="5.11786">
        <ele>381.72601318359</ele>
        <time>2009-10-04T15:00:35Z</time>
      </trkpt>
      <trkpt lat="44.94058" lon="5.11814">
        <ele>379.77600097656</ele>
        <time>2009-10-04T15:00:39Z</time>
      </trkpt>
      <trkpt lat="44.9416" lon="5.11854">
        <ele>378.08099365234</ele>
        <time>2009-10-04T15:00:52Z</time>
      </trkpt>
      <trkpt lat="44.94246" lon="5.11894">
        <ele>377.36898803711</ele>
        <time>2009-10-04T15:01:04Z</time>
      </trkpt>
      <trkpt lat="44.94254" lon="5.11898">
        <ele>377.37600708008</ele>
        <time>2009-10-04T15:01:05Z</time>
      </trkpt>
      <trkpt lat="44.94323" lon="5.11915">
        <ele>375.3630065918</ele>
        <time>2009-10-04T15:01:14Z</time>
      </trkpt>
      <trkpt lat="44.94433" lon="5.11902">
        <ele>370.71200561523</ele>
        <time>2009-10-04T15:01:26Z</time>
      </trkpt>
      <trkpt lat="44.94442" lon="5.11903">
        <ele>370.67300415039</ele>
        <time>2009-10-04T15:01:27Z</time>
      </trkpt>
      <trkpt lat="44.94476" lon="5.11919">
        <ele>370.77200317383</ele>
        <time>2009-10-04T15:01:31Z</time>
      </trkpt>
      <trkpt lat="44.94556" lon="5.11971">
        <ele>373.30499267578</ele>
        <time>2009-10-04T15:01:44Z</time>
      </trkpt>
      <trkpt lat="44.94631" lon="5.11994">
        <ele>374.7380065918</ele>
        <time>2009-10-04T15:01:58Z</time>
      </trkpt>
      <trkpt lat="44.94715" lon="5.12031">
        <ele>376.90200805664</ele>
        <time>2009-10-04T15:02:15Z</time>
      </trkpt>
      <trkpt lat="44.94759" lon="5.12049">
        <ele>377.97698974609</ele>
        <time>2009-10-04T15:02:24Z</time>
      </trkpt>
      <trkpt lat="44.94849" lon="5.12085">
        <ele>375.64801025391</ele>
        <time>2009-10-04T15:02:38Z</time>
      </trkpt>
      <trkpt lat="44.94925" lon="5.12156">
        <ele>376.91198730469</ele>
        <time>2009-10-04T15:02:52Z</time>
      </trkpt>
      <trkpt lat="44.94986" lon="5.1224">
        <ele>379.77499389648</ele>
        <time>2009-10-04T15:03:09Z</time>
      </trkpt>
      <trkpt lat="44.95045" lon="5.12309">
        <ele>383.38299560547</ele>
        <time>2009-10-04T15:03:26Z</time>
      </trkpt>
      <trkpt lat="44.9507" lon="5.12338">
        <ele>383.82901000977</ele>
        <time>2009-10-04T15:03:33Z</time>
      </trkpt>
      <trkpt lat="44.95125" lon="5.12395">
        <ele>385.62701416016</ele>
        <time>2009-10-04T15:03:48Z</time>
      </trkpt>
      <trkpt lat="44.95192" lon="5.1244">
        <ele>387.73300170898</ele>
        <time>2009-10-04T15:04:04Z</time>
      </trkpt>
      <trkpt lat="44.95229" lon="5.12456">
        <ele>389.39999389648</ele>
        <time>2009-10-04T15:04:13Z</time>
      </trkpt>
      <trkpt lat="44.95299" lon="5.12488">
        <ele>390.35101318359</ele>
        <time>2009-10-04T15:04:28Z</time>
      </trkpt>
      <trkpt lat="44.9532" lon="5.12524">
        <ele>390.34298706055</ele>
        <time>2009-10-04T15:04:35Z</time>
      </trkpt>
      <trkpt lat="44.95331" lon="5.12547">
        <ele>390.2619934082</ele>
        <time>2009-10-04T15:04:39Z</time>
      </trkpt>
      <trkpt lat="44.95348" lon="5.12566">
        <ele>390.45098876953</ele>
        <time>2009-10-04T15:04:43Z</time>
      </trkpt>
      <trkpt lat="44.95407" lon="5.12593">
        <ele>391.36801147461</ele>
        <time>2009-10-04T15:04:54Z</time>
      </trkpt>
      <trkpt lat="44.95444" lon="5.12608">
        <ele>392.0539855957</ele>
        <time>2009-10-04T15:05:01Z</time>
      </trkpt>
      <trkpt lat="44.95464" lon="5.12618">
        <ele>392.21499633789</ele>
        <time>2009-10-04T15:05:05Z</time>
      </trkpt>
      <trkpt lat="44.95543" lon="5.12673">
        <ele>396.47399902344</ele>
        <time>2009-10-04T15:05:23Z</time>
      </trkpt>
      <trkpt lat="44.95574" lon="5.12708">
        <ele>398.44299316406</ele>
        <time>2009-10-04T15:05:32Z</time>
      </trkpt>
      <trkpt lat="44.95615" lon="5.12749">
        <ele>400.36999511719</ele>
        <time>2009-10-04T15:05:44Z</time>
      </trkpt>
      <trkpt lat="44.95638" lon="5.1273">
        <ele>401.07901000977</ele>
        <time>2009-10-04T15:05:51Z</time>
      </trkpt>
      <trkpt lat="44.9564" lon="5.12715">
        <ele>400.89199829102</ele>
        <time>2009-10-04T15:05:53Z</time>
      </trkpt>
      <trkpt lat="44.95641" lon="5.12579">
        <ele>397.00201416016</ele>
        <time>2009-10-04T15:06:06Z</time>
      </trkpt>
      <trkpt lat="44.95641" lon="5.12503">
        <ele>394.63500976562</ele>
        <time>2009-10-04T15:06:12Z</time>
      </trkpt>
      <trkpt lat="44.95641" lon="5.12462">
        <ele>393.41400146484</ele>
        <time>2009-10-04T15:06:15Z</time>
      </trkpt>
      <trkpt lat="44.95641" lon="5.12373">
        <ele>390.89599609375</ele>
        <time>2009-10-04T15:06:21Z</time>
      </trkpt>
      <trkpt lat="44.95641" lon="5.12327">
        <ele>389.4469909668</ele>
        <time>2009-10-04T15:06:24Z</time>
      </trkpt>
      <trkpt lat="44.9564" lon="5.12263">
        <ele>387.56399536133</ele>
        <time>2009-10-04T15:06:28Z</time>
      </trkpt>
      <trkpt lat="44.9564" lon="5.12182">
        <ele>385.33401489258</ele>
        <time>2009-10-04T15:06:33Z</time>
      </trkpt>
      <trkpt lat="44.95639" lon="5.12067">
        <ele>382.64801025391</ele>
        <time>2009-10-04T15:06:40Z</time>
      </trkpt>
      <trkpt lat="44.95641" lon="5.11954">
        <ele>379.41500854492</ele>
        <time>2009-10-04T15:06:47Z</time>
      </trkpt>
      <trkpt lat="44.95698" lon="5.11794">
        <ele>374.64700317383</ele>
        <time>2009-10-04T15:06:58Z</time>
      </trkpt>
      <trkpt lat="44.9572" lon="5.11737">
        <ele>372.71099853516</ele>
        <time>2009-10-04T15:07:02Z</time>
      </trkpt>
      <trkpt lat="44.95728" lon="5.11706">
        <ele>371.45498657227</ele>
        <time>2009-10-04T15:07:04Z</time>
      </trkpt>
      <trkpt lat="44.95752" lon="5.11611">
        <ele>368.1669921875</ele>
        <time>2009-10-04T15:07:10Z</time>
      </trkpt>
      <trkpt lat="44.95771" lon="5.1153">
        <ele>365.63400268555</ele>
        <time>2009-10-04T15:07:15Z</time>
      </trkpt>
      <trkpt lat="44.95783" lon="5.11481">
        <ele>363.64898681641</ele>
        <time>2009-10-04T15:07:18Z</time>
      </trkpt>
      <trkpt lat="44.95842" lon="5.11238">
        <ele>356.98400878906</ele>
        <time>2009-10-04T15:07:33Z</time>
      </trkpt>
      <trkpt lat="44.95862" lon="5.11158">
        <ele>354.70401000977</ele>
        <time>2009-10-04T15:07:38Z</time>
      </trkpt>
      <trkpt lat="44.95877" lon="5.11093">
        <ele>352.9460144043</ele>
        <time>2009-10-04T15:07:42Z</time>
      </trkpt>
      <trkpt lat="44.95917" lon="5.10946">
        <ele>347.07998657227</ele>
        <time>2009-10-04T15:07:51Z</time>
      </trkpt>
      <trkpt lat="44.95937" lon="5.1088">
        <ele>344.64898681641</ele>
        <time>2009-10-04T15:07:55Z</time>
      </trkpt>
      <trkpt lat="44.95969" lon="5.10766">
        <ele>340.67498779297</ele>
        <time>2009-10-04T15:08:02Z</time>
      </trkpt>
      <trkpt lat="44.96012" lon="5.10584">
        <ele>334.90301513672</ele>
        <time>2009-10-04T15:08:13Z</time>
      </trkpt>
      <trkpt lat="44.96015" lon="5.10513">
        <ele>332.91400146484</ele>
        <time>2009-10-04T15:08:17Z</time>
      </trkpt>
      <trkpt lat="44.96016" lon="5.10388">
        <ele>328.72799682617</ele>
        <time>2009-10-04T15:08:24Z</time>
      </trkpt>
      <trkpt lat="44.96017" lon="5.10318">
        <ele>327.74600219727</ele>
        <time>2009-10-04T15:08:28Z</time>
      </trkpt>
      <trkpt lat="44.96019" lon="5.10192">
        <ele>323.45599365234</ele>
        <time>2009-10-04T15:08:35Z</time>
      </trkpt>
      <trkpt lat="44.96021" lon="5.10139">
        <ele>321.97799682617</ele>
        <time>2009-10-04T15:08:38Z</time>
      </trkpt>
      <trkpt lat="44.96021" lon="5.10104">
        <ele>320.90100097656</ele>
        <time>2009-10-04T15:08:40Z</time>
      </trkpt>
      <trkpt lat="44.96034" lon="5.10004">
        <ele>316.8450012207</ele>
        <time>2009-10-04T15:08:46Z</time>
      </trkpt>
      <trkpt lat="44.96055" lon="5.09909">
        <ele>313.98999023438</ele>
        <time>2009-10-04T15:08:52Z</time>
      </trkpt>
      <trkpt lat="44.9607" lon="5.09846">
        <ele>311.79000854492</ele>
        <time>2009-10-04T15:08:56Z</time>
      </trkpt>
      <trkpt lat="44.96082" lon="5.09765">
        <ele>309.25601196289</ele>
        <time>2009-10-04T15:09:01Z</time>
      </trkpt>
      <trkpt lat="44.96087" lon="5.09698">
        <ele>307.35998535156</ele>
        <time>2009-10-04T15:09:05Z</time>
      </trkpt>
      <trkpt lat="44.96097" lon="5.0953">
        <ele>303.10800170898</ele>
        <time>2009-10-04T15:09:15Z</time>
      </trkpt>
      <trkpt lat="44.96101" lon="5.09481">
        <ele>301.74700927734</ele>
        <time>2009-10-04T15:09:18Z</time>
      </trkpt>
      <trkpt lat="44.9614" lon="5.093">
        <ele>298.11599731445</ele>
        <time>2009-10-04T15:09:30Z</time>
      </trkpt>
      <trkpt lat="44.96215" lon="5.09092">
        <ele>292.44198608398</ele>
        <time>2009-10-04T15:09:46Z</time>
      </trkpt>
      <trkpt lat="44.96291" lon="5.0892">
        <ele>287.47500610352</ele>
        <time>2009-10-04T15:10:00Z</time>
      </trkpt>
      <trkpt lat="44.96314" lon="5.08871">
        <ele>285.82400512695</ele>
        <time>2009-10-04T15:10:04Z</time>
      </trkpt>
      <trkpt lat="44.96398" lon="5.08685">
        <ele>279.54598999023</ele>
        <time>2009-10-04T15:10:19Z</time>
      </trkpt>
      <trkpt lat="44.96404" lon="5.08673">
        <ele>279.13299560547</ele>
        <time>2009-10-04T15:10:20Z</time>
      </trkpt>
      <trkpt lat="44.9642" lon="5.08591">
        <ele>276.65100097656</ele>
        <time>2009-10-04T15:10:26Z</time>
      </trkpt>
      <trkpt lat="44.96422" lon="5.08563">
        <ele>275.92999267578</ele>
        <time>2009-10-04T15:10:28Z</time>
      </trkpt>
      <trkpt lat="44.96423" lon="5.08436">
        <ele>272.75799560547</ele>
        <time>2009-10-04T15:10:37Z</time>
      </trkpt>
      <trkpt lat="44.96432" lon="5.0833">
        <ele>269.9880065918</ele>
        <time>2009-10-04T15:10:44Z</time>
      </trkpt>
      <trkpt lat="44.96417" lon="5.08161">
        <ele>266.61700439453</ele>
        <time>2009-10-04T15:10:55Z</time>
      </trkpt>
      <trkpt lat="44.9642" lon="5.08083">
        <ele>264.46701049805</ele>
        <time>2009-10-04T15:11:00Z</time>
      </trkpt>
      <trkpt lat="44.96423" lon="5.08022">
        <ele>262.74899291992</ele>
        <time>2009-10-04T15:11:04Z</time>
      </trkpt>
      <trkpt lat="44.96448" lon="5.07914">
        <ele>260.47698974609</ele>
        <time>2009-10-04T15:11:12Z</time>
      </trkpt>
      <trkpt lat="44.96473" lon="5.07828">
        <ele>259.16101074219</ele>
        <time>2009-10-04T15:11:19Z</time>
      </trkpt>
      <trkpt lat="44.96482" lon="5.07806">
        <ele>258.82299804688</ele>
        <time>2009-10-04T15:11:21Z</time>
      </trkpt>
      <trkpt lat="44.96489" lon="5.07784">
        <ele>258.72900390625</ele>
        <time>2009-10-04T15:11:23Z</time>
      </trkpt>
      <trkpt lat="44.96519" lon="5.07787">
        <ele>258.44299316406</ele>
        <time>2009-10-04T15:11:28Z</time>
      </trkpt>
      <trkpt lat="44.96543" lon="5.07815">
        <ele>257.54501342773</ele>
        <time>2009-10-04T15:11:32Z</time>
      </trkpt>
      <trkpt lat="44.96572" lon="5.07838">
        <ele>257.16000366211</ele>
        <time>2009-10-04T15:11:36Z</time>
      </trkpt>
      <trkpt lat="44.96648" lon="5.07875">
        <ele>257.24398803711</ele>
        <time>2009-10-04T15:11:47Z</time>
      </trkpt>
      <trkpt lat="44.96662" lon="5.07882">
        <ele>257.64801025391</ele>
        <time>2009-10-04T15:11:49Z</time>
      </trkpt>
      <trkpt lat="44.96697" lon="5.07907">
        <ele>259.11599731445</ele>
        <time>2009-10-04T15:11:55Z</time>
      </trkpt>
      <trkpt lat="44.96756" lon="5.07942">
        <ele>259.67999267578</ele>
        <time>2009-10-04T15:12:05Z</time>
      </trkpt>
      <trkpt lat="44.96804" lon="5.07966">
        <ele>259.74499511719</ele>
        <time>2009-10-04T15:12:13Z</time>
      </trkpt>
      <trkpt lat="44.96851" lon="5.07948">
        <ele>258.98901367188</ele>
        <time>2009-10-04T15:12:20Z</time>
      </trkpt>
      <trkpt lat="44.96949" lon="5.0785">
        <ele>255.97999572754</ele>
        <time>2009-10-04T15:12:34Z</time>
      </trkpt>
      <trkpt lat="44.96985" lon="5.07835">
        <ele>255.19000244141</ele>
        <time>2009-10-04T15:12:38Z</time>
      </trkpt>
      <trkpt lat="44.97115" lon="5.0785">
        <ele>253.64500427246</ele>
        <time>2009-10-04T15:12:53Z</time>
      </trkpt>
      <trkpt lat="44.97245" lon="5.07834">
        <ele>252.79499816894</ele>
        <time>2009-10-04T15:13:09Z</time>
      </trkpt>
      <trkpt lat="44.97253" lon="5.07831">
        <ele>252.77099609375</ele>
        <time>2009-10-04T15:13:10Z</time>
      </trkpt>
      <trkpt lat="44.97282" lon="5.07806">
        <ele>251.83700561523</ele>
        <time>2009-10-04T15:13:14Z</time>
      </trkpt>
      <trkpt lat="44.97302" lon="5.07782">
        <ele>251.09300231934</ele>
        <time>2009-10-04T15:13:17Z</time>
      </trkpt>
      <trkpt lat="44.97335" lon="5.07762">
        <ele>249.80599975586</ele>
        <time>2009-10-04T15:13:21Z</time>
      </trkpt>
      <trkpt lat="44.97454" lon="5.07762">
        <ele>249.22200012207</ele>
        <time>2009-10-04T15:13:35Z</time>
      </trkpt>
      <trkpt lat="44.97582" lon="5.07795">
        <ele>247.99699401856</ele>
        <time>2009-10-04T15:13:52Z</time>
      </trkpt>
      <trkpt lat="44.97735" lon="5.07822">
        <ele>245.42500305176</ele>
        <time>2009-10-04T15:14:11Z</time>
      </trkpt>
      <trkpt lat="44.97875" lon="5.07816">
        <ele>243.54200744629</ele>
        <time>2009-10-04T15:14:27Z</time>
      </trkpt>
      <trkpt lat="44.98043" lon="5.0778">
        <ele>240.96699523926</ele>
        <time>2009-10-04T15:14:46Z</time>
      </trkpt>
      <trkpt lat="44.9819" lon="5.07741">
        <ele>240.30099487305</ele>
        <time>2009-10-04T15:15:04Z</time>
      </trkpt>
      <trkpt lat="44.9834" lon="5.07719">
        <ele>237.5</ele>
        <time>2009-10-04T15:15:22Z</time>
      </trkpt>
      <trkpt lat="44.98367" lon="5.07727">
        <ele>236.23399353027</ele>
        <time>2009-10-04T15:15:25Z</time>
      </trkpt>
      <trkpt lat="44.98496" lon="5.07797">
        <ele>233.45199584961</ele>
        <time>2009-10-04T15:15:39Z</time>
      </trkpt>
      <trkpt lat="44.98559" lon="5.0783">
        <ele>232.02299499512</ele>
        <time>2009-10-04T15:15:46Z</time>
      </trkpt>
      <trkpt lat="44.98605" lon="5.07804">
        <ele>231.4700012207</ele>
        <time>2009-10-04T15:15:52Z</time>
      </trkpt>
      <trkpt lat="44.9861" lon="5.07794">
        <ele>231.11000061035</ele>
        <time>2009-10-04T15:15:53Z</time>
      </trkpt>
      <trkpt lat="44.98692" lon="5.07652">
        <ele>228.72700500488</ele>
        <time>2009-10-04T15:16:07Z</time>
      </trkpt>
      <trkpt lat="44.98817" lon="5.07513">
        <ele>226.54499816894</ele>
        <time>2009-10-04T15:16:25Z</time>
      </trkpt>
      <trkpt lat="44.98919" lon="5.07367">
        <ele>225.18699645996</ele>
        <time>2009-10-04T15:16:41Z</time>
      </trkpt>
      <trkpt lat="44.98977" lon="5.07251">
        <ele>224.28199768066</ele>
        <time>2009-10-04T15:16:54Z</time>
      </trkpt>
      <trkpt lat="44.99061" lon="5.07112">
        <ele>223.76499938965</ele>
        <time>2009-10-04T15:17:11Z</time>
      </trkpt>
      <trkpt lat="44.99173" lon="5.06969">
        <ele>219.55599975586</ele>
        <time>2009-10-04T15:17:28Z</time>
      </trkpt>
      <trkpt lat="44.99187" lon="5.06951">
        <ele>218.72799682617</ele>
        <time>2009-10-04T15:17:30Z</time>
      </trkpt>
      <trkpt lat="44.99318" lon="5.06819">
        <ele>212.25900268555</ele>
        <time>2009-10-04T15:17:46Z</time>
      </trkpt>
      <trkpt lat="44.99363" lon="5.06768">
        <ele>210.94799804688</ele>
        <time>2009-10-04T15:17:52Z</time>
      </trkpt>
      <trkpt lat="44.99395" lon="5.06699">
        <ele>210.0950012207</ele>
        <time>2009-10-04T15:17:58Z</time>
      </trkpt>
      <trkpt lat="44.99458" lon="5.06647">
        <ele>209.14700317383</ele>
        <time>2009-10-04T15:18:06Z</time>
      </trkpt>
      <trkpt lat="44.99633" lon="5.06638">
        <ele>208.27499389648</ele>
        <time>2009-10-04T15:18:26Z</time>
      </trkpt>
      <trkpt lat="44.99709" lon="5.06596">
        <ele>207.60200500488</ele>
        <time>2009-10-04T15:18:36Z</time>
      </trkpt>
      <trkpt lat="44.9983" lon="5.06494">
        <ele>206.86099243164</ele>
        <time>2009-10-04T15:18:55Z</time>
      </trkpt>
      <trkpt lat="44.99911" lon="5.06415">
        <ele>207.08599853516</ele>
        <time>2009-10-04T15:19:09Z</time>
      </trkpt>
      <trkpt lat="45.00008" lon="5.06336">
        <ele>207.14900207519</ele>
        <time>2009-10-04T15:19:24Z</time>
      </trkpt>
      <trkpt lat="45.00056" lon="5.06283">
        <ele>206.2619934082</ele>
        <time>2009-10-04T15:19:32Z</time>
      </trkpt>
      <trkpt lat="45.0013" lon="5.06263">
        <ele>203.19999694824</ele>
        <time>2009-10-04T15:19:41Z</time>
      </trkpt>
      <trkpt lat="45.0026" lon="5.06271">
        <ele>199.54499816894</ele>
        <time>2009-10-04T15:19:56Z</time>
      </trkpt>
      <trkpt lat="45.00426" lon="5.06284">
        <ele>198.40600585938</ele>
        <time>2009-10-04T15:20:16Z</time>
      </trkpt>
      <trkpt lat="45.00579" lon="5.06296">
        <ele>198.02799987793</ele>
        <time>2009-10-04T15:20:36Z</time>
      </trkpt>
      <trkpt lat="45.00689" lon="5.06268">
        <ele>198.04800415039</ele>
        <time>2009-10-04T15:20:51Z</time>
      </trkpt>
      <trkpt lat="45.00788" lon="5.06231">
        <ele>198.33299255371</ele>
        <time>2009-10-04T15:21:06Z</time>
      </trkpt>
      <trkpt lat="45.00927" lon="5.06232">
        <ele>198.04600524902</ele>
        <time>2009-10-04T15:21:26Z</time>
      </trkpt>
      <trkpt lat="45.01056" lon="5.06278">
        <ele>199.06300354004</ele>
        <time>2009-10-04T15:21:46Z</time>
      </trkpt>
      <trkpt lat="45.0117" lon="5.06293">
        <ele>198.66999816894</ele>
        <time>2009-10-04T15:22:03Z</time>
      </trkpt>
      <trkpt lat="45.01265" lon="5.06238">
        <ele>199.75700378418</ele>
        <time>2009-10-04T15:22:18Z</time>
      </trkpt>
      <trkpt lat="45.01369" lon="5.06187">
        <ele>200.16799926758</ele>
        <time>2009-10-04T15:22:34Z</time>
      </trkpt>
      <trkpt lat="45.01493" lon="5.06151">
        <ele>199.06399536133</ele>
        <time>2009-10-04T15:22:51Z</time>
      </trkpt>
      <trkpt lat="45.01647" lon="5.06116">
        <ele>197.87600708008</ele>
        <time>2009-10-04T15:23:11Z</time>
      </trkpt>
      <trkpt lat="45.01822" lon="5.06089">
        <ele>198.02400207519</ele>
        <time>2009-10-04T15:23:34Z</time>
      </trkpt>
      <trkpt lat="45.01964" lon="5.06066">
        <ele>197.61199951172</ele>
        <time>2009-10-04T15:23:54Z</time>
      </trkpt>
      <trkpt lat="45.01988" lon="5.06061">
        <ele>199.06300354004</ele>
        <time>2009-10-04T15:23:58Z</time>
      </trkpt>
      <trkpt lat="45.0207" lon="5.06042">
        <ele>202.80099487305</ele>
        <time>2009-10-04T15:24:15Z</time>
      </trkpt>
      <trkpt lat="45.02158" lon="5.06021">
        <ele>201.47599792481</ele>
        <time>2009-10-04T15:24:30Z</time>
      </trkpt>
      <trkpt lat="45.02261" lon="5.05998">
        <ele>196.18800354004</ele>
        <time>2009-10-04T15:24:43Z</time>
      </trkpt>
      <trkpt lat="45.02269" lon="5.05996">
        <ele>196.06399536133</ele>
        <time>2009-10-04T15:24:44Z</time>
      </trkpt>
      <trkpt lat="45.02372" lon="5.05973">
        <ele>198.15699768066</ele>
        <time>2009-10-04T15:24:58Z</time>
      </trkpt>
      <trkpt lat="45.02415" lon="5.05966">
        <ele>198.44200134277</ele>
        <time>2009-10-04T15:25:04Z</time>
      </trkpt>
      <trkpt lat="45.02506" lon="5.06006">
        <ele>196.50500488281</ele>
        <time>2009-10-04T15:25:16Z</time>
      </trkpt>
      <trkpt lat="45.0254" lon="5.06027">
        <ele>195.91900634766</ele>
        <time>2009-10-04T15:25:20Z</time>
      </trkpt>
      <trkpt lat="45.02562" lon="5.06053">
        <ele>195.44000244141</ele>
        <time>2009-10-04T15:25:23Z</time>
      </trkpt>
      <trkpt lat="45.02599" lon="5.0605">
        <ele>193.83399963379</ele>
        <time>2009-10-04T15:25:28Z</time>
      </trkpt>
      <trkpt lat="45.02608" lon="5.06023">
        <ele>191.74899291992</ele>
        <time>2009-10-04T15:25:30Z</time>
      </trkpt>
      <trkpt lat="45.02649" lon="5.05853">
        <ele>183.70199584961</ele>
        <time>2009-10-04T15:25:41Z</time>
      </trkpt>
      <trkpt lat="45.02654" lon="5.05887">
        <ele>181.33500671387</ele>
        <time>2009-10-04T15:25:46Z</time>
      </trkpt>
      <trkpt lat="45.0265" lon="5.05897">
        <ele>180.77299499512</ele>
        <time>2009-10-04T15:25:47Z</time>
      </trkpt>
      <trkpt lat="45.02645" lon="5.05918">
        <ele>179.9880065918</ele>
        <time>2009-10-04T15:25:49Z</time>
      </trkpt>
      <trkpt lat="45.0264" lon="5.05942">
        <ele>179.02900695801</ele>
        <time>2009-10-04T15:25:51Z</time>
      </trkpt>
      <trkpt lat="45.02659" lon="5.05976">
        <ele>176.74499511719</ele>
        <time>2009-10-04T15:25:55Z</time>
      </trkpt>
      <trkpt lat="45.0267" lon="5.05978">
        <ele>175.73599243164</ele>
        <time>2009-10-04T15:25:56Z</time>
      </trkpt>
      <trkpt lat="45.02752" lon="5.05975">
        <ele>173.06700134277</ele>
        <time>2009-10-04T15:26:04Z</time>
      </trkpt>
      <trkpt lat="45.02877" lon="5.0598">
        <ele>172.41200256348</ele>
        <time>2009-10-04T15:26:18Z</time>
      </trkpt>
      <trkpt lat="45.02986" lon="5.05981">
        <ele>173.58700561523</ele>
        <time>2009-10-04T15:26:33Z</time>
      </trkpt>
      <trkpt lat="45.03012" lon="5.05966">
        <ele>174</ele>
        <time>2009-10-04T15:26:38Z</time>
      </trkpt>
      <trkpt lat="45.03016" lon="5.05958">
        <ele>173.97099304199</ele>
        <time>2009-10-04T15:26:39Z</time>
      </trkpt>
      <trkpt lat="45.03047" lon="5.05913">
        <ele>173.61500549316</ele>
        <time>2009-10-04T15:26:45Z</time>
      </trkpt>
      <trkpt lat="45.03076" lon="5.05895">
        <ele>173.22099304199</ele>
        <time>2009-10-04T15:26:49Z</time>
      </trkpt>
      <trkpt lat="45.03138" lon="5.05865">
        <ele>172.28100585938</ele>
        <time>2009-10-04T15:26:57Z</time>
      </trkpt>
      <trkpt lat="45.0316" lon="5.05851">
        <ele>172.50199890137</ele>
        <time>2009-10-04T15:27:00Z</time>
      </trkpt>
      <trkpt lat="45.0318" lon="5.05831">
        <ele>172.63200378418</ele>
        <time>2009-10-04T15:27:03Z</time>
      </trkpt>
      <trkpt lat="45.03242" lon="5.0572">
        <ele>172.82400512695</ele>
        <time>2009-10-04T15:27:16Z</time>
      </trkpt>
      <trkpt lat="45.03256" lon="5.05695">
        <ele>172.93699645996</ele>
        <time>2009-10-04T15:27:19Z</time>
      </trkpt>
      <trkpt lat="45.0331" lon="5.05635">
        <ele>172.79800415039</ele>
        <time>2009-10-04T15:27:28Z</time>
      </trkpt>
      <trkpt lat="45.03405" lon="5.05596">
        <ele>173.07200622559</ele>
        <time>2009-10-04T15:27:41Z</time>
      </trkpt>
      <trkpt lat="45.03493" lon="5.05578">
        <ele>171.5</ele>
        <time>2009-10-04T15:27:54Z</time>
      </trkpt>
      <trkpt lat="45.03532" lon="5.05572">
        <ele>168.54299926758</ele>
        <time>2009-10-04T15:27:59Z</time>
      </trkpt>
      <trkpt lat="45.03558" lon="5.05562">
        <ele>167.11700439453</ele>
        <time>2009-10-04T15:28:02Z</time>
      </trkpt>
      <trkpt lat="45.03587" lon="5.0554">
        <ele>167.42900085449</ele>
        <time>2009-10-04T15:28:06Z</time>
      </trkpt>
      <trkpt lat="45.0363" lon="5.05495">
        <ele>167.08700561523</ele>
        <time>2009-10-04T15:28:13Z</time>
      </trkpt>
      <trkpt lat="45.03645" lon="5.0548">
        <ele>166.72999572754</ele>
        <time>2009-10-04T15:28:20Z</time>
      </trkpt>
      <trkpt lat="45.03656" lon="5.05467">
        <ele>166.53500366211</ele>
        <time>2009-10-04T15:28:24Z</time>
      </trkpt>
      <trkpt lat="45.03676" lon="5.05463">
        <ele>166.75</ele>
        <time>2009-10-04T15:28:29Z</time>
      </trkpt>
      <trkpt lat="45.03698" lon="5.05479">
        <ele>167.40299987793</ele>
        <time>2009-10-04T15:28:43Z</time>
      </trkpt>
      <trkpt lat="45.03704" lon="5.05484">
        <ele>167.5950012207</ele>
        <time>2009-10-04T15:28:53Z</time>
      </trkpt>
      <trkpt lat="45.03706" lon="5.05485">
        <ele>167.63900756836</ele>
        <time>2009-10-04T15:28:55Z</time>
      </trkpt>
      <trkpt lat="45.03713" lon="5.05496">
        <ele>167.75900268555</ele>
        <time>2009-10-04T15:29:12Z</time>
      </trkpt>
      <trkpt lat="45.03733" lon="5.0551">
        <ele>167.92399597168</ele>
        <time>2009-10-04T15:29:20Z</time>
      </trkpt>
      <trkpt lat="45.03754" lon="5.05524">
        <ele>168.21600341797</ele>
        <time>2009-10-04T15:29:24Z</time>
      </trkpt>
      <trkpt lat="45.03772" lon="5.05533">
        <ele>168.96099853516</ele>
        <time>2009-10-04T15:29:27Z</time>
      </trkpt>
      <trkpt lat="45.03792" lon="5.05541">
        <ele>168.77200317383</ele>
        <time>2009-10-04T15:29:30Z</time>
      </trkpt>
      <trkpt lat="45.03835" lon="5.05552">
        <ele>168.24800109863</ele>
        <time>2009-10-04T15:29:36Z</time>
      </trkpt>
      <trkpt lat="45.03904" lon="5.05574">
        <ele>166.17900085449</ele>
        <time>2009-10-04T15:29:45Z</time>
      </trkpt>
      <trkpt lat="45.04009" lon="5.0562">
        <ele>159.7859954834</ele>
        <time>2009-10-04T15:29:57Z</time>
      </trkpt>
      <trkpt lat="45.04102" lon="5.05639">
        <ele>157.0299987793</ele>
        <time>2009-10-04T15:30:07Z</time>
      </trkpt>
      <trkpt lat="45.04139" lon="5.05642">
        <ele>155.74299621582</ele>
        <time>2009-10-04T15:30:11Z</time>
      </trkpt>
      <trkpt lat="45.0419" lon="5.05648">
        <ele>154.64700317383</ele>
        <time>2009-10-04T15:30:17Z</time>
      </trkpt>
      <trkpt lat="45.04199" lon="5.05649">
        <ele>154.22200012207</ele>
        <time>2009-10-04T15:30:18Z</time>
      </trkpt>
      <trkpt lat="45.04222" lon="5.0566">
        <ele>152.50399780273</ele>
        <time>2009-10-04T15:30:21Z</time>
      </trkpt>
      <trkpt lat="45.04237" lon="5.05694">
        <ele>153.09300231934</ele>
        <time>2009-10-04T15:30:25Z</time>
      </trkpt>
      <trkpt lat="45.0425" lon="5.05751">
        <ele>154.31599426269</ele>
        <time>2009-10-04T15:30:31Z</time>
      </trkpt>
      <trkpt lat="45.04254" lon="5.05768">
        <ele>154.38200378418</ele>
        <time>2009-10-04T15:30:33Z</time>
      </trkpt>
      <trkpt lat="45.04256" lon="5.0582">
        <ele>155.58299255371</ele>
        <time>2009-10-04T15:30:40Z</time>
      </trkpt>
      <trkpt lat="45.04289" lon="5.05813">
        <ele>155.97599792481</ele>
        <time>2009-10-04T15:30:46Z</time>
      </trkpt>
      <trkpt lat="45.04351" lon="5.0584">
        <ele>158.55000305176</ele>
        <time>2009-10-04T15:30:58Z</time>
      </trkpt>
      <trkpt lat="45.04388" lon="5.05856">
        <ele>160.25500488281</ele>
        <time>2009-10-04T15:31:05Z</time>
      </trkpt>
      <trkpt lat="45.0443" lon="5.05844">
        <ele>162.27799987793</ele>
        <time>2009-10-04T15:31:13Z</time>
      </trkpt>
      <trkpt lat="45.04448" lon="5.05815">
        <ele>163.36000061035</ele>
        <time>2009-10-04T15:31:18Z</time>
      </trkpt>
      <trkpt lat="45.04478" lon="5.05678">
        <ele>166.77499389648</ele>
        <time>2009-10-04T15:31:36Z</time>
      </trkpt>
      <trkpt lat="45.04486" lon="5.0564">
        <ele>167.82699584961</ele>
        <time>2009-10-04T15:31:41Z</time>
      </trkpt>
      <trkpt lat="45.04522" lon="5.05572">
        <ele>170.10200500488</ele>
        <time>2009-10-04T15:31:52Z</time>
      </trkpt>
      <trkpt lat="45.04557" lon="5.0558">
        <ele>171.39100646973</ele>
        <time>2009-10-04T15:32:00Z</time>
      </trkpt>
      <trkpt lat="45.0458" lon="5.05555">
        <ele>171.38400268555</ele>
        <time>2009-10-04T15:32:06Z</time>
      </trkpt>
      <trkpt lat="45.04584" lon="5.05524">
        <ele>171.23500061035</ele>
        <time>2009-10-04T15:32:10Z</time>
      </trkpt>
      <trkpt lat="45.04598" lon="5.05373">
        <ele>171.06599426269</ele>
        <time>2009-10-04T15:32:25Z</time>
      </trkpt>
      <trkpt lat="45.04601" lon="5.05341">
        <ele>171.39300537109</ele>
        <time>2009-10-04T15:32:28Z</time>
      </trkpt>
      <trkpt lat="45.04599" lon="5.05294">
        <ele>171.33799743652</ele>
        <time>2009-10-04T15:32:32Z</time>
      </trkpt>
      <trkpt lat="45.0459" lon="5.051">
        <ele>170.90299987793</ele>
        <time>2009-10-04T15:32:48Z</time>
      </trkpt>
      <trkpt lat="45.04588" lon="5.05018">
        <ele>171.12100219727</ele>
        <time>2009-10-04T15:32:55Z</time>
      </trkpt>
      <trkpt lat="45.0462" lon="5.04986">
        <ele>170.73399353027</ele>
        <time>2009-10-04T15:33:02Z</time>
      </trkpt>
      <trkpt lat="45.04733" lon="5.04981">
        <ele>171.75100708008</ele>
        <time>2009-10-04T15:33:17Z</time>
      </trkpt>
      <trkpt lat="45.04825" lon="5.04962">
        <ele>172.28500366211</ele>
        <time>2009-10-04T15:33:30Z</time>
      </trkpt>
      <trkpt lat="45.04856" lon="5.04993">
        <ele>172.03999328613</ele>
        <time>2009-10-04T15:33:37Z</time>
      </trkpt>
      <trkpt lat="45.04854" lon="5.05012">
        <ele>173.32200622559</ele>
        <time>2009-10-04T15:33:39Z</time>
      </trkpt>
      <trkpt lat="45.04849" lon="5.05036">
        <ele>172.83799743652</ele>
        <time>2009-10-04T15:33:42Z</time>
      </trkpt>
      <trkpt lat="45.04861" lon="5.0504">
        <ele>173.26300048828</ele>
        <time>2009-10-04T15:33:47Z</time>
      </trkpt>
      <trkpt lat="45.04863" lon="5.05023">
        <ele>172.97099304199</ele>
        <time>2009-10-04T15:33:49Z</time>
      </trkpt>
      <trkpt lat="45.04868" lon="5.04963">
        <ele>172.99099731445</ele>
        <time>2009-10-04T15:33:55Z</time>
      </trkpt>
      <trkpt lat="45.04871" lon="5.0492">
        <ele>172.81599426269</ele>
        <time>2009-10-04T15:33:59Z</time>
      </trkpt>
      <trkpt lat="45.04889" lon="5.04848">
        <ele>172.39399719238</ele>
        <time>2009-10-04T15:34:06Z</time>
      </trkpt>
      <trkpt lat="45.04893" lon="5.0483">
        <ele>172.51300048828</ele>
        <time>2009-10-04T15:34:08Z</time>
      </trkpt>
      <trkpt lat="45.04897" lon="5.04789">
        <ele>170.97399902344</ele>
        <time>2009-10-04T15:34:12Z</time>
      </trkpt>
      <trkpt lat="45.04945" lon="5.04749">
        <ele>170.35699462891</ele>
        <time>2009-10-04T15:34:20Z</time>
      </trkpt>
      <trkpt lat="45.04973" lon="5.04749">
        <ele>171.58000183106</ele>
        <time>2009-10-04T15:34:24Z</time>
      </trkpt>
      <trkpt lat="45.04996" lon="5.0475">
        <ele>172.80200195312</ele>
        <time>2009-10-04T15:34:28Z</time>
      </trkpt>
      <trkpt lat="45.05021" lon="5.04748">
        <ele>172.75500488281</ele>
        <time>2009-10-04T15:34:32Z</time>
      </trkpt>
      <trkpt lat="45.05113" lon="5.04761">
        <ele>173.10600280762</ele>
        <time>2009-10-04T15:34:46Z</time>
      </trkpt>
      <trkpt lat="45.05163" lon="5.04768">
        <ele>173.78100585938</ele>
        <time>2009-10-04T15:34:53Z</time>
      </trkpt>
      <trkpt lat="45.05256" lon="5.04807">
        <ele>173.70199584961</ele>
        <time>2009-10-04T15:35:05Z</time>
      </trkpt>
      <trkpt lat="45.05374" lon="5.04864">
        <ele>174.07800292969</ele>
        <time>2009-10-04T15:35:21Z</time>
      </trkpt>
      <trkpt lat="45.05478" lon="5.04901">
        <ele>174.70500183106</ele>
        <time>2009-10-04T15:35:35Z</time>
      </trkpt>
      <trkpt lat="45.05605" lon="5.04941">
        <ele>174.86000061035</ele>
        <time>2009-10-04T15:35:52Z</time>
      </trkpt>
      <trkpt lat="45.05718" lon="5.04977">
        <ele>174.16000366211</ele>
        <time>2009-10-04T15:36:07Z</time>
      </trkpt>
      <trkpt lat="45.05849" lon="5.05015">
        <ele>174.04200744629</ele>
        <time>2009-10-04T15:36:24Z</time>
      </trkpt>
      <trkpt lat="45.06" lon="5.05061">
        <ele>174.06199645996</ele>
        <time>2009-10-04T15:36:44Z</time>
      </trkpt>
      <trkpt lat="45.06051" lon="5.05076">
        <ele>174.08700561523</ele>
        <time>2009-10-04T15:36:51Z</time>
      </trkpt>
      <trkpt lat="45.06076" lon="5.05108">
        <ele>174.26300048828</ele>
        <time>2009-10-04T15:36:56Z</time>
      </trkpt>
      <trkpt lat="45.0611" lon="5.0511">
        <ele>174.31700134277</ele>
        <time>2009-10-04T15:37:02Z</time>
      </trkpt>
      <trkpt lat="45.0611" lon="5.05098">
        <ele>174.25300598144</ele>
        <time>2009-10-04T15:37:03Z</time>
      </trkpt>
      <trkpt lat="45.06124" lon="5.04961">
        <ele>173.58500671387</ele>
        <time>2009-10-04T15:37:14Z</time>
      </trkpt>
      <trkpt lat="45.06111" lon="5.04786">
        <ele>174.78900146484</ele>
        <time>2009-10-04T15:37:28Z</time>
      </trkpt>
      <trkpt lat="45.06065" lon="5.046">
        <ele>174.05200195312</ele>
        <time>2009-10-04T15:37:44Z</time>
      </trkpt>
      <trkpt lat="45.06046" lon="5.04415">
        <ele>175.11099243164</ele>
        <time>2009-10-04T15:38:00Z</time>
      </trkpt>
      <trkpt lat="45.06036" lon="5.04215">
        <ele>176.09300231934</ele>
        <time>2009-10-04T15:38:19Z</time>
      </trkpt>
      <trkpt lat="45.06061" lon="5.04167">
        <ele>176.56700134277</ele>
        <time>2009-10-04T15:38:26Z</time>
      </trkpt>
      <trkpt lat="45.06068" lon="5.04168">
        <ele>176.7859954834</ele>
        <time>2009-10-04T15:38:27Z</time>
      </trkpt>
      <trkpt lat="45.06102" lon="5.04171">
        <ele>177.10299682617</ele>
        <time>2009-10-04T15:38:32Z</time>
      </trkpt>
      <trkpt lat="45.06221" lon="5.0413">
        <ele>177.4880065918</ele>
        <time>2009-10-04T15:38:49Z</time>
      </trkpt>
      <trkpt lat="45.06352" lon="5.04087">
        <ele>178.30200195312</ele>
        <time>2009-10-04T15:39:08Z</time>
      </trkpt>
      <trkpt lat="45.06486" lon="5.04076">
        <ele>178.95500183106</ele>
        <time>2009-10-04T15:39:27Z</time>
      </trkpt>
      <trkpt lat="45.06591" lon="5.04072">
        <ele>179.70199584961</ele>
        <time>2009-10-04T15:39:42Z</time>
      </trkpt>
      <trkpt lat="45.06709" lon="5.04049">
        <ele>180.40600585938</ele>
        <time>2009-10-04T15:39:59Z</time>
      </trkpt>
      <trkpt lat="45.06771" lon="5.04016">
        <ele>180.86799621582</ele>
        <time>2009-10-04T15:40:08Z</time>
      </trkpt>
      <trkpt lat="45.06843" lon="5.03964">
        <ele>181.91400146484</ele>
        <time>2009-10-04T15:40:19Z</time>
      </trkpt>
      <trkpt lat="45.0688" lon="5.03908">
        <ele>182.41799926758</ele>
        <time>2009-10-04T15:40:27Z</time>
      </trkpt>
      <trkpt lat="45.06903" lon="5.03906">
        <ele>182.1549987793</ele>
        <time>2009-10-04T15:40:30Z</time>
      </trkpt>
      <trkpt lat="45.07067" lon="5.03948">
        <ele>181.83599853516</ele>
        <time>2009-10-04T15:40:51Z</time>
      </trkpt>
      <trkpt lat="45.07178" lon="5.03995">
        <ele>182.60299682617</ele>
        <time>2009-10-04T15:41:07Z</time>
      </trkpt>
      <trkpt lat="45.07336" lon="5.04058">
        <ele>183.62800598144</ele>
        <time>2009-10-04T15:41:30Z</time>
      </trkpt>
      <trkpt lat="45.07378" lon="5.04071">
        <ele>184.44900512695</ele>
        <time>2009-10-04T15:41:36Z</time>
      </trkpt>
      <trkpt lat="45.07479" lon="5.04075">
        <ele>184.99000549316</ele>
        <time>2009-10-04T15:41:51Z</time>
      </trkpt>
      <trkpt lat="45.07519" lon="5.04069">
        <ele>185.39799499512</ele>
        <time>2009-10-04T15:41:57Z</time>
      </trkpt>
      <trkpt lat="45.07593" lon="5.04057">
        <ele>186.29800415039</ele>
        <time>2009-10-04T15:42:08Z</time>
      </trkpt>
      <trkpt lat="45.07712" lon="5.04014">
        <ele>187.98599243164</ele>
        <time>2009-10-04T15:42:27Z</time>
      </trkpt>
      <trkpt lat="45.07824" lon="5.03962">
        <ele>187.0119934082</ele>
        <time>2009-10-04T15:42:43Z</time>
      </trkpt>
      <trkpt lat="45.07958" lon="5.03859">
        <ele>186.85899353027</ele>
        <time>2009-10-04T15:43:03Z</time>
      </trkpt>
      <trkpt lat="45.07984" lon="5.03838">
        <ele>185.30999755859</ele>
        <time>2009-10-04T15:43:07Z</time>
      </trkpt>
      <trkpt lat="45.08068" lon="5.03785">
        <ele>185.73199462891</ele>
        <time>2009-10-04T15:43:21Z</time>
      </trkpt>
      <trkpt lat="45.08188" lon="5.03754">
        <ele>187.01499938965</ele>
        <time>2009-10-04T15:43:39Z</time>
      </trkpt>
      <trkpt lat="45.08248" lon="5.03695">
        <ele>187.31300354004</ele>
        <time>2009-10-04T15:43:50Z</time>
      </trkpt>
      <trkpt lat="45.08286" lon="5.0358">
        <ele>188.42100524902</ele>
        <time>2009-10-04T15:44:03Z</time>
      </trkpt>
      <trkpt lat="45.08347" lon="5.03445">
        <ele>188.56700134277</ele>
        <time>2009-10-04T15:44:19Z</time>
      </trkpt>
      <trkpt lat="45.08411" lon="5.03337">
        <ele>191.59100341797</ele>
        <time>2009-10-04T15:44:36Z</time>
      </trkpt>
      <trkpt lat="45.08447" lon="5.03277">
        <ele>193.58200073242</ele>
        <time>2009-10-04T15:44:46Z</time>
      </trkpt>
      <trkpt lat="45.08495" lon="5.03196">
        <ele>195.56100463867</ele>
        <time>2009-10-04T15:45:00Z</time>
      </trkpt>
      <trkpt lat="45.08564" lon="5.03099">
        <ele>198.45399475098</ele>
        <time>2009-10-04T15:45:18Z</time>
      </trkpt>
      <trkpt lat="45.08639" lon="5.03056">
        <ele>199.70199584961</ele>
        <time>2009-10-04T15:45:33Z</time>
      </trkpt>
      <trkpt lat="45.08736" lon="5.03018">
        <ele>200.15699768066</ele>
        <time>2009-10-04T15:45:50Z</time>
      </trkpt>
      <trkpt lat="45.08857" lon="5.02977">
        <ele>200.6369934082</ele>
        <time>2009-10-04T15:46:11Z</time>
      </trkpt>
      <trkpt lat="45.08999" lon="5.02926">
        <ele>201.05700683594</ele>
        <time>2009-10-04T15:46:33Z</time>
      </trkpt>
      <trkpt lat="45.091" lon="5.02917">
        <ele>203.18499755859</ele>
        <time>2009-10-04T15:46:49Z</time>
      </trkpt>
      <trkpt lat="45.09203" lon="5.02928">
        <ele>201.83099365234</ele>
        <time>2009-10-04T15:47:04Z</time>
      </trkpt>
      <trkpt lat="45.09317" lon="5.02939">
        <ele>202.31799316406</ele>
        <time>2009-10-04T15:47:21Z</time>
      </trkpt>
      <trkpt lat="45.09424" lon="5.02947">
        <ele>203.69400024414</ele>
        <time>2009-10-04T15:47:40Z</time>
      </trkpt>
      <trkpt lat="45.09484" lon="5.02936">
        <ele>208.28500366211</ele>
        <time>2009-10-04T15:47:55Z</time>
      </trkpt>
      <trkpt lat="45.09565" lon="5.02915">
        <ele>211.71899414062</ele>
        <time>2009-10-04T15:48:16Z</time>
      </trkpt>
      <trkpt lat="45.09642" lon="5.02892">
        <ele>214.39599609375</ele>
        <time>2009-10-04T15:48:35Z</time>
      </trkpt>
      <trkpt lat="45.09753" lon="5.0286">
        <ele>216.92700195312</ele>
        <time>2009-10-04T15:48:59Z</time>
      </trkpt>
      <trkpt lat="45.09827" lon="5.0284">
        <ele>220.68600463867</ele>
        <time>2009-10-04T15:49:17Z</time>
      </trkpt>
      <trkpt lat="45.09839" lon="5.02835">
        <ele>221.18099975586</ele>
        <time>2009-10-04T15:49:20Z</time>
      </trkpt>
      <trkpt lat="45.09909" lon="5.02834">
        <ele>224.38400268555</ele>
        <time>2009-10-04T15:49:38Z</time>
      </trkpt>
      <trkpt lat="45.09966" lon="5.02839">
        <ele>228.17900085449</ele>
        <time>2009-10-04T15:49:55Z</time>
      </trkpt>
      <trkpt lat="45.10022" lon="5.02844">
        <ele>231.86399841309</ele>
        <time>2009-10-04T15:50:12Z</time>
      </trkpt>
      <trkpt lat="45.10067" lon="5.02815">
        <ele>235.11700439453</ele>
        <time>2009-10-04T15:50:27Z</time>
      </trkpt>
      <trkpt lat="45.10066" lon="5.02751">
        <ele>237.97999572754</ele>
        <time>2009-10-04T15:50:41Z</time>
      </trkpt>
      <trkpt lat="45.10036" lon="5.02706">
        <ele>240.79100036621</ele>
        <time>2009-10-04T15:50:54Z</time>
      </trkpt>
      <trkpt lat="45.09996" lon="5.02657">
        <ele>243.99099731445</ele>
        <time>2009-10-04T15:51:07Z</time>
      </trkpt>
      <trkpt lat="45.09977" lon="5.02607">
        <ele>246.54899597168</ele>
        <time>2009-10-04T15:51:18Z</time>
      </trkpt>
      <trkpt lat="45.09955" lon="5.02557">
        <ele>249.13499450684</ele>
        <time>2009-10-04T15:51:30Z</time>
      </trkpt>
      <trkpt lat="45.09916" lon="5.02509">
        <ele>252.02900695801</ele>
        <time>2009-10-04T15:51:45Z</time>
      </trkpt>
      <trkpt lat="45.09892" lon="5.02459">
        <ele>255.3390045166</ele>
        <time>2009-10-04T15:51:58Z</time>
      </trkpt>
      <trkpt lat="45.09874" lon="5.02403">
        <ele>257.66500854492</ele>
        <time>2009-10-04T15:52:10Z</time>
      </trkpt>
      <trkpt lat="45.09856" lon="5.02334">
        <ele>256.62200927734</ele>
        <time>2009-10-04T15:52:20Z</time>
      </trkpt>
      <trkpt lat="45.09845" lon="5.02276">
        <ele>253.78100585938</ele>
        <time>2009-10-04T15:52:26Z</time>
      </trkpt>
      <trkpt lat="45.09849" lon="5.02224">
        <ele>251.76100158691</ele>
        <time>2009-10-04T15:52:30Z</time>
      </trkpt>
      <trkpt lat="45.09852" lon="5.02211">
        <ele>251.18299865723</ele>
        <time>2009-10-04T15:52:31Z</time>
      </trkpt>
      <trkpt lat="45.09895" lon="5.02094">
        <ele>245.95700073242</ele>
        <time>2009-10-04T15:52:40Z</time>
      </trkpt>
      <trkpt lat="45.09916" lon="5.02038">
        <ele>243.33200073242</ele>
        <time>2009-10-04T15:52:44Z</time>
      </trkpt>
      <trkpt lat="45.09921" lon="5.02025">
        <ele>242.89399719238</ele>
        <time>2009-10-04T15:52:45Z</time>
      </trkpt>
      <trkpt lat="45.10017" lon="5.01754">
        <ele>236</ele>
        <time>2009-10-04T15:53:04Z</time>
      </trkpt>
      <trkpt lat="45.10059" lon="5.01573">
        <ele>235.37300109863</ele>
        <time>2009-10-04T15:53:17Z</time>
      </trkpt>
      <trkpt lat="45.10075" lon="5.01363">
        <ele>236.57400512695</ele>
        <time>2009-10-04T15:53:35Z</time>
      </trkpt>
      <trkpt lat="45.10097" lon="5.01179">
        <ele>236.38499450684</ele>
        <time>2009-10-04T15:53:53Z</time>
      </trkpt>
      <trkpt lat="45.1015" lon="5.01066">
        <ele>235.2559967041</ele>
        <time>2009-10-04T15:54:06Z</time>
      </trkpt>
      <trkpt lat="45.10239" lon="5.00944">
        <ele>232.97599792481</ele>
        <time>2009-10-04T15:54:21Z</time>
      </trkpt>
      <trkpt lat="45.10352" lon="5.00852">
        <ele>231.29499816894</ele>
        <time>2009-10-04T15:54:37Z</time>
      </trkpt>
      <trkpt lat="45.10477" lon="5.00754">
        <ele>230.50999450684</ele>
        <time>2009-10-04T15:54:56Z</time>
      </trkpt>
      <trkpt lat="45.10545" lon="5.007">
        <ele>232.59300231934</ele>
        <time>2009-10-04T15:55:10Z</time>
      </trkpt>
      <trkpt lat="45.10558" lon="5.0069">
        <ele>233.31300354004</ele>
        <time>2009-10-04T15:55:13Z</time>
      </trkpt>
      <trkpt lat="45.10603" lon="5.00652">
        <ele>235.6309967041</ele>
        <time>2009-10-04T15:55:25Z</time>
      </trkpt>
      <trkpt lat="45.10637" lon="5.00629">
        <ele>237.47900390625</ele>
        <time>2009-10-04T15:55:34Z</time>
      </trkpt>
      <trkpt lat="45.10678" lon="5.00608">
        <ele>239.93899536133</ele>
        <time>2009-10-04T15:55:45Z</time>
      </trkpt>
      <trkpt lat="45.10743" lon="5.00592">
        <ele>243.63000488281</ele>
        <time>2009-10-04T15:56:02Z</time>
      </trkpt>
      <trkpt lat="45.10806" lon="5.00588">
        <ele>247.6130065918</ele>
        <time>2009-10-04T15:56:20Z</time>
      </trkpt>
      <trkpt lat="45.10862" lon="5.0058">
        <ele>251.15699768066</ele>
        <time>2009-10-04T15:56:37Z</time>
      </trkpt>
      <trkpt lat="45.10925" lon="5.00556">
        <ele>253.75300598144</ele>
        <time>2009-10-04T15:56:54Z</time>
      </trkpt>
      <trkpt lat="45.10976" lon="5.0052">
        <ele>252.88900756836</ele>
        <time>2009-10-04T15:57:06Z</time>
      </trkpt>
      <trkpt lat="45.11025" lon="5.00483">
        <ele>249.96499633789</ele>
        <time>2009-10-04T15:57:14Z</time>
      </trkpt>
      <trkpt lat="45.11081" lon="5.00445">
        <ele>246.58099365234</ele>
        <time>2009-10-04T15:57:21Z</time>
      </trkpt>
      <trkpt lat="45.1109" lon="5.00439">
        <ele>246.29699707031</ele>
        <time>2009-10-04T15:57:22Z</time>
      </trkpt>
      <trkpt lat="45.11117" lon="5.00424">
        <ele>244.55299377441</ele>
        <time>2009-10-04T15:57:25Z</time>
      </trkpt>
      <trkpt lat="45.11127" lon="5.00419">
        <ele>244.42700195312</ele>
        <time>2009-10-04T15:57:26Z</time>
      </trkpt>
      <trkpt lat="45.11184" lon="5.00388">
        <ele>241.02600097656</ele>
        <time>2009-10-04T15:57:32Z</time>
      </trkpt>
      <trkpt lat="45.11258" lon="5.00348">
        <ele>236.7619934082</ele>
        <time>2009-10-04T15:57:40Z</time>
      </trkpt>
      <trkpt lat="45.11373" lon="5.00261">
        <ele>235.10600280762</ele>
        <time>2009-10-04T15:57:55Z</time>
      </trkpt>
      <trkpt lat="45.11451" lon="5.00188">
        <ele>234.29600524902</ele>
        <time>2009-10-04T15:58:09Z</time>
      </trkpt>
      <trkpt lat="45.11461" lon="5.00179">
        <ele>234.20399475098</ele>
        <time>2009-10-04T15:58:11Z</time>
      </trkpt>
      <trkpt lat="45.11533" lon="5.0011">
        <ele>233.90400695801</ele>
        <time>2009-10-04T15:58:25Z</time>
      </trkpt>
      <trkpt lat="45.11573" lon="5.00067">
        <ele>233.07400512695</ele>
        <time>2009-10-04T15:58:32Z</time>
      </trkpt>
      <trkpt lat="45.11636" lon="4.99981">
        <ele>230.53500366211</ele>
        <time>2009-10-04T15:58:43Z</time>
      </trkpt>
      <trkpt lat="45.11649" lon="4.99966">
        <ele>229.81500244141</ele>
        <time>2009-10-04T15:58:45Z</time>
      </trkpt>
      <trkpt lat="45.11742" lon="4.99905">
        <ele>223.4880065918</ele>
        <time>2009-10-04T15:58:55Z</time>
      </trkpt>
      <trkpt lat="45.11868" lon="4.9985">
        <ele>215.39199829102</ele>
        <time>2009-10-04T15:59:06Z</time>
      </trkpt>
      <trkpt lat="45.11928" lon="4.99793">
        <ele>211.80999755859</ele>
        <time>2009-10-04T15:59:12Z</time>
      </trkpt>
      <trkpt lat="45.11937" lon="4.99781">
        <ele>211.64300537109</ele>
        <time>2009-10-04T15:59:13Z</time>
      </trkpt>
      <trkpt lat="45.1196" lon="4.99746">
        <ele>210.72799682617</ele>
        <time>2009-10-04T15:59:16Z</time>
      </trkpt>
      <trkpt lat="45.12043" lon="4.99598">
        <ele>211.08799743652</ele>
        <time>2009-10-04T15:59:30Z</time>
      </trkpt>
      <trkpt lat="45.12099" lon="4.99496">
        <ele>210.03500366211</ele>
        <time>2009-10-04T15:59:40Z</time>
      </trkpt>
      <trkpt lat="45.12132" lon="4.99428">
        <ele>208.73300170898</ele>
        <time>2009-10-04T15:59:46Z</time>
      </trkpt>
      <trkpt lat="45.12144" lon="4.9939">
        <ele>208.74099731445</ele>
        <time>2009-10-04T15:59:49Z</time>
      </trkpt>
      <trkpt lat="45.12156" lon="4.9934">
        <ele>208.57600402832</ele>
        <time>2009-10-04T15:59:53Z</time>
      </trkpt>
      <trkpt lat="45.12185" lon="4.99232">
        <ele>208.70899963379</ele>
        <time>2009-10-04T16:00:02Z</time>
      </trkpt>
      <trkpt lat="45.1222" lon="4.99098">
        <ele>209.95700073242</ele>
        <time>2009-10-04T16:00:15Z</time>
      </trkpt>
      <trkpt lat="45.12231" lon="4.99079">
        <ele>211.25500488281</ele>
        <time>2009-10-04T16:00:18Z</time>
      </trkpt>
      <trkpt lat="45.12234" lon="4.99075">
        <ele>211.87600708008</ele>
        <time>2009-10-04T16:00:19Z</time>
      </trkpt>
      <trkpt lat="45.12238" lon="4.99023">
        <ele>212.36500549316</ele>
        <time>2009-10-04T16:00:26Z</time>
      </trkpt>
      <trkpt lat="45.12241" lon="4.99004">
        <ele>212.5</ele>
        <time>2009-10-04T16:00:28Z</time>
      </trkpt>
      <trkpt lat="45.12247" lon="4.98977">
        <ele>213.79400634766</ele>
        <time>2009-10-04T16:00:31Z</time>
      </trkpt>
      <trkpt lat="45.12249" lon="4.9896">
        <ele>213.58700561523</ele>
        <time>2009-10-04T16:00:33Z</time>
      </trkpt>
      <trkpt lat="45.12239" lon="4.98848">
        <ele>212.1549987793</ele>
        <time>2009-10-04T16:00:45Z</time>
      </trkpt>
      <trkpt lat="45.12237" lon="4.98794">
        <ele>210.89799499512</ele>
        <time>2009-10-04T16:00:50Z</time>
      </trkpt>
      <trkpt lat="45.12248" lon="4.98692">
        <ele>208.29400634766</ele>
        <time>2009-10-04T16:00:59Z</time>
      </trkpt>
      <trkpt lat="45.12249" lon="4.98681">
        <ele>207.94500732422</ele>
        <time>2009-10-04T16:01:00Z</time>
      </trkpt>
      <trkpt lat="45.12264" lon="4.9863">
        <ele>207.64700317383</ele>
        <time>2009-10-04T16:01:07Z</time>
      </trkpt>
      <trkpt lat="45.12287" lon="4.98621">
        <ele>208.16600036621</ele>
        <time>2009-10-04T16:01:11Z</time>
      </trkpt>
      <trkpt lat="45.12378" lon="4.98573">
        <ele>209.27799987793</ele>
        <time>2009-10-04T16:01:28Z</time>
      </trkpt>
      <trkpt lat="45.12421" lon="4.98551">
        <ele>209.38499450684</ele>
        <time>2009-10-04T16:01:36Z</time>
      </trkpt>
      <trkpt lat="45.1244" lon="4.9855">
        <ele>210.16799926758</ele>
        <time>2009-10-04T16:01:40Z</time>
      </trkpt>
      <trkpt lat="45.1246" lon="4.98556">
        <ele>211.30599975586</ele>
        <time>2009-10-04T16:01:44Z</time>
      </trkpt>
      <trkpt lat="45.12502" lon="4.98562">
        <ele>214.39300537109</ele>
        <time>2009-10-04T16:01:54Z</time>
      </trkpt>
      <trkpt lat="45.12536" lon="4.98576">
        <ele>217.18099975586</ele>
        <time>2009-10-04T16:02:03Z</time>
      </trkpt>
      <trkpt lat="45.1254" lon="4.98595">
        <ele>218.62800598144</ele>
        <time>2009-10-04T16:02:07Z</time>
      </trkpt>
      <trkpt lat="45.12532" lon="4.98643">
        <ele>223.30900573731</ele>
        <time>2009-10-04T16:02:18Z</time>
      </trkpt>
      <trkpt lat="45.12502" lon="4.98645">
        <ele>224.07899475098</ele>
        <time>2009-10-04T16:02:27Z</time>
      </trkpt>
      <trkpt lat="45.12466" lon="4.98662">
        <ele>224.74699401856</ele>
        <time>2009-10-04T16:02:38Z</time>
      </trkpt>
      <trkpt lat="45.12464" lon="4.98664">
        <ele>224.67599487305</ele>
        <time>2009-10-04T16:02:39Z</time>
      </trkpt>
      <trkpt lat="45.1246" lon="4.98663">
        <ele>224.74600219727</ele>
        <time>2009-10-04T16:02:44Z</time>
      </trkpt>
      <trkpt lat="45.12463" lon="4.98664">
        <ele>226.83799743652</ele>
        <time>2009-10-04T16:33:01Z</time>
      </trkpt>
      <trkpt lat="45.1247" lon="4.98659">
        <ele>226.74600219727</ele>
        <time>2009-10-04T16:33:04Z</time>
      </trkpt>
      <trkpt lat="45.12487" lon="4.98647">
        <ele>226.65400695801</ele>
        <time>2009-10-04T16:33:09Z</time>
      </trkpt>
      <trkpt lat="45.12495" lon="4.98645">
        <ele>226.68499755859</ele>
        <time>2009-10-04T16:33:11Z</time>
      </trkpt>
      <trkpt lat="45.12499" lon="4.98646">
        <ele>226.51300048828</ele>
        <time>2009-10-04T16:33:12Z</time>
      </trkpt>
      <trkpt lat="45.12526" lon="4.9865">
        <ele>226.20899963379</ele>
        <time>2009-10-04T16:33:19Z</time>
      </trkpt>
      <trkpt lat="45.1254" lon="4.98619">
        <ele>222.94599914551</ele>
        <time>2009-10-04T16:33:24Z</time>
      </trkpt>
      <trkpt lat="45.12541" lon="4.986">
        <ele>221.48100280762</ele>
        <time>2009-10-04T16:33:26Z</time>
      </trkpt>
      <trkpt lat="45.12543" lon="4.98583">
        <ele>219.98899841309</ele>
        <time>2009-10-04T16:33:29Z</time>
      </trkpt>
      <trkpt lat="45.12544" lon="4.98579">
        <ele>219.63999938965</ele>
        <time>2009-10-04T16:33:31Z</time>
      </trkpt>
      <trkpt lat="45.12514" lon="4.98558">
        <ele>217.47300720215</ele>
        <time>2009-10-04T16:33:39Z</time>
      </trkpt>
      <trkpt lat="45.12471" lon="4.98553">
        <ele>213.85099792481</ele>
        <time>2009-10-04T16:33:45Z</time>
      </trkpt>
      <trkpt lat="45.12446" lon="4.98545">
        <ele>212.23399353027</ele>
        <time>2009-10-04T16:33:48Z</time>
      </trkpt>
      <trkpt lat="45.12421" lon="4.98513">
        <ele>210.55900573731</ele>
        <time>2009-10-04T16:33:52Z</time>
      </trkpt>
      <trkpt lat="45.12405" lon="4.9846">
        <ele>210.15100097656</ele>
        <time>2009-10-04T16:33:57Z</time>
      </trkpt>
      <trkpt lat="45.12392" lon="4.98412">
        <ele>209.12199401856</ele>
        <time>2009-10-04T16:34:02Z</time>
      </trkpt>
      <trkpt lat="45.12386" lon="4.98393">
        <ele>208.70399475098</ele>
        <time>2009-10-04T16:34:04Z</time>
      </trkpt>
      <trkpt lat="45.12382" lon="4.98369">
        <ele>208.6309967041</ele>
        <time>2009-10-04T16:34:10Z</time>
      </trkpt>
      <trkpt lat="45.1237" lon="4.98364">
        <ele>208.13400268555</ele>
        <time>2009-10-04T16:35:17Z</time>
      </trkpt>
      <trkpt lat="45.12355" lon="4.98377">
        <ele>207.89900207519</ele>
        <time>2009-10-04T16:35:21Z</time>
      </trkpt>
      <trkpt lat="45.12346" lon="4.98397">
        <ele>207.71000671387</ele>
        <time>2009-10-04T16:35:24Z</time>
      </trkpt>
      <trkpt lat="45.12307" lon="4.98414">
        <ele>207.04699707031</ele>
        <time>2009-10-04T16:35:31Z</time>
      </trkpt>
      <trkpt lat="45.1225" lon="4.98411">
        <ele>206.39599609375</ele>
        <time>2009-10-04T16:35:39Z</time>
      </trkpt>
      <trkpt lat="45.1219" lon="4.98412">
        <ele>205.49600219727</ele>
        <time>2009-10-04T16:35:47Z</time>
      </trkpt>
      <trkpt lat="45.12107" lon="4.98404">
        <ele>205.55499267578</ele>
        <time>2009-10-04T16:35:59Z</time>
      </trkpt>
      <trkpt lat="45.12066" lon="4.98404">
        <ele>205.3690032959</ele>
        <time>2009-10-04T16:36:05Z</time>
      </trkpt>
      <trkpt lat="45.12051" lon="4.98362">
        <ele>204.96499633789</ele>
        <time>2009-10-04T16:36:11Z</time>
      </trkpt>
      <trkpt lat="45.1207" lon="4.98195">
        <ele>203.21600341797</ele>
        <time>2009-10-04T16:36:25Z</time>
      </trkpt>
      <trkpt lat="45.1204" lon="4.98024">
        <ele>201.52699279785</ele>
        <time>2009-10-04T16:36:39Z</time>
      </trkpt>
      <trkpt lat="45.12016" lon="4.97929">
        <ele>200.57299804688</ele>
        <time>2009-10-04T16:36:47Z</time>
      </trkpt>
      <trkpt lat="45.12009" lon="4.97894">
        <ele>200.45399475098</ele>
        <time>2009-10-04T16:36:50Z</time>
      </trkpt>
      <trkpt lat="45.11992" lon="4.97797">
        <ele>199.46800231934</ele>
        <time>2009-10-04T16:36:58Z</time>
      </trkpt>
      <trkpt lat="45.1198" lon="4.97723">
        <ele>198.90199279785</ele>
        <time>2009-10-04T16:37:04Z</time>
      </trkpt>
      <trkpt lat="45.11958" lon="4.97594">
        <ele>198.95799255371</ele>
        <time>2009-10-04T16:37:15Z</time>
      </trkpt>
      <trkpt lat="45.11917" lon="4.97359">
        <ele>196.84800720215</ele>
        <time>2009-10-04T16:37:34Z</time>
      </trkpt>
      <trkpt lat="45.11882" lon="4.97155">
        <ele>196.96699523926</ele>
        <time>2009-10-04T16:37:52Z</time>
      </trkpt>
      <trkpt lat="45.11898" lon="4.97087">
        <ele>198.67500305176</ele>
        <time>2009-10-04T16:38:00Z</time>
      </trkpt>
      <trkpt lat="45.11893" lon="4.97052">
        <ele>198.9940032959</ele>
        <time>2009-10-04T16:38:05Z</time>
      </trkpt>
      <trkpt lat="45.11876" lon="4.97039">
        <ele>198.83200073242</ele>
        <time>2009-10-04T16:38:08Z</time>
      </trkpt>
      <trkpt lat="45.11771" lon="4.9689">
        <ele>197.95199584961</ele>
        <time>2009-10-04T16:38:28Z</time>
      </trkpt>
      <trkpt lat="45.11762" lon="4.96853">
        <ele>197.68699645996</ele>
        <time>2009-10-04T16:38:32Z</time>
      </trkpt>
      <trkpt lat="45.11742" lon="4.96818">
        <ele>197.80900573731</ele>
        <time>2009-10-04T16:38:37Z</time>
      </trkpt>
      <trkpt lat="45.11673" lon="4.96731">
        <ele>196.63600158691</ele>
        <time>2009-10-04T16:38:49Z</time>
      </trkpt>
      <trkpt lat="45.11609" lon="4.96574">
        <ele>195.73599243164</ele>
        <time>2009-10-04T16:39:05Z</time>
      </trkpt>
      <trkpt lat="45.11583" lon="4.96506">
        <ele>195.53399658203</ele>
        <time>2009-10-04T16:39:13Z</time>
      </trkpt>
      <trkpt lat="45.1158" lon="4.96454">
        <ele>196.81599426269</ele>
        <time>2009-10-04T16:39:21Z</time>
      </trkpt>
      <trkpt lat="45.11574" lon="4.96446">
        <ele>197.06399536133</ele>
        <time>2009-10-04T16:39:27Z</time>
      </trkpt>
      <trkpt lat="45.11571" lon="4.96448">
        <ele>196.5950012207</ele>
        <time>2009-10-04T16:39:54Z</time>
      </trkpt>
      <trkpt lat="45.11571" lon="4.96447">
        <ele>196.8809967041</ele>
        <time>2009-10-04T16:39:55Z</time>
      </trkpt>
      <trkpt lat="45.11571" lon="4.96447">
        <ele>196.80700683594</ele>
        <time>2009-10-04T16:39:56Z</time>
      </trkpt>
      <trkpt lat="45.11566" lon="4.96451">
        <ele>196.01899719238</ele>
        <time>2009-10-04T16:40:33Z</time>
      </trkpt>
      <trkpt lat="45.11561" lon="4.96445">
        <ele>196.08099365234</ele>
        <time>2009-10-04T16:40:36Z</time>
      </trkpt>
      <trkpt lat="45.11565" lon="4.96426">
        <ele>197.29200744629</ele>
        <time>2009-10-04T16:40:43Z</time>
      </trkpt>
      <trkpt lat="45.11565" lon="4.96426">
        <ele>197.09199523926</ele>
        <time>2009-10-04T16:40:45Z</time>
      </trkpt>
      <trkpt lat="45.11566" lon="4.96428">
        <ele>197.25300598144</ele>
        <time>2009-10-04T16:40:52Z</time>
      </trkpt>
    </trkseg>
  </trk>
</gpx>